[[{"header":{"parameterUnit":"m.s-1","parameterCategory":1,"la1":30.6,"la2":28.766,"lo1":-90.7593,"lo2":-88.6598,"dy":0.0162,"dx":0.0183,"nx":116,"ny":114,"refTime":"2024-06-08T12:00:00:Z","depth":0,"parameterNumber":2,"parameterNumberName":"U-component_of_WINDS"},"data":[0.0,0.0,0.0,0.0,0.0,0.0,0.0,0.0,0.0,0.0,0.0,0.0,0.0,0.0,0.0,0.0,0.0,0.0,0.0,0.0,0.0,0.0,0.0,0.0,0.0,0.0,0.0,0.0,0.0,0.0,0.0,0.0,0.0,0.0,0.0,0.0,0.0,0.0,0.0,0.0,0.0,0.0,0.0,0.0,0.0,0.0,0.0,0.0,0.0,0.0,0.0,0.0,0.0,0.0,0.0,0.0,0.0,0.0,0.0,0.0,0.0,0.0,0.0,0.0,0.0,0.0,0.0,0.0,0.0,0.0,0.0,0.0,0.0,0.0,0.0,0.0,0.0,0.0,0.0,0.0,0.0,0.0,0.0,0.0,0.0,0.0,0.0,0.0,0.0,0.0,0.0,0.0,0.0,0.0,0.0,0.0,0.0,0.0,0.0,0.0,0.0,0.0,0.0,0.0,0.0,0.0,0.0,0.0,0.0,0.0,0.0,0.0,0.0,0.0,0.0,0.0,0.0,0.0,0.0,0.0,0.0,0.0,0.0,0.0,0.0,0.0,0.0,0.0,0.0,0.0,0.0,0.0,0.0,0.0,0.0,0.0,0.0,0.0,0.0,0.0,0.0,0.0,0.0,0.0,0.0,0.0,0.0,0.0,0.0,0.0,0.0,0.0,0.0,0.0,0.0,0.0,0.0,0.0,0.0,0.0,0.0,0.0,0.0,0.0,0.0,0.0,0.0,0.0,0.0,0.0,0.0,0.0,0.0,0.0,0.0,0.0,0.0,0.0,0.0,0.0,0.0,0.0,0.0,0.0,0.0,0.0,0.0,0.0,0.0,0.0,0.0,0.0,0.0,0.0,0.0,0.0,0.0,0.0,0.0,0.0,0.0,0.0,0.0,0.0,0.0,0.0,0.0,0.0,0.0,0.0,0.0,0.0,0.0,0.0,0.0,0.0,0.0,0.0,0.0,0.0,0.0,0.0,0.0,0.0,0.0,0.0,0.0,0.0,0.0,0.0,0.0,0.0,0.0,0.0,0.0,0.0,0.0,0.0,0.0,0.0,0.0,0.0,0.0,0.0,0.0,0.0,0.0,0.0,0.0,0.0,0.0,0.0,0.0,0.0,0.0,0.0,0.0,0.0,0.0,0.0,0.0,0.0,0.0,0.0,0.0,0.0,0.0,0.0,0.0,0.0,0.0,0.0,0.0,0.0,0.0,0.0,0.0,0.0,0.0,0.0,0.0,0.0,0.0,0.0,0.0,0.0,0.0,0.0,0.0,0.0,0.0,0.0,0.0,0.0,0.0,0.0,0.0,0.0,0.0,0.0,0.0,0.0,0.0,0.0,0.0,0.0,0.0,0.0,0.0,0.0,0.0,0.0,0.0,0.0,0.0,0.0,0.0,0.0,0.0,0.0,0.0,0.0,0.0,0.0,0.0,0.0,0.0,0.0,0.0,0.0,0.0,0.0,0.0,0.0,0.0,0.0,0.0,0.0,0.0,0.0,0.0,0.0,0.0,0.0,0.0,0.0,0.0,0.0,0.0,0.0,0.0,0.0,0.0,0.0,0.0,0.0,0.0,0.0,0.0,0.0,0.0,0.0,0.0,0.0,0.0,0.0,0.0,0.0,0.0,0.0,0.0,0.0,0.0,0.0,0.0,0.0,0.0,0.0,0.0,0.0,0.0,0.0,0.0,0.0,0.0,0.0,0.0,0.0,0.0,0.0,0.0,0.0,0.0,0.0,0.0,0.0,0.0,0.0,0.0,0.0,0.0,0.0,0.0,0.0,0.0,0.0,0.0,0.0,0.0,0.0,0.0,0.0,0.0,0.0,0.0,0.0,0.0,0.0,0.0,0.0,0.0,0.0,0.0,0.0,0.0,0.0,0.0,0.0,0.0,0.0,0.0,0.0,0.0,0.0,0.0,0.0,0.0,0.0,0.0,0.0,0.0,0.0,0.0,0.0,0.0,0.0,0.0,0.0,0.0,0.0,0.0,0.0,0.0,0.0,0.0,0.0,0.0,0.0,0.0,0.0,0.0,0.0,0.0,0.0,0.0,0.0,0.0,0.0,0.0,0.0,0.0,0.0,0.0,0.0,0.0,0.0,0.0,0.0,0.0,0.0,0.0,0.0,0.0,0.0,0.0,0.0,0.0,0.0,0.0,0.0,0.0,0.0,0.0,0.0,0.0,0.0,0.0,0.0,0.0,0.0,0.0,0.0,0.0,0.0,0.0,0.0,0.0,0.0,0.0,0.0,0.0,0.0,0.0,0.0,0.0,0.0,0.0,0.0,0.0,0.0,0.0,0.0,0.0,0.0,0.0,0.0,0.0,0.0,0.0,0.0,0.0,0.0,0.0,0.0,0.0,0.0,0.0,0.0,0.0,0.0,0.0,0.0,0.0,0.0,0.0,0.0,0.0,0.0,0.0,0.0,0.0,0.0,0.0,0.0,0.0,0.0,0.0,0.0,0.0,0.0,0.0,0.0,0.0,0.0,0.0,0.0,0.0,0.0,0.0,0.0,0.0,0.0,0.0,0.0,0.0,0.0,0.0,0.0,0.0,0.0,0.0,0.0,0.0,0.0,0.0,0.0,0.0,0.0,0.0,0.0,0.0,0.0,0.0,0.0,0.0,0.0,0.0,0.0,0.0,0.0,0.0,0.0,0.0,0.0,0.0,0.0,0.0,0.0,0.0,0.0,0.0,0.0,0.0,0.0,0.0,0.0,0.0,0.0,0.0,0.0,0.0,0.0,0.0,0.0,0.0,0.0,0.0,0.0,0.0,0.0,0.0,0.0,0.0,0.0,0.0,0.0,0.0,0.0,0.0,0.0,0.0,0.0,0.0,0.0,0.0,0.0,0.0,0.0,0.0,0.0,0.0,0.0,0.0,0.0,0.0,0.0,0.0,0.0,0.0,0.0,0.0,0.0,0.0,0.0,0.0,0.0,0.0,0.0,0.0,0.0,0.0,0.0,0.0,0.0,0.0,0.0,0.0,0.0,0.0,0.0,0.0,0.0,0.0,0.0,0.0,0.0,0.0,0.0,0.0,0.0,0.0,0.0,0.0,0.0,0.0,0.0,0.0,0.0,0.0,0.0,0.0,0.0,0.0,0.0,0.0,0.0,0.0,0.0,0.0,0.0,0.0,0.0,0.0,0.0,0.0,0.0,0.0,0.0,0.0,0.0,0.0,0.0,0.0,0.0,0.0,0.0,0.0,0.0,0.0,0.0,0.0,0.0,0.0,0.0,0.0,0.0,0.0,0.0,0.0,0.0,0.0,0.0,0.0,0.0,0.0,0.0,0.0,0.0,0.0,0.0,0.0,0.0,0.0,0.0,0.0,0.0,0.0,0.0,0.0,0.0,0.0,0.0,0.0,0.0,0.0,0.0,0.0,0.0,0.0,0.0,0.0,0.0,0.0,0.0,0.0,0.0,0.0,0.0,0.0,0.0,0.0,0.0,0.0,0.0,0.0,0.0,0.0,0.0,0.0,0.0,0.0,0.0,0.0,0.0,0.0,0.0,0.0,0.0,0.0,0.0,0.0,0.0,0.0,0.0,0.0,0.0,0.0,0.0,0.0,0.0,0.0,0.0,0.0,0.0,0.0,0.0,0.0,0.0,0.0,0.0,0.0,0.0,0.0,0.0,0.0,0.0,0.0,0.0,0.0,0.0,0.0,0.0,0.0,0.0,0.0,0.0,0.0,0.0,0.0,0.0,0.0,0.0,0.0,0.0,0.0,0.0,0.0,0.0,0.0,0.0,0.0,0.0,0.0,0.0,0.0,0.0,0.0,0.0,0.0,0.0,0.0,0.0,0.0,0.0,0.0,0.0,0.0,0.0,0.0,0.0,0.0,0.0,0.0,0.0,0.0,0.0,0.0,0.0,0.0,0.0,0.0,0.0,0.0,0.0,0.0,0.0,0.0,0.0,0.0,0.0,0.0,0.0,0.0,0.0,0.0,0.0,0.0,0.0,0.0,0.0,0.0,0.0,0.0,0.0,0.0,0.0,0.0,0.0,0.0,0.0,0.0,0.0,0.0,0.0,0.0,0.0,0.0,0.0,0.0,0.0,0.0,0.0,0.0,0.0,0.0,0.0,0.0,0.0,0.0,0.0,0.0,0.0,0.0,0.0,0.0,0.0,0.0,0.0,0.0,0.0,0.0,0.0,0.0,0.0,0.0,0.0,0.0,0.0,0.0,0.0,0.0,0.0,0.0,0.0,0.0,0.0,0.0,0.0,0.0,0.0,0.0,0.0,0.0,0.0,0.0,0.0,0.0,0.0,0.0,0.0,0.0,0.0,0.0,0.0,0.0,0.0,0.0,0.0,0.0,0.0,0.0,0.0,0.0,0.0,0.0,0.0,0.0,0.0,0.0,0.0,0.0,0.0,0.0,0.0,0.0,0.0,0.0,0.0,0.0,0.0,0.0,0.0,0.0,0.0,0.0,0.0,0.0,0.0,0.0,0.0,0.0,0.0,0.0,0.0,0.0,0.0,0.0,0.0,0.0,0.0,0.0,0.0,0.0,0.0,0.0,0.0,0.0,0.0,0.0,0.0,0.0,0.0,0.0,0.0,0.0,0.0,0.0,0.0,0.0,0.0,0.0,0.0,0.0,0.0,0.0,0.0,0.0,0.0,0.0,0.0,0.0,0.0,0.0,0.0,0.0,0.0,0.0,0.0,0.0,0.0,0.0,0.0,0.0,0.0,0.0,0.0,0.0,0.0,0.0,0.0,0.0,0.0,0.0,0.0,0.0,0.0,0.0,0.0,0.0,0.0,0.0,0.0,0.0,0.0,0.0,0.0,0.0,0.0,0.0,0.0,0.0,0.0,0.0,0.0,0.0,0.0,0.0,0.0,0.0,0.0,0.0,0.0,0.0,0.0,0.0,0.0,0.0,0.0,0.0,0.0,0.0,0.0,0.0,0.0,0.0,0.0,0.0,0.0,0.0,0.0,0.0,0.0,0.0,0.0,0.0,0.0,0.0,0.0,0.0,0.0,0.0,0.0,0.0,0.0,0.0,0.0,0.0,0.0,0.0,0.0,0.0,0.0,0.0,0.0,0.0,0.0,0.0,0.0,0.0,0.0,0.0,0.0,0.0,0.0,0.0,0.0,0.0,0.0,0.0,0.0,0.0,0.0,0.0,0.0,0.0,0.0,0.0,0.0,0.0,0.0,0.0,0.0,0.0,0.0,0.0,0.0,0.0,0.0,0.0,0.0,0.0,0.0,0.0,0.0,0.0,0.0,0.0,0.0,0.0,0.0,0.0,0.0,0.0,0.0,0.0,0.0,0.0,0.0,0.0,0.0,0.0,0.0,0.0,0.0,0.0,0.0,0.0,0.0,0.0,0.0,0.0,0.0,0.0,0.0,0.0,0.0,0.0,0.0,0.0,0.0,0.0,0.0,0.0,0.0,0.0,0.0,0.0,0.0,0.0,0.0,0.0,0.0,0.0,0.0,0.0,0.0,0.0,0.0,0.0,0.0,0.0,0.0,0.0,0.0,0.0,0.0,0.0,0.0,0.0,0.0,0.0,0.0,0.0,0.0,0.0,0.0,0.0,0.0,0.0,0.0,0.0,0.0,0.0,0.0,0.0,0.0,0.0,0.0,0.0,0.0,0.0,0.0,0.0,0.0,0.0,0.0,0.0,0.0,0.0,0.0,0.0,0.0,0.0,0.0,0.0,0.0,0.0,0.0,0.0,0.0,0.0,0.0,0.0,0.0,0.0,0.0,0.0,0.0,0.0,0.0,0.0,0.0,0.0,0.0,0.0,0.0,0.0,0.0,0.0,0.0,0.0,0.0,0.0,0.0,0.0,0.0,0.0,0.0,0.0,0.0,0.0,0.0,0.0,0.0,0.0,0.0,0.0,0.0,0.0,0.0,0.0,0.0,0.0,0.0,0.0,0.0,0.0,0.0,0.0,0.0,0.0,0.0,0.0,0.0,0.0,0.0,0.0,0.0,0.0,0.0,0.0,0.0,0.0,0.0,0.0,0.0,0.0,0.0,0.0,0.0,0.0,0.0,0.0,0.0,0.0,0.0,0.0,0.0,0.0,0.0,0.0,0.0,0.0,0.0,0.0,0.0,0.0,0.0,0.0,0.0,-2.923,0.0,0.0,0.0,0.0,0.0,0.0,0.0,0.0,0.0,0.0,0.0,0.0,0.0,0.0,0.0,0.0,0.0,0.0,0.0,0.0,0.0,0.0,0.0,0.0,-1.533,-1.6066,-1.7754,-1.7905,-1.7502,-1.6552,0.0,0.0,0.0,0.0,0.0,-1.6016,-1.6016,-1.664,-1.7902,-1.7903,-1.8777,-2.0439,-1.9558,-1.8909,-1.8472,0.0,0.0,0.0,0.0,0.0,0.0,0.0,0.0,0.0,0.0,0.0,0.0,0.0,0.0,0.0,0.0,0.0,0.0,0.0,0.0,0.0,0.0,0.0,0.0,0.0,0.0,0.0,0.0,0.0,0.0,0.0,0.0,0.0,0.0,0.0,0.0,0.0,0.0,0.0,0.0,0.0,0.0,0.0,0.0,0.0,0.0,0.0,0.0,0.0,0.0,0.0,0.0,0.0,0.0,0.0,0.0,0.0,0.0,0.0,0.0,0.0,0.0,0.0,0.0,0.0,0.0,0.0,0.0,0.0,0.0,0.0,-3.1211,0.0,0.0,0.0,0.0,0.0,0.0,0.0,0.0,0.0,0.0,0.0,0.0,0.0,0.0,0.0,0.0,0.0,0.0,0.0,0.0,0.0,-1.3432,-1.5031,-1.5832,-1.767,-2.1172,-2.0937,-1.9976,-1.8472,-1.7768,0.0,0.0,0.0,-1.617,-1.6894,-1.707,-1.789,-1.9432,-2.0069,-2.1157,-2.2666,-2.281,-2.246,-2.169,-2.09,0.0,0.0,0.0,0.0,0.0,0.0,0.0,0.0,0.0,0.0,0.0,0.0,0.0,0.0,0.0,0.0,0.0,0.0,0.0,0.0,0.0,0.0,0.0,0.0,0.0,0.0,0.0,0.0,0.0,0.0,0.0,0.0,0.0,0.0,0.0,0.0,0.0,0.0,0.0,0.0,0.0,0.0,0.0,0.0,0.0,0.0,0.0,0.0,0.0,0.0,0.0,0.0,0.0,0.0,0.0,0.0,0.0,0.0,0.0,0.0,0.0,0.0,0.0,-3.8851,-3.9087,-4.014,-3.9261,-3.911,-3.9419,-3.658,-3.5598,-3.5785,0.0,0.0,0.0,0.0,0.0,0.0,0.0,0.0,0.0,0.0,0.0,0.0,0.0,0.0,0.0,0.0,0.0,0.0,0.0,0.0,-1.386,-1.5067,-1.7868,-2.1103,-2.4707,-2.2311,-2.0496,-2.0262,-1.9206,0.0,0.0,-1.7472,-1.7567,-1.7736,-1.8479,-1.9388,-2.0429,-2.3272,-2.5154,-2.6075,-2.6777,-2.7054,-2.6842,-2.3156,-2.1459,-2.1229,0.0,0.0,0.0,0.0,0.0,0.0,0.0,0.0,0.0,0.0,0.0,0.0,0.0,0.0,0.0,0.0,0.0,0.0,0.0,0.0,0.0,0.0,0.0,0.0,0.0,0.0,0.0,0.0,0.0,0.0,0.0,0.0,0.0,0.0,0.0,0.0,0.0,0.0,0.0,0.0,0.0,-2.6278,-2.9369,0.0,0.0,0.0,0.0,0.0,0.0,0.0,0.0,0.0,0.0,0.0,0.0,0.0,0.0,-4.1497,-4.2892,-4.3469,-4.3224,-4.3776,-4.3615,-4.2804,-4.2653,-4.2327,-4.183,-4.1391,0.0,-3.7466,-3.5718,0.0,0.0,0.0,0.0,0.0,0.0,0.0,0.0,0.0,0.0,0.0,0.0,0.0,0.0,0.0,0.0,0.0,0.0,0.0,0.0,0.0,-1.9925,-2.3378,-2.4003,-2.3013,-2.1856,-2.0687,-2.0021,-1.9544,-1.9214,-1.829,-1.8279,-1.9276,-1.9714,-2.1085,-2.3477,-2.5804,-2.714,-2.7488,-2.7802,-2.7947,-2.7846,-2.568,-2.4399,-2.3749,-2.2219,0.0,0.0,0.0,0.0,0.0,0.0,0.0,0.0,0.0,0.0,0.0,0.0,0.0,0.0,0.0,0.0,0.0,0.0,0.0,0.0,0.0,0.0,0.0,0.0,0.0,0.0,0.0,0.0,0.0,0.0,0.0,0.0,0.0,0.0,0.0,0.0,0.0,0.0,0.0,-2.7393,-2.9078,-3.1518,-3.4323,-3.5078,0.0,0.0,0.0,0.0,0.0,0.0,0.0,0.0,0.0,-4.1976,-4.2855,-4.4048,-4.5663,-4.6379,-4.6854,-4.7098,-4.669,-4.6482,-4.6362,-4.5182,-4.4484,-4.4164,-4.3301,-4.2202,-4.0815,-3.8481,-3.6705,-3.5284,0.0,0.0,0.0,0.0,0.0,-3.2865,0.0,0.0,0.0,0.0,0.0,0.0,0.0,0.0,0.0,0.0,0.0,0.0,-1.6318,-2.1043,-2.3977,-2.3442,-2.3362,-2.2917,-2.193,-2.115,-2.0596,-2.0318,-1.9102,-1.9146,-2.066,-2.144,-2.3406,-2.6678,-2.7876,-2.8676,-2.9063,-2.9009,-2.9056,-2.9201,-2.8607,-2.76,-2.6287,-2.4881,-2.3782,-2.2629,0.0,0.0,0.0,0.0,0.0,0.0,0.0,0.0,0.0,0.0,0.0,0.0,0.0,0.0,0.0,0.0,0.0,0.0,0.0,0.0,0.0,0.0,0.0,0.0,0.0,0.0,0.0,0.0,0.0,0.0,0.0,0.0,0.0,0.0,0.0,0.0,0.0,-3.0502,-3.1981,-3.4544,-3.8661,-4.0805,0.0,0.0,0.0,0.0,0.0,0.0,-4.0614,-4.2067,-4.3864,-4.5865,-4.6526,-4.7517,-4.893,-4.8948,-4.926,-4.9903,-4.8896,-4.855,-4.8767,-4.7182,-4.6192,-4.5652,-4.4502,-4.3893,-4.3521,-4.0899,-3.9411,-3.8582,-3.6874,-3.5656,-3.4996,-3.6276,-3.6299,-3.5994,0.0,0.0,0.0,0.0,0.0,0.0,0.0,0.0,0.0,0.0,0.0,-1.8067,-1.9337,-2.0515,-2.2222,-2.4754,-2.3388,-2.3194,0.0,-2.2983,-2.1238,-2.0349,-2.0212,-2.0595,-2.153,-2.4041,-2.6655,-2.9309,-2.939,-3.0215,-3.1702,-3.163,-3.2052,-3.2797,-3.2018,-3.0565,-2.8597,-2.6498,-2.7452,-2.9761,-2.283,0.0,0.0,0.0,0.0,0.0,0.0,0.0,0.0,0.0,0.0,0.0,0.0,0.0,0.0,0.0,0.0,0.0,0.0,0.0,0.0,0.0,0.0,0.0,0.0,0.0,0.0,0.0,0.0,0.0,0.0,0.0,0.0,0.0,0.0,0.0,0.0,0.0,0.0,-3.9538,-4.2035,0.0,0.0,0.0,0.0,-4.3185,-4.6103,-4.722,-4.5626,-4.7058,-4.8343,-4.9224,-4.9372,-4.9831,-5.0674,-5.0674,-5.071,-5.0747,-5.0668,-5.0007,-4.881,-4.8682,-4.757,-4.5703,-4.5618,-4.5179,-4.4429,-4.2794,-4.1694,-4.1035,-4.0916,-3.9986,-3.8802,-3.9572,-3.9411,-3.8886,0.0,0.0,0.0,0.0,0.0,-1.3429,-1.3646,-1.4232,-1.4837,-1.5356,-1.9182,-2.2079,-2.255,-2.3039,-2.3703,-2.4696,-2.4252,-2.4239,-2.5,-2.3596,-2.2487,-2.1937,-2.1577,-2.2234,-2.4001,-2.6111,-2.8214,-3.0265,-3.027,-3.1118,-3.272,-3.2081,-3.2265,-3.3082,-3.285,-3.1713,-2.9934,-2.9184,-2.7984,-2.6408,-2.4352,-2.1504,0.0,0.0,0.0,0.0,0.0,0.0,0.0,0.0,0.0,0.0,0.0,0.0,0.0,0.0,0.0,0.0,0.0,0.0,0.0,0.0,0.0,0.0,0.0,0.0,0.0,0.0,0.0,0.0,0.0,0.0,0.0,0.0,0.0,0.0,0.0,0.0,0.0,-4.3214,-4.3963,0.0,-4.4492,-4.5768,-4.6164,-4.5122,-4.7574,-4.8898,-4.8307,-4.9315,-5.0288,-5.1077,-5.1114,-5.1518,-5.2344,-5.2344,-5.2344,-5.2323,-5.1868,-5.1393,-5.0898,-4.9984,-4.8925,-4.7715,-4.6753,-4.5945,-4.5229,-4.4181,-4.3318,-4.2564,-4.2083,-4.1593,-4.1153,-4.1424,-4.1052,-4.046,0.0,0.0,0.0,0.0,-1.3352,-1.394,-1.4895,-1.4865,-1.5135,-1.6239,-2.0474,-2.3607,-2.4144,-2.4358,-2.4499,-2.4565,-2.4593,-2.4643,-2.4724,-2.4018,-2.3402,-2.2999,-2.3055,-2.3968,-2.5768,-2.7847,-2.9624,-3.1102,-3.1406,-3.2266,-3.3638,-3.2994,-3.316,-3.3972,-3.3745,-3.3076,-3.2082,-3.1564,-2.92,-2.5864,-2.6348,-2.4568,-2.1262,0.0,0.0,0.0,0.0,0.0,0.0,0.0,0.0,0.0,0.0,0.0,0.0,0.0,0.0,0.0,0.0,0.0,0.0,0.0,0.0,0.0,0.0,0.0,0.0,0.0,0.0,0.0,0.0,0.0,0.0,0.0,0.0,0.0,0.0,0.0,-4.1492,-4.5676,-4.6069,-4.6057,-4.625,-4.7772,-4.8289,-4.7224,-4.917,-5.0418,-5.0418,-5.1169,-5.1848,-5.238,-5.2399,-5.2656,-5.3185,-5.3185,-5.3185,-5.3185,-5.2707,-5.2335,-5.2071,-5.1124,-5.0037,-4.8848,-4.787,-4.6777,-4.5669,-4.5162,-4.4502,-4.3758,-4.3267,-4.2912,-4.2675,-4.2675,-4.2202,-4.1542,0.0,0.0,0.0,-1.3012,-1.3458,-1.3853,-1.4936,-1.5169,-1.5807,-1.7503,-2.0155,-2.2465,-2.4007,-2.4192,-2.4275,-2.4469,-2.4312,-2.4301,-2.4576,-2.4344,-2.3972,-2.3469,-2.4699,-2.5808,-2.6697,-2.9206,-3.0987,-3.1977,-3.2799,-3.3656,-3.4533,-3.4513,-3.4928,-3.5661,-3.4872,-3.4743,-3.5015,-3.3475,-3.1417,-2.9138,-2.9036,-2.7134,-2.4075,0.0,0.0,0.0,0.0,0.0,0.0,0.0,0.0,0.0,0.0,0.0,0.0,0.0,0.0,0.0,0.0,0.0,0.0,0.0,0.0,0.0,0.0,0.0,0.0,0.0,0.0,0.0,0.0,0.0,0.0,0.0,0.0,0.0,-3.582,-3.95,-4.3605,-4.7041,-4.8443,-4.8631,-4.7264,-4.8689,-4.9665,-4.9665,-5.1153,-5.205,-5.2068,-5.2821,-5.324,-5.328,-5.328,-5.3259,-5.3243,-5.3243,-5.3203,-5.3185,-5.3185,-5.2831,-5.2136,-5.2112,-5.0948,-4.8962,-4.8917,-4.7705,-4.5737,-4.572,-4.5263,-4.4615,-4.4615,-4.4113,-4.3426,-4.3426,-4.298,-4.2219,0.0,0.0,-1.132,-1.3211,-1.3555,-1.3923,-1.4931,-1.5234,-1.6107,-1.8216,-2.1445,-2.3533,-2.3547,-2.3943,-2.4218,-2.4275,-2.4237,-2.4228,-2.4311,-2.4245,-2.4936,-2.6567,-2.6986,-2.7871,-2.9327,-3.011,-3.1569,-3.3787,-3.3432,-3.4043,-3.5509,-3.4863,-3.5002,-3.5753,-3.5445,-3.5392,-3.5445,-3.4096,-3.3118,-3.2278,-2.9935,-2.8466,-2.7598,0.0,0.0,0.0,0.0,0.0,0.0,0.0,0.0,0.0,0.0,0.0,0.0,0.0,0.0,0.0,0.0,0.0,0.0,0.0,0.0,0.0,0.0,0.0,0.0,0.0,0.0,0.0,0.0,0.0,0.0,0.0,0.0,-3.7846,-3.7389,-4.2096,-4.6858,-5.0232,-5.0415,-5.0218,-5.0127,-5.086,-5.1355,-5.1355,-5.2289,-5.3133,-5.3702,-5.3959,-5.4344,-5.4913,-5.4932,-5.4656,-5.4087,-5.4069,-5.3794,-5.3185,-5.3185,-5.3103,-5.2875,-5.2358,-5.1493,-5.0444,-4.9346,-4.7997,-4.6447,-4.5923,-4.5263,-4.4615,-4.4615,-4.4479,-4.4265,-4.4265,-4.3775,-4.2997,0.0,-1.1276,-1.1946,-1.3315,-1.3588,-1.3936,-1.4908,-1.5601,-1.6853,-1.9169,-2.2003,-2.382,-2.3802,-2.4122,-2.4294,-2.4199,-2.419,-2.419,-2.419,-2.4669,-2.6148,-2.8834,-2.8956,-2.9404,-3.0385,-3.1521,-3.2888,-3.4507,-3.4378,-3.4823,-3.5808,-3.53,-3.5291,-3.5715,-3.5634,-3.562,-3.5603,-3.4725,-3.4127,-3.3634,-3.1763,-3.0206,-2.893,-2.8281,-2.6874,-2.5336,-2.5969,-2.6386,-2.6387,-2.4941,0.0,0.0,0.0,0.0,0.0,0.0,0.0,0.0,0.0,0.0,0.0,0.0,0.0,0.0,0.0,0.0,0.0,0.0,0.0,0.0,0.0,0.0,0.0,0.0,-3.7811,-4.0874,-4.2072,-4.5417,-4.8759,-5.1424,-5.1414,-5.1359,-5.1765,-5.2223,-5.2637,-5.2968,-5.3445,-5.4051,-5.4858,-5.4895,-5.5115,-5.5574,-5.5614,-5.5207,-5.4418,-5.4399,-5.4014,-5.3185,-5.3185,-5.3185,-5.3185,-5.2445,-5.1716,0.0,-4.9864,-4.857,-4.7208,-4.6464,-4.572,0.0,0.0,0.0,0.0,0.0,-4.4282,-4.3792,0.0,-1.1792,-1.2599,-1.3454,-1.3635,-1.3952,-1.4791,-1.6,-1.765,-1.9986,-2.2025,-2.3581,-2.4441,-2.4521,-2.4432,-2.4238,-2.4209,-2.419,0.0,-2.5431,-2.7499,-3.0549,-3.0587,-3.0646,-3.0837,-3.3116,-3.4426,-3.4655,-3.5352,-3.5702,-3.5722,-3.5702,-3.5671,-3.5607,-3.5592,-3.5606,-3.5565,-3.5242,-3.4642,-3.3906,-3.3874,-3.1908,-2.8893,-2.7873,-2.7285,-2.7149,-2.8519,-2.812,-2.686,-2.6423,0.0,0.0,0.0,0.0,0.0,0.0,0.0,0.0,0.0,0.0,0.0,0.0,0.0,0.0,0.0,0.0,0.0,0.0,0.0,0.0,0.0,0.0,0.0,0.0,-4.1847,-4.5531,-4.8039,-4.8856,-4.9794,-5.1408,-5.177,-5.2078,-5.2531,-5.2957,-5.3537,-5.4344,-5.4399,-5.4785,-5.5684,0.0,0.0,0.0,0.0,-5.5464,-5.4675,-5.4583,-5.4124,-5.3335,-5.3243,-5.3185,-5.3185,-5.2445,-5.1716,-5.106,-5.0324,-4.9193,-4.7821,-4.7107,-4.6312,-4.5517,-4.4869,-4.4615,-4.4615,-4.4615,-4.4615,0.0,0.0,-1.2965,-1.3343,-1.4153,-1.4172,-1.4185,-1.4468,-1.5506,-1.7078,-1.9374,-2.1606,-2.3425,-2.4605,-2.4594,-2.4471,-2.4451,-2.4294,-2.4201,-2.4204,-2.5988,-2.8655,-3.2253,-3.18,-3.211,-3.3523,-3.4032,-3.4734,-3.5635,-3.5688,-3.576,-3.5856,-3.5758,-3.5687,-3.5683,-3.5611,-3.5568,-3.5493,-3.5215,-3.4879,-3.4499,-3.4344,-3.2157,-2.9249,-3.1553,-3.0815,-2.8595,-2.8901,-2.8964,-2.9089,-3.0092,-2.9858,-2.9112,-2.9109,-2.8747,0.0,0.0,0.0,0.0,0.0,0.0,0.0,0.0,0.0,0.0,0.0,0.0,0.0,0.0,0.0,0.0,0.0,0.0,0.0,-4.2467,-4.7021,-4.9576,-5.0115,-5.0289,-5.0812,-5.2001,-5.2009,-5.2207,-5.2992,-5.3138,-5.3537,-5.4344,-5.4399,-5.5042,-5.6492,-5.6565,0.0,-5.7519,-5.7538,-5.7152,-5.6345,-5.5684,-5.495,-5.4161,0.0,0.0,-5.3185,-5.2445,-5.1716,-5.106,-5.0324,-4.9193,-4.7821,-4.7107,-4.6007,-4.4818,-4.4666,-4.4615,-4.4615,-4.4615,-4.4615,-4.4581,-1.3543,-1.3684,-1.3889,-1.4283,-1.427,-1.4177,-1.4062,-1.5329,-1.6991,-1.8905,-2.0704,-2.2191,-2.324,-2.338,-2.3351,-2.3253,-2.3555,-2.3869,-2.4189,-2.6609,-2.9133,-3.1551,-3.2513,-3.3357,-3.4139,-3.4762,-3.5355,-3.5901,-3.5836,-3.5802,-3.5799,-3.5698,-3.5641,-3.559,-3.5552,-3.5528,-3.5493,-3.5361,-3.5157,-3.4889,-3.4793,-3.364,-3.209,-3.3317,-3.2463,-3.0498,-2.9721,-2.9926,-3.0575,-3.0677,-3.07,-3.0638,-3.031,-3.0069,-2.9488,0.0,0.0,0.0,0.0,0.0,0.0,0.0,0.0,0.0,0.0,0.0,0.0,0.0,0.0,-3.1014,0.0,0.0,-4.066,-4.7107,-4.9115,-5.0048,-5.0625,-5.0693,-5.1144,-5.2308,-5.2122,-5.2313,-5.3398,-5.3316,-5.3702,-5.4913,-5.4987,-5.5702,-5.7317,-5.7409,-5.7574,-5.7997,-5.7997,-5.7611,-5.6822,-5.5996,-5.5188,-5.4399,-5.3592,-5.3185,-5.3185,-5.2445,-5.1928,-5.1544,-5.0472,-4.9614,-4.8829,-4.7403,-4.5923,-4.4615,-4.4615,-4.4615,-4.4615,-4.4615,-4.4615,-4.4615,-1.3795,-1.3976,-1.4103,-1.4136,-1.4116,-1.4053,-1.393,-1.5211,-1.6789,-1.8483,-1.98,-2.0915,-2.1771,-2.2089,-2.2266,-2.2309,-2.294,-2.3719,-2.4622,-2.6994,-2.913,-3.0806,-3.2893,-3.4119,-3.4324,-3.5349,-3.5887,-3.5914,-3.5907,-3.5836,-3.5703,-3.563,-3.5568,-3.55,-3.5515,-3.5515,-3.5515,-3.5528,-3.5383,-3.5133,-3.5201,-3.51,-3.4879,-3.4113,-3.3116,-3.1919,-3.0487,-3.0445,-3.0996,-3.0364,-3.0604,-3.1065,-3.0529,-3.0595,-3.0575,-2.9021,-2.7624,0.0,0.0,0.0,0.0,0.0,0.0,0.0,0.0,-3.5011,-3.5902,-3.0379,-3.1221,-3.5746,-4.4903,-4.7697,-4.9062,-5.0471,-4.9923,-4.9644,-5.0577,-5.0712,-5.1141,-5.2308,-5.213,-5.2411,-5.3683,-5.3442,-5.3867,-5.5464,-5.5614,-5.629,-5.7905,-5.7997,-5.7997,-5.7997,-5.7997,-5.7685,-5.7042,-5.6235,-5.5427,-5.462,-5.383,-5.3353,-5.3185,-5.2576,-5.2247,-5.2024,-5.0591,-4.9918,-4.9619,-4.7617,-4.6007,-4.4818,-4.4666,-4.4615,-4.4615,-4.4615,-4.4615,-4.4615,0.0,-1.3646,-1.3714,-1.3906,-1.384,-1.3957,-1.457,-1.4908,-1.586,-1.8068,-1.9408,-2.0563,-2.162,-2.1909,-2.2411,-2.3337,-2.346,-2.4289,-2.6204,-2.6655,-2.8568,-3.2455,-3.2905,-3.3821,-3.5472,-3.5701,-3.5861,-3.5995,-3.5939,-3.5836,-3.5703,-3.563,-3.5568,-3.5507,-3.5562,-3.5585,-3.5595,-3.565,-3.5485,-3.5218,-3.5514,-3.546,-3.5076,-3.4206,-3.3037,-3.1694,-3.0561,-2.9795,-2.9506,-3.0927,-3.1078,-3.0796,-3.1464,-3.1921,-3.1941,-3.0684,-3.0301,-3.164,-3.7793,-3.9899,-3.9366,-3.5359,-3.5494,-3.7116,0.0,-4.2011,-4.4259,-4.3495,-4.264,-4.3695,-4.9127,-5.0284,-5.0471,-5.0664,-5.0587,-5.0558,-5.0693,-5.0712,-5.1019,-5.1882,-5.192,-5.2411,-5.3683,-5.3442,-5.3867,-5.5464,-5.5614,-5.629,-5.7905,-5.7997,-5.7997,-5.7997,-5.7997,-5.796,-5.7868,-5.7079,-5.6253,-5.5467,-5.4638,-5.3904,-5.3185,-5.3103,-5.2725,-5.2024,-5.0591,-4.9634,-4.8931,-4.7425,-4.6312,-4.5517,-4.4869,-4.4615,-4.4615,-4.4615,-4.4615,-4.4615,0.0,-1.4119,-1.4281,-1.4796,-1.4238,-1.405,-1.5109,-1.5511,-1.6115,-1.7219,-1.8318,-1.9246,-1.994,-2.0477,-2.1386,-2.2889,-2.2993,-2.4014,-2.6437,-2.7368,-2.9792,-3.4211,-3.4501,-3.4954,-3.5841,-3.5896,-3.5915,-3.5886,-3.5937,-3.5868,-3.5698,-3.5674,-3.5614,-3.5568,-3.5585,-3.5606,-3.559,-3.5582,-3.5519,-3.5457,-3.5591,-3.5295,-3.469,-3.3821,-3.2508,-3.0969,-2.9891,-2.9661,0.0,-3.0139,-3.0347,-3.0699,-3.1566,-3.2093,-3.2363,-3.2172,-3.1542,-3.2404,-3.9322,-3.9589,-3.803,-3.8666,-4.0112,-4.1744,-4.3145,-4.4573,-4.5596,-4.5602,-4.5131,-4.5956,-4.9956,-5.016,-4.9923,0.0,-5.1097,-5.1221,-5.077,-5.1106,-5.1529,-5.1865,-5.1484,-5.1792,-5.3286,-5.288,-5.3353,-5.5449,-5.5614,-5.629,-5.7905,-5.7997,-5.7997,-5.7997,-5.7997,-5.7997,-5.7997,-5.7207,-5.64,-5.5574,-5.4785,-5.3977,-5.3185,-5.3185,-5.2791,-5.2065,-5.1086,-4.9981,-4.8792,-4.7391,-4.6363,-4.5635,-4.4902,-4.4615,-4.4615,-4.4615,-4.4615,-4.4615,0.0,-1.4656,-1.5009,-1.5681,-1.4929,-1.4596,-1.5721,-1.6366,-1.6777,-1.6982,-1.7696,-1.8389,-1.8883,-1.9492,-2.0606,-2.2442,-2.2649,-2.3802,-2.6457,-2.7783,-3.0167,-3.393,-3.5178,-3.5845,-3.6008,-3.6007,-3.5916,-3.5724,-3.5837,-3.5833,-3.572,-3.5686,-3.565,-3.5576,-3.5586,-3.5562,-3.5487,-3.5543,-3.5525,-3.5487,-3.535,-3.4948,-3.4334,-3.3242,-3.1929,-3.0486,-2.9488,-2.9277,-2.943,-2.9028,-2.9156,-2.9621,-3.0502,-3.1323,-3.1968,-3.1873,-3.2669,-3.4443,-3.8517,-3.8386,-3.747,-3.9192,-4.2637,-4.5595,-4.5591,-4.561,-4.5607,-4.5599,-4.5602,-4.6455,-4.9243,-4.9095,-4.8923,-5.0144,-5.1029,-5.1375,-5.0789,-5.1395,-5.1808,-5.1606,-5.0869,-5.0926,-5.2378,-5.2215,-5.2894,-5.5097,-5.5464,-5.6198,-5.7593,-5.7886,-5.7997,-5.7997,-5.7997,-5.7997,-5.7997,-5.7207,-5.64,-5.5574,-5.4785,-5.3977,-5.3185,-5.3185,-5.2791,-5.2047,-5.1393,-5.0373,-4.9076,-4.7476,-4.6481,-4.5906,-4.4987,-4.4615,-4.4615,-4.4615,-4.4615,-4.4615,0.0,0.0,-1.5708,-1.6199,-1.5878,-1.5813,-1.6551,-1.7282,-1.7749,-1.7766,-1.8018,-1.8488,-1.9214,-1.9583,-2.055,-2.2448,-2.2773,-2.3971,-2.6526,-2.7466,-2.8712,-3.0474,-3.4046,-3.599,-3.6006,-3.6001,-3.5838,-3.5512,-3.5574,-3.5675,-3.5786,-3.5653,-3.5575,-3.5508,-3.5572,-3.5468,-3.5227,-3.5558,-3.5519,-3.5168,-3.473,-3.4447,-3.4137,-3.254,-3.1421,-3.0589,-2.9708,-2.8328,-2.7048,-2.7865,-2.7593,-2.7069,-2.7931,-2.9476,-3.0626,-2.8943,-3.4024,-3.954,-3.6492,-3.8294,-4.017,-3.6563,-4.0687,-4.5594,-4.5607,-4.5594,-4.5594,-4.5605,-4.5598,-4.5973,-4.7173,-4.7375,-4.7818,-4.9202,-5.0164,-5.0731,-5.0712,-5.1395,-5.1606,-5.0827,-5.0044,-4.9866,0.0,-5.151,-5.2674,-5.4308,-5.5152,-5.5959,-5.6804,-5.7574,-5.7997,-5.7997,-5.7997,-5.7997,-5.7997,-5.7207,-5.64,-5.5574,-5.4785,-5.3977,-5.3185,-5.3185,-5.2791,-5.2047,-5.1393,-5.0672,-4.9792,-4.7668,-4.6786,-4.6616,-4.5173,-4.4615,-4.4615,-4.4615,-4.4615,-4.4615,0.0,0.0,0.0,-1.6727,-1.6441,-1.6313,-1.6881,-1.7183,-1.7447,-1.776,-1.8652,0.0,0.0,0.0,0.0,0.0,-2.2689,-2.3863,-2.6596,-2.6529,-2.7294,-2.9385,-3.1493,-3.3672,-3.595,-3.5791,-3.5617,-3.5495,-3.4363,-3.4046,-3.4489,-3.4756,-3.4867,-3.4844,-3.518,-3.5275,-3.5195,-3.5084,-3.5427,-3.5946,-3.4632,-3.4223,-3.4239,-3.2511,-3.063,-2.8853,0.0,-2.7679,-2.6764,-2.7021,-2.6943,-2.6883,-2.7757,-2.8495,-3.0003,-3.4955,-3.6772,-3.6981,-3.6086,-4.0116,-4.419,-4.2601,-4.3918,-4.5594,-4.5607,-4.5594,-4.5594,-4.5594,-4.5,-4.5049,-4.6951,-4.6682,-4.6874,-4.9048,-5.0125,-5.0712,-5.0712,-5.1895,-5.226,-5.0866,-5.0964,0.0,0.0,0.0,0.0,-5.3445,-5.4344,-5.539,-5.673,-5.7556,-5.7997,-5.7997,-5.7997,-5.7997,-5.7997,-5.7207,-5.64,-5.5596,-5.4234,-5.3463,-5.3185,-5.3185,-5.2791,-5.2047,-5.1393,-5.0689,-4.9826,-4.7668,-4.6786,-4.6633,-4.519,-4.4615,-4.4615,-4.4615,-4.4615,-4.4615,0.0,0.0,0.0,0.0,0.0,0.0,0.0,0.0,0.0,0.0,0.0,0.0,0.0,0.0,0.0,0.0,0.0,-2.4064,-2.6166,-2.5857,-2.625,-2.7715,-2.855,-3.0268,-3.3054,-3.2897,-3.3679,-3.5489,-3.3144,-3.2215,-3.2603,-3.3509,-3.3895,-3.3829,-3.4045,-3.4075,-3.399,-3.3857,-3.4243,-3.4825,-3.318,-3.2713,-3.2848,-3.1081,-2.9196,0.0,-2.7445,-2.6896,-2.6187,-2.615,-2.6371,-2.6829,-2.7699,-2.7982,-2.9431,-3.6616,-3.8899,-3.9157,-3.9371,-4.2659,-4.5983,-4.5686,-4.5594,-4.5611,-4.561,-4.5594,-4.5518,-4.521,-4.4316,-4.4058,-4.5528,-4.4951,-4.5182,-4.8048,-4.9471,-5.0433,-5.1029,-5.2587,-5.3145,-5.176,-5.1833,-5.1975,0.0,0.0,0.0,-5.3038,-5.4216,-5.528,-5.6326,-5.7409,-5.7997,-5.7997,-5.7997,-5.785,-5.7574,-5.6767,-5.5812,-5.473,-5.3702,-5.3185,-5.3185,-5.3185,-5.2791,-5.2047,-5.1393,-5.0689,-4.9826,-4.7668,-4.6786,-4.6633,-4.519,-4.4615,-4.4615,-4.4615,-4.4615,-4.4615,0.0,0.0,0.0,0.0,0.0,0.0,0.0,0.0,0.0,0.0,0.0,0.0,0.0,0.0,0.0,0.0,0.0,0.0,-2.534,-2.5523,-2.5586,-2.5588,-2.5527,-2.6203,-2.7733,-2.7763,-3.0144,-3.4968,-3.1781,-3.024,-3.0318,-3.1943,-3.2594,-3.2401,-3.2168,-3.1926,-3.1683,-3.1929,-3.209,-3.2005,-3.0516,-3.0112,-3.0212,-2.8544,-2.7351,-2.6601,-2.6601,-2.6077,-2.5365,-2.5423,-2.6,-2.6865,-2.775,-2.8025,-2.9088,-3.444,-4.043,-4.5383,-4.5544,-4.5596,-4.5609,-4.5609,-4.5607,-4.5594,-4.5594,-4.5575,-4.5287,-4.4412,-4.3566,-4.2951,-4.2912,-4.2297,-4.2885,-4.6231,-4.8202,-4.9933,-5.1654,-5.3356,-5.4126,-5.3299,-5.2595,-5.2164,-5.2126,0.0,0.0,-5.3203,0.0,-5.5556,-5.5614,-5.7116,-5.7997,-5.7997,-5.7997,-5.7611,-5.6822,-5.5959,-5.4748,-5.3185,-5.3185,-5.3185,-5.3185,-5.3185,-5.2791,-5.2047,-5.1419,-5.0699,-4.9774,-4.771,-4.6827,-4.6583,-4.5173,-4.4615,-4.4615,-4.4615,-4.4615,-4.4615,0.0,0.0,0.0,0.0,0.0,0.0,0.0,0.0,0.0,0.0,0.0,0.0,0.0,0.0,0.0,0.0,0.0,0.0,-2.5321,-2.5434,-2.5476,-2.5527,-2.5502,-2.5696,-2.6095,-2.602,-2.6608,-2.7901,-2.7884,-2.8096,-2.8566,-2.9602,-2.9953,-2.9794,-3.0165,-3.0226,-3.0004,-2.9874,-3.0387,-3.1156,-2.9481,-2.9458,-3.0212,-2.8544,-2.7351,-2.6601,-2.6601,-2.6467,-2.637,-2.7024,-2.7646,-2.8355,-2.9423,-2.9761,-3.1508,-4.0429,-4.2448,-4.236,-4.4909,-4.5595,-4.5602,-4.5602,-4.5599,-4.5594,-4.5594,-4.5094,-4.4393,-4.3585,-4.22,-4.0977,-4.0381,-4.1104,-4.2489,-4.4624,-4.6913,0.0,-5.1577,-5.2837,-5.3453,-5.3241,-5.4109,-5.4506,-5.3849,-5.4146,0.0,0.0,-5.4803,-5.4968,-5.5578,-5.7116,-5.7997,-5.7997,-5.7997,-5.7611,-5.6822,-5.5409,-5.4197,-5.3185,-5.3185,-5.3185,-5.3185,-5.3185,-5.2791,-5.2089,-5.1928,-5.0835,-4.9097,-4.8014,-4.6942,-4.5889,-4.497,-4.4615,-4.4615,-4.4615,-4.4615,-4.4615,0.0,0.0,0.0,0.0,0.0,0.0,0.0,0.0,0.0,0.0,0.0,0.0,0.0,0.0,0.0,0.0,0.0,0.0,0.0,-2.5359,-2.5364,-2.5401,-2.5414,-2.541,-2.541,-2.5702,-2.5674,-2.531,-2.6713,-2.7185,-2.6781,-2.772,-2.8319,-2.8536,-2.8291,-2.8034,-2.7838,-2.8007,-2.8565,0.0,0.0,-2.7954,-2.8596,-2.7255,-2.6467,-2.6019,-2.6019,-2.6981,-2.8494,-3.0024,-3.0382,-3.0478,-3.212,-3.2647,-3.4048,-4.1243,-4.3071,-4.3165,-4.5081,-4.5593,-4.5594,-4.5594,-4.5594,-4.5421,-4.4671,-4.4124,-4.322,-4.1258,-3.9777,-3.8584,-3.7777,-3.9008,-4.0816,-4.2874,-4.597,-4.899,-5.1538,-5.2991,-5.3895,-5.426,-5.4827,-5.5128,-5.498,-5.4702,-5.4693,0.0,-5.5317,-5.5647,-5.6106,-5.6987,-5.7464,-5.7464,-5.7134,-5.6565,-5.5757,-5.4509,-5.3665,-5.3185,-5.3185,-5.3185,-5.3185,-5.3185,-5.2959,-5.2576,0.0,-5.1073,-4.931,-4.8238,-4.6972,-4.5635,-4.4902,-4.4615,-4.4615,-4.4615,-4.4615,-4.4564,0.0,0.0,0.0,0.0,0.0,0.0,0.0,0.0,0.0,0.0,0.0,0.0,0.0,0.0,0.0,0.0,0.0,0.0,0.0,0.0,0.0,-2.5308,-2.5308,-2.5308,-2.5308,-2.6038,-2.613,-2.5533,-2.6879,-2.6773,-2.5323,-2.628,-2.7103,-2.7713,-2.6508,-2.5827,-2.5633,-2.6301,-2.6706,-2.6824,-2.6272,-2.6203,-2.6346,0.0,0.0,-2.5322,-2.5475,-2.7531,-3.0535,-3.2951,-3.3375,-3.3271,-3.546,-3.6485,-3.7403,-4.0323,-4.328,-4.5601,-4.5594,-4.5594,-4.5594,-4.5594,-4.5518,-4.5017,-4.3451,-4.2835,-4.1681,-3.8488,-3.7046,-3.6096,-3.5173,-3.6546,-3.8623,-4.1066,-4.4932,-4.8567,-5.1346,-5.3126,-5.4491,-5.5434,-5.5031,-5.4937,-5.5638,-5.4388,-5.3812,-5.4509,-5.5849,-5.6602,-5.6492,-5.6583,-5.6638,-5.6638,-5.5849,-5.5097,-5.4418,-5.361,-5.3185,-5.3185,-5.3185,-5.3185,-5.3185,-5.3185,-5.3185,-5.3164,0.0,0.0,-4.9866,-4.8505,-4.7069,-4.5609,-4.488,-4.4615,-4.4615,-4.4615,-4.4547,-4.4333,0.0,0.0,0.0,0.0,0.0,0.0,0.0,0.0,0.0,0.0,-2.0948,-2.1326,0.0,0.0,0.0,0.0,0.0,0.0,0.0,0.0,0.0,-2.5308,-2.5308,-2.5308,-2.5308,-2.5442,-2.5914,-2.6708,-2.6068,-2.5591,-2.5293,-2.5327,-2.5387,-2.5446,-2.4998,-2.467,-2.4502,-2.4781,-2.5038,-2.5208,-2.5215,-2.534,-2.5519,0.0,0.0,0.0,-2.637,-2.7701,-2.9404,-3.216,-3.481,-3.7283,-3.9073,-4.1564,-4.397,-4.4538,-4.5143,-4.5594,-4.5594,-4.5594,-4.5594,-4.5594,-4.5056,-4.4278,-4.3316,-4.147,-3.9373,-3.7334,-3.5699,-3.416,-3.2641,-3.4865,-3.7546,-3.9431,-4.2662,-4.6355,-5.0337,-5.1741,-5.2953,-5.4511,-5.5156,-5.5543,-5.5694,-5.539,0.0,0.0,0.0,-5.5519,-5.4858,-5.5445,-5.5794,-5.5794,-5.5023,-5.4546,-5.4399,-5.361,-5.3185,-5.3185,-5.3185,-5.3185,-5.3185,-5.3185,-5.3185,-5.3185,0.0,0.0,-4.9788,-4.9035,-4.7454,-4.5483,-4.4837,-4.4615,-4.4615,-4.4615,-4.4181,-4.3606,0.0,0.0,0.0,0.0,0.0,0.0,0.0,-1.9437,-2.0958,-2.2216,-2.2479,-2.2844,-2.368,-2.3945,-2.4255,0.0,0.0,0.0,0.0,0.0,0.0,0.0,-2.5308,-2.5308,-2.5308,-2.589,-2.6164,-2.6121,0.0,-2.589,-2.5303,-2.5094,-2.4917,-2.4733,-2.4564,-2.4393,-2.4218,-2.4528,-2.4716,-2.4825,-2.5066,-2.5482,0.0,0.0,0.0,0.0,-2.6877,-2.7583,-2.8605,-3.1081,-3.4304,-3.7637,-3.9819,-4.2838,-4.5486,-4.4883,-4.5143,-4.5568,-4.539,-4.5342,-4.5342,-4.5342,-4.4681,-4.3522,-4.158,-3.9835,-3.7757,-3.4718,-3.3468,-3.2462,-3.1065,-3.3696,-3.6459,-3.7605,-4.0721,-4.4489,-4.874,-5.0067,-5.1568,-5.4184,-5.5026,-5.5458,-5.5673,-5.5063,-5.4753,0.0,0.0,-5.4546,-5.4987,-5.4987,-5.4785,-5.4363,-5.3977,-5.3794,-5.3794,-5.339,-5.3185,-5.3185,-5.3185,-5.3185,-5.3185,-5.3185,-5.2968,-5.2582,-5.2582,0.0,-4.9135,-4.8865,-4.7636,-4.5915,-4.5294,-4.5062,-4.5025,-4.472,-4.4079,-4.3341,0.0,0.0,0.0,0.0,0.0,0.0,0.0,-1.9917,-2.1459,-2.3225,-2.4141,-2.4667,-2.4727,-2.4627,-2.4629,0.0,0.0,0.0,0.0,0.0,0.0,0.0,0.0,-2.5308,-2.5308,0.0,0.0,-2.5577,-2.6299,0.0,0.0,0.0,0.0,0.0,-2.447,-2.4339,-2.4228,-2.4623,-2.4804,0.0,0.0,0.0,0.0,0.0,0.0,0.0,0.0,-2.7182,-2.7505,-2.9809,-3.2355,-3.5086,-3.795,-4.1355,-4.4162,-4.3686,-4.4339,-4.5227,-4.5214,-4.514,-4.5107,-4.5191,-4.4357,-4.2783,-3.9961,-3.8354,-3.6372,-3.2506,-3.1545,-3.1124,-3.0176,-3.2513,-3.4913,-3.5876,-3.8763,-4.2373,-4.6599,-4.8308,-5.0298,-5.3445,-5.432,-5.4847,-5.5256,-5.4316,0.0,0.0,0.0,0.0,-5.5023,-5.4491,-5.3849,-5.3203,-5.3185,-5.3185,-5.3185,-5.3185,-5.3185,-5.3185,-5.3185,-5.3115,-5.2949,-5.2949,-5.2509,-5.1738,-5.1738,0.0,0.0,-4.8659,-4.7824,-4.6548,-4.594,-4.5681,-4.5605,-4.4837,-4.4055,-4.3263,0.0,0.0,0.0,0.0,0.0,0.0,0.0,-2.0543,-2.2602,-2.4411,-2.5075,-2.559,-2.606,-2.5679,-2.5268,0.0,0.0,0.0,0.0,0.0,0.0,0.0,0.0,0.0,0.0,0.0,0.0,-2.6486,-2.5788,0.0,0.0,0.0,0.0,0.0,0.0,-2.4218,-2.4228,-2.4623,0.0,0.0,0.0,0.0,0.0,0.0,0.0,0.0,0.0,-2.6276,-2.5503,-2.8262,-2.8682,-2.8707,-3.2364,-3.6484,-4.0282,-4.1892,-4.3167,-4.4267,-4.5283,-4.5332,-4.518,-4.5485,-4.4078,-4.2038,-3.9807,-3.745,-3.4962,-3.2256,-3.1077,-3.0413,-3.0061,-3.0924,-3.2384,-3.451,-3.6624,-3.9459,-4.3694,-4.6551,-4.9066,-5.1336,-5.2656,0.0,-5.3943,-5.3541,0.0,0.0,0.0,0.0,-5.3427,-5.3353,-5.3277,-5.3185,-5.3185,-5.3185,-5.3185,-5.3185,-5.3185,-5.3185,-5.3185,-5.2821,-5.2105,-5.2105,-5.1665,-5.0912,0.0,0.0,0.0,-4.885,-4.8085,-4.7237,-4.6571,-4.6312,-4.6152,-4.4873,-4.3954,-4.3118,0.0,0.0,0.0,0.0,0.0,0.0,-1.9531,-2.1059,-2.285,-2.4896,-2.5922,-2.6525,-2.6704,-2.6379,-2.5821,-2.4967,0.0,0.0,0.0,0.0,0.0,0.0,0.0,0.0,0.0,0.0,-2.5817,-2.6837,-2.7864,0.0,0.0,0.0,0.0,0.0,0.0,-2.419,-2.4218,-2.4503,0.0,0.0,0.0,0.0,0.0,0.0,0.0,0.0,0.0,0.0,-2.7706,-2.7409,-2.7331,-2.7509,-2.8502,-3.1487,-3.5336,-3.9109,-4.1729,-4.3579,-4.4317,-4.4652,-4.4884,-4.5222,-4.3373,-4.0962,-3.898,-3.6546,-3.3987,-3.1442,-3.0516,-3.0095,-2.9861,-3.0538,-3.1691,-3.345,-3.449,-3.6549,-4.0777,-4.3161,-4.5738,-4.9149,-5.1281,-5.2836,0.0,0.0,0.0,0.0,0.0,0.0,-5.3185,-5.3185,-5.3185,-5.3185,-5.3185,-5.3185,-5.3185,-5.3185,-5.2968,-5.2472,-5.2472,-5.205,-5.1279,-5.1279,-5.0839,-5.0068,0.0,0.0,0.0,-4.8528,-4.8229,-4.7877,-4.7259,-4.6713,-4.6132,-4.4858,-4.363,-4.2452,0.0,0.0,0.0,0.0,0.0,-1.9067,-2.0153,-2.1402,-2.2965,-2.4961,-2.6176,-2.6914,-2.7046,-2.7335,-2.6842,-2.5166,-2.5194,0.0,0.0,0.0,0.0,0.0,0.0,0.0,0.0,0.0,-2.6018,-2.7491,-2.98,-3.0145,0.0,0.0,-2.6384,-2.567,0.0,0.0,0.0,0.0,0.0,0.0,0.0,0.0,0.0,0.0,0.0,0.0,0.0,0.0,0.0,0.0,0.0,-2.7255,-2.6358,-2.7976,-3.1225,-3.6311,-3.9667,-4.1981,-4.3115,-4.3812,-4.4298,-4.4638,-4.2746,-4.0235,-3.8104,-3.5834,-3.3455,-3.0823,-3.0136,-2.9924,-2.9652,-3.0105,-3.0902,-3.2054,-3.2839,-3.4689,-3.8641,-4.0875,-4.3523,-4.7349,0.0,-5.1303,0.0,-5.3346,0.0,0.0,0.0,0.0,0.0,-5.2904,-5.2968,-5.3185,-5.3185,-5.3096,-5.2858,-5.2858,-5.2435,-5.1646,-5.1646,-5.1224,-5.0453,-5.0453,-4.9994,-4.9225,0.0,0.0,0.0,-4.8306,-4.8159,-4.7901,-4.7472,-4.6819,-4.5974,-4.4718,-4.3454,-4.2253,0.0,0.0,0.0,0.0,0.0,0.0,-2.0153,-2.1601,-2.3125,-2.4612,-2.5667,-2.6546,-2.7129,-2.8682,-2.8485,-2.555,-2.5293,0.0,0.0,0.0,0.0,0.0,0.0,0.0,0.0,0.0,-2.6416,-2.8673,-3.0975,-3.1327,-2.9839,-2.8033,-2.6665,-2.567,0.0,0.0,0.0,0.0,0.0,0.0,0.0,0.0,0.0,0.0,0.0,0.0,0.0,0.0,0.0,0.0,0.0,0.0,0.0,-2.656,-2.8474,-3.369,-3.6806,-3.914,-4.1783,-4.2909,-4.3385,-4.3732,-4.2299,-4.0083,-3.7336,-3.5411,-3.3409,-3.0584,-3.0006,-2.9877,-2.9483,-2.9412,-2.9598,-3.0129,-3.186,-3.4255,-3.7548,-4.0372,-4.3162,0.0,0.0,-4.8558,-5.0642,0.0,0.0,0.0,0.0,0.0,0.0,-5.2186,-5.238,-5.3167,-5.3185,-5.2821,-5.2013,-5.1995,-5.161,-5.082,-5.082,-5.038,-4.961,-4.961,-4.9132,0.0,0.0,0.0,0.0,-4.8306,-4.7828,-4.7113,-4.7113,-4.6617,-4.5755,-4.4388,-4.3507,-4.2793,0.0,0.0,0.0,0.0,0.0,0.0,0.0,-2.1508,-2.2816,-2.4392,-2.5263,-2.6431,-2.8226,-2.8096,-2.716,-2.5446,-2.5293,0.0,0.0,0.0,0.0,0.0,0.0,0.0,0.0,0.0,-2.7618,-2.8691,-3.0985,-3.1995,-3.1762,-2.9823,-2.8565,-2.7885,-2.6465,-2.5976,0.0,0.0,0.0,0.0,0.0,0.0,0.0,0.0,0.0,0.0,0.0,0.0,0.0,0.0,0.0,0.0,0.0,0.0,0.0,-2.8898,-3.3117,-3.7049,-3.8212,-3.9092,-3.97,-3.9813,-3.8194,-3.6287,-3.5234,-3.368,-3.202,-3.0336,-2.9893,-2.9722,-2.9454,-2.9246,-2.9911,-3.2278,-3.3176,-3.4724,-3.8014,-4.0648,0.0,-4.5009,-4.796,-5.0079,0.0,0.0,0.0,0.0,0.0,0.0,0.0,-5.1453,-5.164,-5.188,-5.1681,-5.1444,-5.1187,-5.1187,-5.0784,-4.9996,-4.9996,-4.9517,-4.871,-4.871,0.0,0.0,0.0,0.0,0.0,-4.6893,-4.6507,-4.6287,-4.6287,-4.5792,-4.4913,-4.3722,-4.2818,-4.2,0.0,0.0,0.0,0.0,0.0,0.0,0.0,-2.1576,-2.2534,-2.373,-2.463,-2.5729,-2.7255,-2.6778,-2.6587,-2.7164,-2.7223,0.0,0.0,0.0,0.0,0.0,0.0,0.0,0.0,-2.7901,-2.8582,-2.9346,-3.1191,-3.2446,-3.3087,-3.1829,-3.0438,-2.8968,-2.7959,-2.7336,0.0,0.0,0.0,0.0,0.0,0.0,0.0,0.0,0.0,0.0,0.0,0.0,0.0,0.0,0.0,0.0,0.0,0.0,0.0,0.0,-2.9645,-3.3294,-3.5078,-3.6435,-3.7327,-3.7328,-3.6014,-3.4462,-3.3491,-3.2141,-3.0764,-2.9635,-2.9248,-2.913,-2.9225,-2.9112,-2.9666,-3.1659,-3.2761,-3.4394,-3.7386,0.0,0.0,-4.4892,0.0,0.0,0.0,0.0,0.0,0.0,0.0,0.0,0.0,0.0,-5.0706,-5.0407,-5.0787,-5.078,-5.0343,-5.0343,-4.9921,-4.9095,-4.9095,-4.882,-4.8306,-4.7975,0.0,0.0,0.0,0.0,0.0,-4.6104,-4.5718,-4.5461,-4.5461,-4.4966,-4.4161,-4.3457,-4.2596,-4.1703,0.0,0.0,0.0,0.0,0.0,0.0,0.0,-2.1832,-2.2285,-2.2782,-2.3869,-2.4662,-2.4809,-2.5105,-2.6616,-2.986,0.0,0.0,0.0,0.0,0.0,0.0,0.0,0.0,-2.7915,-2.8415,-2.9212,-3.0407,-3.1618,-3.2753,-3.3803,-3.392,-3.2286,-2.9244,-2.9225,-2.8734,0.0,0.0,0.0,0.0,0.0,0.0,0.0,0.0,0.0,0.0,0.0,0.0,0.0,0.0,0.0,0.0,0.0,0.0,0.0,0.0,0.0,0.0,0.0,-3.4355,-3.5599,-3.5579,-3.4943,-3.3824,-3.1846,-3.0637,0.0,-2.8523,-2.8193,-2.83,-2.8952,-2.9097,-2.9189,-2.9464,-3.1445,-3.3812,0.0,-3.9423,0.0,0.0,-4.737,0.0,0.0,0.0,0.0,0.0,0.0,0.0,0.0,0.0,-4.9696,-4.8915,-5.042,-5.0674,-4.9519,-4.9519,-4.9095,-4.8306,-4.8306,-4.8269,-4.8196,-4.7443,0.0,0.0,0.0,0.0,0.0,-4.5755,-4.5296,-4.4617,-4.4617,-4.4158,-4.3497,-4.3444,-4.2772,-4.1874,0.0,0.0,0.0,0.0,0.0,0.0,0.0,0.0,0.0,0.0,-2.3709,-2.4752,-2.5139,-2.5248,-2.5967,0.0,0.0,0.0,0.0,0.0,0.0,0.0,0.0,0.0,-2.8489,-2.823,-2.8862,-3.0394,-3.2406,-3.3545,-3.3838,-3.5106,-3.4186,-3.1457,-3.1458,-3.057,0.0,0.0,0.0,0.0,0.0,0.0,0.0,0.0,0.0,0.0,-2.8475,-2.8602,0.0,0.0,0.0,0.0,0.0,0.0,0.0,0.0,-2.5455,-2.6458,-2.7694,0.0,-2.9702,-2.9456,-2.9201,-2.8898,0.0,-2.827,-2.8006,-2.7385,-2.7699,-2.8467,-2.9687,-2.9922,-3.0944,-3.4082,-3.5569,-3.7202,-3.9627,-4.2745,0.0,-4.6636,-4.77,0.0,0.0,0.0,0.0,0.0,0.0,0.0,0.0,0.0,-4.9424,-4.8913,-4.9847,-4.9814,-4.8619,-4.8618,-4.8508,-4.8306,-4.8306,-4.7994,-4.7369,-4.7186,0.0,0.0,0.0,0.0,-4.4929,-4.4323,-4.3938,-4.3773,-4.3773,-4.3663,-4.3444,-4.3032,-4.2713,-4.242,0.0,0.0,0.0,0.0,0.0,0.0,0.0,0.0,0.0,0.0,0.0,0.0,0.0,0.0,0.0,0.0,0.0,0.0,0.0,0.0,0.0,0.0,0.0,-2.8085,-2.872,-2.8821,-2.9268,-3.0086,-3.2235,-3.424,-3.6046,-3.5422,-3.4109,-3.2159,-3.1158,-3.0279,0.0,0.0,0.0,0.0,0.0,0.0,0.0,0.0,0.0,0.0,-2.7112,-2.7465,0.0,-2.9832,-3.0255,-2.9664,0.0,0.0,0.0,0.0,-2.4671,-2.5085,-2.5386,-2.7039,-2.8671,-2.8719,-2.8533,-2.8275,-2.8047,-2.7335,-2.6657,-2.6402,-2.6925,-2.7869,-2.937,-3.0246,-3.1604,-3.4174,-3.6244,0.0,0.0,0.0,-4.6195,-4.7003,-4.758,0.0,0.0,0.0,0.0,0.0,0.0,0.0,0.0,0.0,-4.8164,-4.7779,-4.8353,-4.8639,-4.8586,-4.8568,-4.8292,-4.7736,-4.7736,-4.7314,-4.6526,-4.6159,0.0,0.0,0.0,0.0,-4.4121,-4.368,-4.3515,-4.3515,-4.3515,-4.3515,-4.3462,-4.3178,-4.292,-4.2655,0.0,0.0,0.0,0.0,0.0,0.0,0.0,0.0,0.0,0.0,0.0,0.0,0.0,0.0,0.0,0.0,0.0,0.0,0.0,0.0,0.0,0.0,0.0,-2.8803,-2.8977,-2.9593,-3.0009,-3.0169,-3.2238,-3.5002,-3.8271,-3.557,-3.3573,-3.2159,-3.0149,-2.93,0.0,0.0,0.0,0.0,0.0,0.0,0.0,0.0,0.0,0.0,0.0,0.0,0.0,-2.9011,-2.9518,-2.9203,-2.694,0.0,0.0,0.0,0.0,0.0,-2.4751,-2.7267,-2.9753,-2.9695,-2.9574,-2.9281,-2.8624,-2.7135,-2.5872,-2.5847,-2.6333,-2.7299,-2.9042,-3.0687,-3.21,-3.3183,0.0,0.0,-4.3001,-4.4782,-4.5975,-4.6654,0.0,0.0,0.0,0.0,0.0,0.0,0.0,0.0,0.0,0.0,0.0,-4.6501,-4.6869,-4.7575,-4.8586,-4.849,-4.7936,-4.6911,-4.6911,-4.6507,-4.5681,-4.5021,-4.4635,0.0,0.0,0.0,-4.3515,-4.3515,-4.3515,-4.3515,-4.3515,-4.3515,-4.3515,-4.3515,-4.3214,-4.2807,0.0,0.0,0.0,0.0,0.0,0.0,0.0,0.0,0.0,0.0,0.0,0.0,0.0,0.0,0.0,0.0,0.0,0.0,0.0,0.0,0.0,-2.961,-2.9082,-2.9112,-2.9798,-2.9671,-3.0441,-3.2235,-3.4593,-3.6066,-3.6669,-3.6615,-3.5137,-3.2472,-3.1011,-2.989,-2.9067,0.0,0.0,0.0,0.0,0.0,0.0,0.0,0.0,0.0,0.0,0.0,0.0,-2.5281,-2.6902,-2.8577,-2.552,0.0,0.0,0.0,0.0,0.0,-2.6108,-2.8301,-2.9533,-2.7036,-2.74,-2.8099,-2.7143,-2.6813,-2.6674,-2.6514,-2.7074,-2.833,-3.0607,-3.2339,-3.4156,-3.6391,0.0,-4.124,0.0,0.0,-4.4947,0.0,0.0,0.0,0.0,0.0,0.0,0.0,0.0,0.0,0.0,0.0,0.0,-4.6897,-4.729,-4.7435,-4.7288,-4.6667,-4.6268,-4.6085,-4.6085,-4.5663,-4.4892,-4.4746,-4.4342,0.0,0.0,-4.3515,-4.3515,-4.3515,-4.3515,-4.3515,-4.3515,-4.3515,-4.3515,-4.3515,-4.3444,-4.325,0.0,0.0,0.0,0.0,0.0,0.0,0.0,0.0,0.0,0.0,0.0,0.0,0.0,0.0,0.0,0.0,0.0,0.0,0.0,0.0,0.0,-3.0639,-3.0261,-3.0141,-3.032,-3.1034,-3.1726,-3.2427,-3.5031,-3.673,-3.7566,-3.6024,-3.4105,-3.1898,-3.0405,-2.9457,-2.8998,-2.8994,0.0,0.0,0.0,0.0,0.0,0.0,0.0,0.0,0.0,0.0,0.0,0.0,-2.612,-2.7672,-2.5026,0.0,0.0,0.0,0.0,0.0,-2.5355,-2.7233,-2.8607,-2.7323,-2.9109,-3.0969,-3.0224,-2.9673,-2.9182,-2.8654,-2.9182,-3.0222,-3.1751,-3.3752,-3.6229,-3.9551,0.0,-4.2158,-4.3331,-4.4195,0.0,0.0,0.0,0.0,0.0,0.0,0.0,0.0,0.0,0.0,0.0,0.0,0.0,0.0,-4.5772,-4.5893,-4.5693,-4.5149,-4.5007,-4.5259,-4.5259,-4.4837,-4.4048,-4.4048,-4.3846,-4.3515,0.0,-4.3515,-4.3515,-4.3515,-4.3515,-4.3515,-4.3515,-4.3515,-4.3515,-4.3515,-4.3515,-4.3374,0.0,0.0,0.0,0.0,0.0,0.0,0.0,0.0,0.0,0.0,0.0,0.0,0.0,0.0,0.0,0.0,0.0,0.0,0.0,0.0,-3.038,-3.0562,-3.0838,-3.1137,-3.144,-3.2391,-3.2939,-3.2967,-3.5076,-3.6989,-3.863,-3.574,-3.3259,-3.117,-3.0453,-2.9706,-2.9005,-2.9005,-2.9498,0.0,0.0,0.0,0.0,0.0,0.0,0.0,0.0,0.0,0.0,0.0,0.0,0.0,0.0,0.0,0.0,-2.4612,-2.419,-2.4329,-2.4847,-2.638,-2.7878,-2.8236,-3.0517,-3.277,-3.3123,-3.225,-3.1452,-3.1604,-3.1953,-3.2485,-3.3316,-3.5477,0.0,-4.1735,-4.2451,-4.28,-4.3423,0.0,0.0,0.0,0.0,0.0,0.0,0.0,0.0,0.0,0.0,0.0,0.0,0.0,0.0,0.0,-4.4228,-4.446,-4.446,-4.4266,-4.4275,-4.4553,-4.4468,-4.4103,-4.3515,-4.3515,-4.3515,-4.3515,-4.3515,-4.3515,-4.3515,-4.3515,-4.3515,-4.3515,-4.3515,-4.3515,-4.3515,-4.3515,-4.3515,-4.3427,0.0,0.0,0.0,0.0,0.0,0.0,0.0,0.0,0.0,0.0,0.0,0.0,0.0,0.0,0.0,0.0,0.0,0.0,0.0,0.0,-2.9478,-2.8468,-2.9831,-3.1682,-3.3899,-3.3074,-3.35,-3.5268,-3.5465,-3.664,-3.8662,-3.6939,-3.4173,-3.0735,-3.2613,-3.1799,-2.9005,-2.9005,-2.9347,-2.9751,0.0,0.0,0.0,0.0,0.0,0.0,0.0,0.0,0.0,0.0,0.0,0.0,0.0,0.0,-2.5319,-2.4447,-2.419,-2.453,-2.6046,-2.71,-2.7982,-2.8753,-2.9145,-3.0118,-3.3062,-3.2529,-3.226,-3.5238,-3.5261,-3.5004,-3.5862,-3.801,-4.0212,-4.2011,-4.2928,-4.3441,0.0,0.0,0.0,0.0,0.0,0.0,0.0,0.0,0.0,0.0,0.0,0.0,0.0,0.0,0.0,0.0,0.0,-4.4028,-4.4028,-4.4373,-4.4383,-4.4048,-4.3738,-4.357,-4.3515,-4.3515,-4.3515,-4.3515,-4.3515,-4.3515,-4.3515,-4.3515,-4.3515,-4.3515,-4.3515,-4.3515,-4.3515,-4.3515,-4.3515,-4.3427,0.0,0.0,0.0,0.0,0.0,0.0,0.0,0.0,0.0,0.0,0.0,0.0,0.0,0.0,0.0,0.0,0.0,0.0,0.0,-2.7566,-2.822,-2.902,-2.9417,-3.0956,-3.3895,-3.3548,-3.4051,-3.55,-3.683,-3.7399,-3.7151,-3.448,-3.2485,-3.1084,-3.0894,-3.0139,-2.8968,-2.8297,-2.8699,-2.9578,-2.7275,0.0,0.0,0.0,0.0,0.0,0.0,0.0,0.0,0.0,-2.4938,-2.5394,-2.4493,-2.475,-2.5246,-2.4438,-2.419,-2.4337,-2.4942,-2.6796,-2.862,-2.8932,-2.9739,-3.1201,-3.3922,-3.5275,-3.6431,-3.8175,-3.8285,-3.8157,-3.8469,-3.9698,-4.102,-4.2121,-4.2983,0.0,0.0,0.0,0.0,0.0,0.0,0.0,0.0,0.0,0.0,0.0,0.0,0.0,0.0,0.0,0.0,0.0,0.0,-4.4117,-4.4359,-4.4294,-4.4294,-4.4378,-4.3986,-4.3693,-4.3515,-4.3515,-4.3515,-4.3515,-4.3515,-4.3515,-4.3515,-4.3515,-4.3515,-4.3515,-4.3515,-4.3515,-4.3515,-4.3515,-4.3515,-4.3427,0.0,0.0,0.0,0.0,0.0,0.0,0.0,0.0,0.0,0.0,0.0,0.0,0.0,0.0,0.0,0.0,0.0,0.0,-2.6192,-2.6336,-2.6884,-2.797,-2.8413,-2.9607,-3.1733,-3.2109,-3.3419,-3.5736,-3.6694,-3.6583,-3.5455,-3.3222,-3.1622,-3.0595,-2.949,-2.8995,-2.894,-2.8227,-2.8216,-2.86,-2.711,-2.6968,0.0,0.0,0.0,0.0,0.0,0.0,0.0,0.0,-2.4616,-2.4934,-2.4373,-2.4585,-2.4915,-2.4355,-2.4373,-2.4585,-2.4585,-2.6374,-2.8363,-2.8877,-3.021,-3.2155,-3.5128,-3.6909,-3.8469,-4.0286,-4.0451,-4.0286,-4.0286,-4.0728,0.0,0.0,0.0,0.0,0.0,0.0,0.0,0.0,0.0,0.0,0.0,0.0,0.0,0.0,0.0,0.0,0.0,0.0,0.0,0.0,0.0,-4.3856,-4.4419,-4.4261,-4.4261,-4.4419,-4.4261,-4.3943,-4.3515,-4.3515,-4.3515,-4.3515,-4.3515,-4.3515,-4.3515,-4.3515,-4.3515,-4.3515,-4.3515,-4.3515,-4.3515,-4.3515,-4.3515,-4.3444,0.0,0.0,0.0,0.0,0.0,0.0,0.0,0.0,0.0,0.0,0.0,0.0,0.0,0.0,0.0,0.0,0.0,0.0,-2.5303,-2.5721,-2.5578,-2.4662,-2.6642,-2.7647,-2.7413,-2.8451,-3.1369,-3.6231,-3.4562,-3.3737,-3.3755,-3.3746,-3.2059,-2.9046,-2.901,-2.9004,-2.8997,-2.9012,-2.8076,-2.666,-2.7035,-2.7108,0.0,0.0,0.0,0.0,0.0,0.0,0.0,0.0,-2.4357,-2.419,-2.419,-2.4208,-2.4208,-2.419,-2.4768,-2.5393,-2.5393,-2.5988,-2.7024,-2.862,-3.0253,-3.2504,-3.6574,-3.6905,-3.7459,-4.1497,-4.1664,-4.1095,-4.1113,-4.1113,0.0,-4.2176,0.0,0.0,0.0,0.0,0.0,0.0,0.0,0.0,0.0,0.0,0.0,0.0,0.0,0.0,0.0,0.0,0.0,0.0,0.0,0.0,-4.4001,-4.4406,-4.4406,-4.4031,-4.4419,-4.4194,-4.3515,-4.3515,-4.3515,-4.3515,-4.3515,-4.3515,-4.3515,-4.3515,-4.3515,-4.3515,-4.3515,-4.3515,-4.3515,-4.3515,-4.3515,-4.3515,0.0,0.0,0.0,0.0,0.0,0.0,0.0,0.0,0.0,0.0,0.0,0.0,0.0,0.0,0.0,0.0,0.0,0.0,-2.5099,-2.513,-2.5216,-2.5376,-2.5316,-2.5947,-2.7371,-2.8445,-2.9709,-3.1174,-2.9526,-2.9314,-3.0406,-2.9272,-3.0039,-3.2272,-3.0014,-2.9,-2.9008,-2.9007,-2.8707,-2.8126,-2.6261,-2.5628,0.0,0.0,0.0,0.0,0.0,0.0,0.0,0.0,0.0,0.0,-2.419,-2.4585,-2.4934,-2.4373,-2.4768,-2.5393,-2.5393,-2.7229,-2.9384,-3.043,-3.2889,-3.5628,-3.7842,-3.8597,-3.9643,-4.256,-4.2175,-4.145,-4.187,-4.161,0.0,0.0,0.0,0.0,0.0,0.0,0.0,0.0,0.0,0.0,0.0,0.0,0.0,0.0,0.0,0.0,0.0,0.0,0.0,0.0,0.0,0.0,-4.4419,-4.4261,-4.4387,-4.4762,-4.4373,-4.3943,-4.3515,-4.3515,-4.3515,-4.3515,-4.3515,-4.3515,-4.3515,-4.3515,-4.3515,-4.3515,-4.3515,-4.3515,-4.3515,-4.3515,-4.3515,-4.3515,0.0,0.0,0.0,0.0,0.0,0.0,0.0,0.0,0.0,0.0,-2.4772,0.0,0.0,0.0,0.0,0.0,0.0,0.0,0.0,-2.4864,-2.4926,-2.5221,-2.457,-2.4949,-2.6573,-2.755,-2.789,-2.7575,-2.7129,-2.7311,-2.8042,-2.7705,-2.944,-3.2701,-2.949,-2.8042,-2.7996,-2.7364,-2.7195,-2.7184,-2.563,-2.5108,-2.5308,0.0,0.0,0.0,0.0,0.0,0.0,0.0,0.0,0.0,-2.419,-2.453,-2.4897,-2.4732,-2.5136,-2.5823,-2.6617,-2.8458,-3.055,-3.2151,-3.4199,-3.6342,-3.816,-3.9561,-4.1008,-4.2813,-4.2063,-4.129,-4.1993,-4.1551,0.0,0.0,0.0,0.0,0.0,0.0,0.0,0.0,0.0,0.0,0.0,0.0,0.0,0.0,0.0,0.0,0.0,0.0,0.0,0.0,0.0,0.0,-4.458,-4.4346,-4.4535,-4.5096,-4.4163,-4.3543,-4.3232,-4.3399,-4.3515,-4.3515,-4.3515,-4.3331,-4.302,-4.302,-4.2818,-4.2543,-4.2543,-4.2543,-4.2543,-4.2543,-4.2543,-4.2598,0.0,0.0,0.0,0.0,0.0,0.0,0.0,0.0,0.0,0.0,-2.4715,-2.4855,0.0,0.0,0.0,0.0,0.0,0.0,0.0,0.0,-2.47,-2.4478,-2.4441,-2.4768,-2.5485,-2.6227,-2.6209,-2.5393,-2.6609,-2.6922,-2.6418,-2.8079,-2.9687,-3.1058,-2.7973,-2.6609,-2.6495,-2.4882,-2.4431,-2.4824,-2.5129,-2.5273,-2.5308,-2.5308,0.0,0.0,0.0,0.0,0.0,0.0,0.0,0.0,-2.419,-2.4245,-2.4438,-2.5099,-2.5641,-2.647,-2.8321,-2.9499,-3.0873,-3.356,-3.4635,-3.5631,-3.7913,-3.9825,-4.1388,-4.2237,-4.1355,-4.0662,-4.1435,-4.0969,0.0,0.0,0.0,0.0,0.0,0.0,0.0,0.0,0.0,0.0,0.0,0.0,0.0,0.0,0.0,0.0,0.0,0.0,0.0,0.0,0.0,0.0,-4.4353,-4.4366,-4.4561,0.0,-4.3782,-4.3049,-4.2752,-4.3107,-4.3277,-4.3277,-4.3277,-4.2873,-4.2194,-4.2194,-4.1772,-4.1095,-4.1095,-4.1095,-4.1095,-4.1095,-4.1095,-4.1187,0.0,0.0,0.0,0.0,0.0,0.0,0.0,0.0,0.0,0.0,0.0,0.0,0.0,0.0,0.0,0.0,0.0,0.0,0.0,0.0,-2.4639,-2.4275,-2.5431,-2.6172,-2.6337,-2.6521,-2.6209,-2.5393,-2.5686,-2.5452,-2.4756,-2.6786,-2.8386,-2.9425,-2.7465,-2.6592,-2.6499,-2.4878,-2.4431,-2.4813,-2.4936,-2.5108,-2.5308,-2.5308,-2.5269,0.0,0.0,0.0,0.0,0.0,0.0,0.0,-2.419,-2.464,-2.5044,-2.4585,-2.5405,-2.6626,-2.7314,-2.9292,-3.1547,-3.3315,-3.5687,-3.7784,-3.8468,-3.8957,-3.9469,-4.0131,-3.9641,-3.9297,-3.9952,0.0,0.0,0.0,0.0,0.0,0.0,0.0,0.0,0.0,0.0,0.0,0.0,0.0,0.0,0.0,0.0,0.0,0.0,0.0,0.0,0.0,0.0,-4.1356,-4.2624,-4.2636,-4.294,0.0,-4.2964,-4.2519,-4.2246,-4.1813,-4.1625,-4.1625,-4.1625,-4.1517,-4.1352,-4.1352,-4.126,-4.1095,-4.1095,-4.1095,-4.1095,-4.1095,-4.1095,-4.1113,0.0,0.0,0.0,0.0,0.0,0.0,0.0,0.0,0.0,0.0,0.0,0.0,0.0,0.0,0.0,0.0,0.0,0.0,0.0,-2.4708,-2.4528,-2.4209,-2.5364,-2.5841,-2.5456,-2.5823,-2.5631,-2.4824,-2.4824,-2.5014,-2.5385,-2.7284,-2.8665,-2.954,-2.8822,-2.8014,-2.7072,-2.5585,-2.4901,-2.4804,-2.4842,-2.5032,-2.5269,-2.487,-2.4908,-2.5072,-2.4415,0.0,0.0,0.0,0.0,0.0,0.0,0.0,-2.4794,-2.459,-2.4987,-2.5805,-2.7159,-2.9007,-3.1153,-3.3722,-3.5453,-3.6641,-3.7119,-3.7202,-3.7313,-3.7619,-3.803,-3.8391,-3.8725,0.0,0.0,0.0,0.0,0.0,0.0,0.0,0.0,0.0,0.0,0.0,0.0,0.0,0.0,0.0,0.0,0.0,0.0,0.0,0.0,0.0,-4.0506,-4.127,-4.2096,-4.2233,-4.2569,-4.3085,-4.2307,-4.148,-4.0671,-4.0972,-4.1095,-4.1095,-4.1095,-4.0875,-4.0524,-4.0524,-4.0304,-3.9939,-3.9939,-3.9939,-3.9939,-3.9939,-3.9939,-3.9994,0.0,0.0,0.0,0.0,0.0,0.0,0.0,0.0,0.0,0.0,0.0,0.0,0.0,0.0,0.0,0.0,0.0,0.0,0.0,-2.4551,-2.4449,-2.4401,-2.5044,-2.5154,-2.463,-2.5136,-2.5062,-2.442,-2.442,-2.525,-2.6907,-2.8054,-2.9005,-2.9787,-2.9863,-2.9052,-2.7504,-2.6121,-2.516,-2.4589,-2.4589,-2.4683,-2.4808,-2.4125,-2.4162,-2.4472,-2.3599,-2.3727,-2.4265,-2.4054,0.0,0.0,0.0,0.0,-2.4068,-2.4404,-2.44,-2.4692,-2.6565,-2.8323,-3.0439,-3.3952,-3.4631,-3.4563,-3.5098,-3.5211,-3.5211,-3.5211,-3.6428,-3.7493,0.0,0.0,0.0,0.0,0.0,0.0,0.0,0.0,0.0,0.0,0.0,0.0,0.0,0.0,0.0,0.0,0.0,0.0,0.0,0.0,-3.932,-3.9788,-4.0657,-4.1283,-4.1662,-4.1881,-4.2221,-4.2643,-4.159,-4.0423,-3.9229,-4.027,-4.0719,-4.0691,-4.0691,-4.0322,-3.968,-3.968,-3.9294,-3.8707,-3.8707,-3.8707,-3.8707,-3.8707,-3.8707,-3.8799,0.0,0.0,0.0,0.0,0.0,0.0,0.0,0.0,0.0,0.0,-2.4561,-2.4804,-2.4804,-2.5103,0.0,0.0,0.0,0.0,-2.4559,0.0,0.0,-2.5209,-2.5338,-2.5686,-2.6282,-2.5705,-2.5338,-2.5246,-2.5246,-2.6173,-2.797,-2.7242,-2.7346,-2.8081,-2.7431,-2.699,-2.6667,-2.5081,-2.4122,-2.3674,-2.3674,-2.3453,-2.312,-2.3009,-2.2954,-2.2882,-2.2571,-2.2891,-2.3427,-2.3225,-2.3621,0.0,0.0,0.0,-2.3134,-2.2966,-2.3533,-2.4112,-2.3548,-2.6442,-3.0213,-3.2748,-3.3779,-3.4077,-3.3765,-3.3694,-3.3694,0.0,-3.4873,0.0,0.0,0.0,0.0,0.0,0.0,0.0,0.0,0.0,0.0,0.0,0.0,0.0,0.0,0.0,0.0,0.0,0.0,0.0,0.0,-3.722,-3.7735,-3.8201,-3.8773,-3.9356,-3.9939,-3.9966,-4.0278,-4.0835,-4.0452,-3.9996,-3.9529,-3.9416,-3.9238,-3.9019,-3.9019,-3.8964,-3.8854,-3.8854,-3.8799,-3.8707,-3.8707,-3.8707,-3.8707,-3.8707,-3.8707,-3.8726,0.0,0.0,0.0,0.0,0.0,0.0,0.0,0.0,0.0,0.0,0.0,-2.4804,-2.4804,-2.5103,0.0,0.0,0.0,0.0,-2.4357,-2.4256,0.0,0.0,-2.4732,-2.4887,-2.5254,-2.4465,-2.4177,-2.4455,-2.399,-2.4998,-2.7361,-2.7567,-2.8779,-3.0689,-2.8788,-2.7948,-2.7776,-2.5273,-2.4205,-2.4198,-2.3693,-2.4378,-2.5394,-2.2985,-2.3184,-2.4444,-2.2331,-2.1997,-2.2624,-2.2894,-2.3244,-2.3529,-2.3529,0.0,0.0,0.0,-2.1985,-2.2618,-2.3775,-2.6167,-2.903,-3.2004,-3.2787,-3.2992,-3.3639,-3.3598,-3.3406,-3.3406,0.0,0.0,0.0,0.0,0.0,0.0,0.0,0.0,0.0,0.0,0.0,0.0,0.0,0.0,0.0,0.0,0.0,0.0,0.0,0.0,-3.6805,-3.7323,-3.7825,-3.8316,-3.89,-3.9327,-3.9599,-3.9944,-4.0239,-4.0496,-4.0381,-4.0072,-3.9599,-3.9457,-3.9136,-3.8707,-3.8707,-3.8707,-3.8707,-3.8707,-3.8707,-3.8707,-3.8707,-3.8707,-3.8707,-3.8707,-3.8707,-3.8707,0.0,0.0,0.0,0.0,0.0,0.0,0.0,0.0,0.0,0.0,0.0,0.0,-2.4849,0.0,0.0,0.0,0.0,0.0,-2.364,0.0,0.0,0.0,0.0,-2.419,-2.419,-2.341,-2.315,-2.3425,-2.2798,-2.3974,-2.6852,-2.8058,-3.0266,-3.3113,-3.0696,-2.9268,-2.851,-2.5915,-2.491,-2.502,-2.4398,-2.5374,-2.6923,-2.4106,-2.4509,-2.6186,-2.3003,-2.2297,-2.2879,-2.2968,-2.3006,-2.3006,-2.3006,-2.2712,0.0,0.0,0.0,-2.0811,-2.3541,-2.5275,-2.7005,-2.9888,-3.0832,-3.141,-3.2635,-3.2733,-3.2628,0.0,0.0,0.0,0.0,0.0,0.0,0.0,0.0,0.0,0.0,0.0,0.0,0.0,0.0,0.0,0.0,0.0,0.0,0.0,0.0,0.0,-3.6517,-3.704,-3.7533,-3.8068,-3.8587,-3.8896,-3.8958,-3.9562,-3.9861,-3.9861,-3.9861,-3.958,-3.9058,-3.8992,-3.8683,-3.8203,-3.8536,-3.8707,-3.8689,-3.8487,-3.8524,-3.8689,-3.8469,-3.8395,-3.8414,-3.8615,-3.8579,-3.8414,0.0,0.0,0.0,0.0,0.0,0.0,0.0,0.0,0.0,0.0,0.0,0.0,-2.498,-2.501,-2.4638,-2.3655,0.0,0.0,0.0,0.0,0.0,0.0,0.0,0.0,-2.419,-2.341,-2.2885,-2.266,-2.2556,-2.4099,-2.7205,-2.8413,-3.0623,-3.3508,-3.196,-2.9996,-2.7805,-2.6869,-2.6228,-2.5844,-2.585,-2.5691,-2.5557,-2.674,-2.7186,-2.6906,-2.4927,-2.4644,-2.5008,-2.3492,-2.3006,-2.3006,-2.3006,-2.1905,-2.058,0.0,0.0,0.0,-2.116,-2.2676,-2.3892,-2.5077,-2.7277,-2.9222,-2.9557,0.0,-3.048,0.0,0.0,0.0,0.0,0.0,0.0,0.0,0.0,0.0,0.0,0.0,0.0,0.0,0.0,0.0,0.0,0.0,0.0,0.0,0.0,0.0,-3.4907,-3.5357,-3.5867,-3.6399,-3.67,-3.6968,-3.7233,-3.784,-3.8123,-3.8123,-3.8123,-3.795,-3.7595,-3.7349,-3.7061,-3.6879,-3.8144,-3.8707,-3.8652,-3.7878,-3.8025,-3.8615,-3.786,-3.7566,-3.7658,-3.8414,-3.8212,-3.7676,0.0,0.0,0.0,0.0,0.0,0.0,0.0,0.0,0.0,0.0,0.0,0.0,0.0,-2.4943,-2.4607,-2.3585,-2.2786,0.0,0.0,0.0,0.0,0.0,0.0,0.0,-2.3181,-2.2371,-2.1732,-2.1253,-2.071,-2.1932,-2.4791,-2.6045,-2.7145,-2.8139,-2.956,-2.9872,-2.9145,-2.6282,-2.5412,-2.597,-2.5997,-2.6928,-2.8261,-2.771,-2.828,-2.9083,-2.6777,-2.5374,-2.4622,-2.4566,-2.3859,-2.2914,-2.2391,-2.1822,-2.1082,-1.9802,-1.9671,-2.0086,-2.0868,-2.2311,-2.3876,-2.5033,-2.6028,-2.6982,-2.7917,-2.8391,-2.8703,0.0,0.0,0.0,0.0,0.0,0.0,0.0,0.0,0.0,0.0,0.0,0.0,0.0,0.0,0.0,0.0,0.0,0.0,0.0,0.0,0.0,-3.4748,-3.5299,-3.5789,-3.627,-3.6733,-3.7203,-3.7662,-3.7901,-3.8007,-3.8007,-3.8007,-3.7816,-3.748,-3.7217,-3.696,-3.6719,-3.703,-3.7165,-3.7129,-3.6835,-3.689,-3.7129,-3.6835,-3.674,-3.6762,-3.7055,-3.7294,-3.7474,0.0,0.0,0.0,0.0,0.0,0.0,0.0,0.0,-2.3419,-2.4058,0.0,0.0,0.0,0.0,-2.4315,-2.3038,-2.1977,-2.1262,-2.0986,-2.1206,0.0,0.0,0.0,0.0,-2.22,-2.1318,-2.0619,-2.0124,-1.9577,-2.0448,-2.2694,-2.3921,-2.4904,-2.5663,-2.6991,-2.8051,-2.8675,-2.6516,-2.5881,-2.637,-2.731,-2.8414,-2.9524,-2.9804,-3.0527,-3.1137,-2.909,-2.7593,-2.6557,-2.6292,-2.5136,-2.3621,-2.2538,-2.1629,-2.0706,-1.9395,-1.9596,-2.0228,-2.0106,-2.1281,-2.2764,-2.3715,-2.4143,-2.4716,-2.6243,-2.666,-2.6894,0.0,0.0,0.0,0.0,0.0,0.0,0.0,0.0,0.0,0.0,0.0,0.0,0.0,0.0,0.0,0.0,0.0,0.0,0.0,0.0,0.0,-3.374,-3.4429,-3.5089,-3.5729,-3.6107,-3.6578,-3.7154,-3.7161,-3.7161,-3.7161,-3.7161,-3.6991,-3.6689,-3.6422,-3.6134,-3.5857,-3.5574,-3.5771,-3.6266,-3.5973,-3.6046,-3.6266,-3.5973,-3.5862,-3.5899,-3.6193,-3.645,-3.6633,0.0,0.0,0.0,0.0,0.0,0.0,0.0,0.0,-2.3401,-2.392,0.0,0.0,0.0,0.0,0.0,-2.1985,-2.1015,-2.0162,-1.9389,-2.0034,0.0,0.0,0.0,0.0,-2.1349,-2.0325,-1.9656,-1.9347,-1.9282,-1.9911,-2.1153,-2.2267,-2.415,-2.6526,-2.4583,-2.4559,-2.6044,-2.7554,-2.7707,-2.7159,-2.9783,-2.9935,-2.9032,-3.309,-3.3953,-3.2887,-3.1839,-3.1452,-3.1048,-2.8698,-2.6806,-2.5154,-2.3492,-2.129,-1.9295,-1.9069,-1.9037,-1.903,0.0,0.0,0.0,-2.0758,-2.1397,0.0,-2.4438,0.0,-2.5032,0.0,0.0,0.0,0.0,0.0,0.0,0.0,0.0,0.0,0.0,0.0,0.0,0.0,0.0,0.0,0.0,0.0,0.0,0.0,0.0,-3.1754,-3.1772,-3.2661,-3.3633,-3.4636,-3.4694,-3.4954,-3.5493,-3.55,-3.55,-3.55,-3.5493,-3.5354,-3.5096,-3.4803,-3.4508,-3.4195,-3.3928,-3.4724,-3.6156,-3.5316,-3.5463,-3.6138,-3.5298,-3.4954,-3.5078,-3.5917,-3.5716,-3.5133,0.0,0.0,0.0,0.0,0.0,-2.2402,-2.266,-2.2984,-2.334,0.0,0.0,0.0,-2.4586,-2.4004,-2.337,-2.2721,-2.1336,-2.0419,-2.0181,-1.984,-1.9831,-2.0254,-2.0436,-2.0358,-1.9963,-1.9658,-1.9089,-1.8245,-1.8223,-1.867,-1.9549,-1.9853,-2.068,-2.1889,-2.2056,-2.2206,-2.2403,-2.3267,-2.5241,-2.7735,-2.7388,-2.8662,-3.0945,-3.2139,-3.3018,-3.3534,-3.3241,-3.2375,-3.1305,-3.0625,-2.8558,-2.5786,-2.3006,-2.1235,-2.0044,-1.9402,-2.0089,-2.0739,-1.9468,0.0,0.0,0.0,0.0,0.0,0.0,0.0,0.0,0.0,0.0,0.0,0.0,0.0,0.0,0.0,0.0,0.0,0.0,0.0,0.0,0.0,0.0,0.0,0.0,0.0,0.0,0.0,-3.0817,-3.0702,-3.0993,-3.1889,-3.2816,-3.3732,-3.4364,-3.4954,-3.5493,-3.55,-3.55,-3.55,-3.5304,-3.5182,-3.5088,-3.4574,-3.43,-3.4195,-3.3928,-3.4064,-3.4468,-3.4229,-3.4266,-3.4468,-3.4229,-3.4137,-3.4174,-3.4394,-3.4711,-3.4949,0.0,0.0,0.0,-2.2296,-2.2296,-2.2349,-2.2514,-2.2915,-2.3259,0.0,0.0,0.0,-2.4375,-2.3967,-2.3481,-2.3033,-2.1795,-2.0878,-2.0521,-1.9748,-1.9423,-1.9686,-1.9588,-1.9335,-1.8902,-1.8791,-1.8431,-1.78,-1.78,-1.802,-1.8437,-1.8437,-1.8744,-1.9304,-1.9635,-2.0118,-2.0634,-2.0359,-2.246,-2.6079,-2.7308,-2.8702,-3.0276,-3.2106,-3.3006,-3.3348,0.0,0.0,-3.2339,-3.2008,-2.9549,-2.6172,-2.3602,-2.1987,-2.096,-2.049,-2.1023,-2.1592,-2.0601,-2.106,-2.1578,-2.0608,0.0,0.0,0.0,-2.0998,0.0,0.0,0.0,0.0,0.0,0.0,0.0,0.0,0.0,0.0,0.0,0.0,0.0,0.0,0.0,0.0,0.0,0.0,0.0,0.0,-2.9871,-2.9805,-3.0231,-3.0918,-3.1714,-3.2622,-3.3296,-3.3899,-3.4404,-3.4423,-3.4423,-3.4404,-3.416,-3.3995,-3.3872,-3.3414,-3.3136,-3.3031,-3.3219,-3.3311,-3.333,-3.366,-3.3807,-3.3807,-3.3807,-3.3807,-3.3807,-3.3807,-3.41,-3.4417,0.0,0.0,-2.2195,-2.2279,-2.2296,-2.231,-2.2335,-2.2819,-2.3212,0.0,-2.3806,-2.419,-2.419,-2.419,-2.3914,-2.3189,-2.2282,-2.1429,-2.0643,-1.9772,-1.9148,-1.8923,-1.8715,-1.846,-1.8156,-1.7916,-1.78,-1.78,-1.78,-1.7749,-1.7693,-1.7693,-1.7789,-1.7981,-1.7467,-1.8262,-1.9929,-1.8804,-2.0146,-2.3401,-2.8039,-2.922,-2.8621,0.0,-3.3414,-3.2821,-3.3532,-3.3807,-3.3642,-3.2656,-2.9959,-2.6667,-2.4795,-2.3281,-2.2143,-2.1886,-2.1923,-2.2033,-2.1849,-2.1867,-2.1806,-2.1304,-2.0562,0.0,-2.1061,-2.0575,-2.0522,0.0,0.0,0.0,0.0,0.0,0.0,0.0,0.0,0.0,0.0,0.0,0.0,0.0,0.0,0.0,0.0,0.0,-2.8993,-2.8993,-2.8925,-2.9022,-2.9396,-2.9836,-3.0517,-3.1507,-3.1976,-3.2435,-3.291,-3.2891,-3.2885,-3.2865,-3.2672,-3.2419,-3.2147,-3.1885,-3.1628,-3.1452,-3.2173,-3.2472,-3.2509,-3.3238,-3.3642,-3.3807,-3.3807,-3.3807,-3.3807,-3.3807,-3.3807,-3.3807,0.0,-2.182,-2.16,-2.2209,-2.2296,-2.2374,-2.2586,-2.2947,-2.33,-2.3566,-2.3947,-2.419,-2.419,-2.419,-2.4135,-2.3988,-2.2446,-2.1415,-2.1243,-1.9856,-1.8852,-1.8381,-1.8508,-1.8371,-1.7883,-1.7833,-1.78,-1.78,-1.78,-1.7507,-1.6908,-1.6908,-1.6618,-1.6138,-1.6233,-1.6932,-1.8137,-1.9341,-2.1078,-2.3144,-2.48,-2.7558,-3.0791,-3.1636,-3.2623,-3.3587,-3.3733,-3.3807,-3.3476,-3.1384,-3.0155,-2.8888,0.0,-2.4438,-2.4309,-2.2363,-2.2712,-2.3446,-2.2143,-2.2263,-2.2392,-2.0807,-2.0751,0.0,-1.9948,-1.9612,-1.974,0.0,0.0,0.0,0.0,0.0,0.0,0.0,0.0,0.0,0.0,0.0,0.0,0.0,0.0,0.0,0.0,0.0,-2.8993,-2.8993,-2.8399,-2.8083,-2.8229,-2.8924,-2.987,-3.1073,-3.1817,-3.2435,-3.291,-3.2891,-3.2826,-3.2664,-3.2402,-3.2147,-3.1867,-3.1594,-3.144,-3.1415,-3.158,-3.1623,-3.1654,-3.1801,-3.2632,-3.3807,-3.3807,-3.3807,-3.3807,-3.3807,-3.3807,-3.3807,-2.1079,-2.1481,-2.1752,-2.1752,-2.2057,-2.2349,-2.249,-2.289,-2.3401,-2.3962,-2.4496,-2.4658,-2.4245,-2.4054,-2.3937,-2.3937,-2.2569,-2.1534,-2.1171,-2.0022,-1.9011,-1.8236,-1.833,-1.8208,-1.7811,-1.78,-1.78,-1.78,-1.7439,-1.7061,-1.6699,-1.6316,-1.6147,-1.614,-1.6001,-1.6947,-1.8697,-1.9372,-2.0952,-2.3171,-2.5181,0.0,-3.0283,-3.1091,-3.1911,-3.2596,-3.2596,-3.2596,-3.2302,-3.0271,-2.9329,0.0,-2.6153,-2.5411,-2.5154,0.0,-2.4163,-2.453,-2.3336,-2.329,-2.3281,-2.1926,0.0,0.0,0.0,-2.0502,-2.0425,-2.1392,0.0,0.0,0.0,0.0,0.0,0.0,0.0,0.0,0.0,0.0,0.0,0.0,0.0,0.0,0.0,0.0,-2.7452,-2.7842,-2.7674,-2.7576,-2.7592,-2.8319,-2.9155,-3.0011,-3.064,-3.1173,-3.1654,-3.1654,-3.1539,-3.1299,-3.1073,-3.0828,-3.0586,-3.0326,-3.021,-3.0228,-3.0632,-3.0797,-3.0834,-3.1231,-3.1892,-3.2596,-3.2596,-3.2852,-3.3146,-3.2742,-3.2852,-3.3146,-2.0086,-2.1011,-2.1671,-2.1059,-2.1718,-2.2301,-2.2269,-2.2795,-2.3478,-2.4254,-2.4893,-2.5045,-2.4395,-2.402,-2.3882,-2.4026,-2.2744,-2.1749,-2.1289,-2.0234,-1.9321,-1.8669,-1.8353,-1.8114,-1.796,-1.7703,-1.7534,-1.7426,-1.6811,-1.6417,-1.6265,-1.5808,-1.5842,-1.6275,-1.613,-1.7371,-1.9576,-1.9443,-2.0962,-2.3712,0.0,-2.797,-2.873,-3.0503,-3.1176,-3.1195,-3.1342,-3.1397,-3.1146,-2.9537,-2.8565,-2.7842,-2.6722,-2.6146,0.0,0.0,0.0,-2.5429,-2.4465,-2.43,-2.419,0.0,0.0,-2.2992,0.0,0.0,0.0,-2.255,0.0,0.0,0.0,0.0,0.0,0.0,0.0,0.0,0.0,0.0,0.0,0.0,0.0,0.0,0.0,0.0,-2.549,-2.6218,-2.6517,-2.6797,-2.7183,-2.7812,-2.8487,-2.9183,-2.9532,-2.9939,-3.0398,-3.0404,-3.0248,-2.9947,-2.9771,-2.957,-2.932,-2.91,-2.9005,-2.9042,-2.9684,-2.9971,-3.0026,-3.0668,-3.0944,-3.0962,-3.1286,-3.1806,-3.2302,-3.1641,-3.1806,-3.2271,-1.9883,-2.0137,-2.0221,-2.0137,-2.1333,-2.2262,-2.2142,-2.2741,-2.345,-2.4134,-2.4599,-2.4825,-2.4735,-2.4433,-2.4534,-2.5229,-2.3057,-2.1908,-2.2546,-2.0558,-1.9616,-2.0206,-1.8936,-1.83,-1.8499,-1.7408,-1.6595,-1.6123,-1.5846,-1.5392,-1.4757,-1.5325,-1.5308,-1.4791,-1.6048,-1.7426,-1.8919,-2.0212,-2.245,0.0,-2.63,-2.6785,0.0,-2.9457,-3.0338,-3.043,-3.114,-3.1397,-3.1146,0.0,-2.8932,-2.8473,0.0,-2.6458,-2.7119,-2.4961,0.0,0.0,0.0,0.0,0.0,0.0,-2.4042,0.0,0.0,0.0,-2.218,-2.1408,0.0,0.0,0.0,0.0,0.0,0.0,0.0,0.0,0.0,0.0,0.0,0.0,0.0,0.0,0.0,0.0,0.0,-2.4694,-2.4459,-2.5049,-2.6763,-2.7154,-2.8043,-2.9586,-2.9668,-2.9939,-3.0398,-3.0404,-3.0188,-2.972,-2.9713,-2.9475,-2.9033,-2.8998,-2.9005,-2.9005,-2.9097,-2.9133,-2.9133,-2.9225,-2.9262,-2.9409,-3.0834,-3.147,-3.1525,-3.1433,-3.147,-3.1525,-1.8577,-1.941,-1.9879,-1.9439,-2.0251,-2.1148,-2.1726,-2.3555,-2.4653,-2.4003,-2.486,-2.5296,-2.4587,-2.4254,-2.4378,-2.5146,-2.3629,-2.2614,0.0,-2.1182,-2.0426,-2.0501,-1.9438,-1.8756,-1.8603,-1.7495,-1.6595,-1.5901,-1.5276,-1.4808,-1.452,-1.4825,-1.5484,-1.6447,-1.7067,-1.8819,-2.1338,-2.1554,-2.2551,0.0,0.0,0.0,0.0,-2.84,-2.95,-2.9537,-2.9886,-3.0008,-2.9843,0.0,-2.7978,0.0,0.0,0.0,0.0,-2.575,0.0,0.0,0.0,0.0,0.0,0.0,0.0,0.0,-2.2684,0.0,-2.2273,0.0,0.0,0.0,0.0,0.0,0.0,0.0,0.0,0.0,0.0,0.0,0.0,0.0,0.0,0.0,0.0,0.0,0.0,0.0,0.0,-2.4729,-2.5968,-2.7007,-2.7908,-2.8746,-2.9379,-2.9856,-3.0157,-3.0182,-3.0003,-2.9705,-2.9579,-2.9334,-2.9005,-2.9005,-2.9005,-2.9005,-2.9005,-2.9005,-2.9005,-2.9005,-2.9005,-2.9078,-2.9739,-3.0283,-3.065,-3.0173,-3.0301,-3.0632,-1.7681,-1.8831,-1.9473,-1.8724,-1.9372,-2.0348,-2.1428,-2.3715,-2.49,-2.3728,-2.4682,-2.5251,-2.4563,-2.423,-2.4434,-2.5379,-2.4388,-2.346,0.0,-2.2006,-2.1382,-2.1113,-2.0073,-1.9337,-1.9017,-1.7677,-1.6551,-1.568,-1.4691,-1.4301,-1.4504,-1.4504,-1.5467,-1.7236,-1.7928,-1.9755,-2.2307,-2.2462,-2.2971,-2.3768,-2.4934,-2.5319,-2.5438,-2.7776,-2.8803,-2.9005,-2.9005,-2.9005,-2.8877,-2.8062,-2.7402,0.0,-2.7365,0.0,0.0,0.0,0.0,0.0,-2.442,0.0,0.0,0.0,0.0,0.0,0.0,0.0,0.0,0.0,0.0,0.0,0.0,0.0,-2.0268,-2.0035,0.0,0.0,0.0,0.0,0.0,0.0,0.0,0.0,0.0,0.0,0.0,0.0,0.0,0.0,-2.5262,-2.6477,-2.7348,-2.7764,-2.8574,-2.9115,-2.9346,-2.9346,-2.9224,-2.9007,-2.8802,-2.8582,-2.8345,-2.8345,-2.8345,-2.8345,-2.8345,-2.8473,-2.8675,-2.8675,-2.8803,-2.9005,-2.9005,-2.9354,-2.9794,-2.9225,-2.9372,-2.9787,-1.78,-1.842,-1.8691,-1.7952,-1.9051,-2.0348,-2.1428,-2.2552,-2.3265,-2.323,-2.3662,-2.4219,-2.4898,-2.4682,-2.5065,-2.6521,0.0,-2.4457,-2.4423,0.0,-2.2375,-2.2626,-2.093,-1.9999,-2.0045,-1.7867,-1.618,-1.512,-1.3987,-1.3811,-1.4504,-1.4504,-1.4909,-1.5784,-1.8249,-1.9591,-2.017,-2.261,-2.4296,-2.5319,-2.5374,-2.6311,-2.7706,0.0,-2.8319,-2.9005,-2.9005,0.0,0.0,-2.8062,-2.778,0.0,0.0,0.0,0.0,0.0,0.0,0.0,0.0,0.0,0.0,-2.3391,0.0,0.0,0.0,0.0,-2.3189,0.0,0.0,0.0,0.0,-2.2063,-2.0919,-2.0132,-2.0002,0.0,0.0,0.0,0.0,0.0,0.0,0.0,0.0,0.0,0.0,0.0,0.0,0.0,-2.4771,-2.5275,-2.5927,-2.6916,-2.7155,-2.7407,-2.7669,-2.7675,-2.7535,-2.7272,-2.708,-2.6867,-2.6675,-2.6675,-2.6675,-2.6675,-2.6675,-2.7126,-2.7842,-2.7842,-2.8301,-2.9005,-2.9005,-2.9023,-2.9042,-2.9005,-2.9023,-2.9023,-1.7698,-1.8003,-1.8087,-1.7834,-1.8205,-1.9068,-2.0627,-2.2652,-2.3906,0.0,-2.4267,0.0,0.0,-2.5299,-2.5625,0.0,0.0,-2.522,-2.522,-2.3849,0.0,-2.4502,-2.249,-2.1531,-2.1999,-1.9393,-1.7583,-1.6698,-1.5451,-1.4969,-1.524,-1.524,-1.5883,-1.7128,-1.8698,-2.0124,-2.1462,0.0,0.0,0.0,0.0,-2.5566,-2.7126,0.0,0.0,-2.9005,-2.9005,-2.9005,0.0,-2.8693,-2.7886,-2.7053,-2.731,-2.63,-2.5052,-2.5319,-2.5026,0.0,0.0,0.0,-2.5007,-2.3391,0.0,0.0,0.0,0.0,0.0,0.0,0.0,0.0,0.0,-2.2237,-2.1139,-2.0171,-1.9592,-1.8589,0.0,0.0,0.0,0.0,0.0,0.0,0.0,0.0,0.0,0.0,0.0,0.0,0.0,-2.4939,-2.5553,-2.59,-2.6759,-2.718,-2.7142,-2.727,-2.7212,-2.6995,-2.6793,-2.6669,-2.6602,-2.6602,-2.6602,-2.6602,-2.6602,-2.6759,-2.7016,-2.7016,-2.7181,-2.7464,-2.8007,-2.7879,-2.7537,-2.8601,-2.9005,-2.9005,-1.7749,-1.78,-1.78,-1.78,-1.8239,-1.9066,-2.0541,-2.2629,0.0,0.0,-2.4399,0.0,-2.5556,0.0,-2.5896,0.0,-2.6268,-2.5778,-2.5236,-2.456,0.0,-2.4936,-2.3392,-2.2682,-2.3063,-2.0494,-1.8698,-1.7742,-1.6564,-1.5994,-1.5977,-1.5443,-1.6061,-1.7595,-1.8704,-2.0028,-2.157,-2.3185,-2.3704,0.0,0.0,-2.5254,0.0,0.0,-2.8326,-2.8528,0.0,-2.8326,-2.8528,-2.8235,-2.7464,-2.6704,-2.7218,-2.6098,-2.4732,-2.5246,-2.4824,-2.419,-2.419,-2.4585,0.0,-2.3318,-2.3006,0.0,-2.3006,0.0,0.0,0.0,0.0,0.0,0.0,-2.2488,-2.1422,-2.0475,-1.9671,-1.8463,0.0,-1.6024,0.0,0.0,0.0,0.0,0.0,0.0,-1.9597,-2.1351,0.0,0.0,0.0,0.0,-2.497,-2.497,-2.5797,-2.6187,-2.604,-2.6178,-2.616,-2.604,-2.5843,-2.575,-2.575,-2.575,-2.575,-2.575,-2.575,-2.5915,-2.6172,-2.6172,-2.6337,-2.6638,-2.7163,-2.7053,-2.6749,-2.8099,-2.8381,-2.818,-1.7986,-1.7884,-1.7918,-1.7952,-1.9135,0.0,0.0,0.0,-2.341,0.0,-2.4101,-2.4846,-2.5575,-2.5643,-2.5947,-2.664,-2.6691,-2.6099,-2.4725,-2.5251,0.0,0.0,-2.3779,-2.3478,-2.3378,-2.1236,-1.9554,-1.8353,-1.7281,-1.6753,-1.6686,-1.5276,-1.5495,-1.7088,-1.8269,-1.9372,-2.0454,-2.3042,-2.4153,-2.4263,-2.5026,-2.5338,-2.5411,-2.619,0.0,-2.7596,-2.6869,-2.709,-2.7622,-2.6869,-2.6565,-2.6539,-2.6539,-2.5988,-2.5338,-2.5338,-2.4805,-2.419,-2.419,-2.419,-2.4025,-2.3244,0.0,0.0,0.0,0.0,-2.3226,0.0,0.0,0.0,0.0,0.0,-2.1821,-2.1022,-2.0169,-1.9009,-1.7375,0.0,0.0,0.0,0.0,0.0,0.0,-1.8974,-1.8996,-2.1027,-2.0625,-2.108,0.0,0.0,0.0,-2.419,-2.4401,-2.4495,-2.4486,-2.4495,-2.4495,-2.4478,-2.4294,-2.419,-2.419,-2.419,-2.419,-2.419,-2.419,-2.464,-2.5338,-2.5338,-2.5797,-2.6502,-2.6539,-2.6539,-2.6649,-2.7438,-2.7255,-2.6722,-1.8657,-1.9051,-1.9625,0.0,-2.0649,-2.097,0.0,0.0,0.0,0.0,-2.4847,-2.5592,-2.6336,-2.642,-2.6488,-2.6674,-2.6691,0.0,0.0,0.0,0.0,-2.7227,-2.6068,-2.5518,-2.5721,-2.3228,-2.1485,-2.0582,-1.872,-1.7528,-1.6979,-1.6609,-1.6359,-1.6285,-1.8181,-1.9469,-2.0364,-2.2429,-2.3657,-2.4208,-2.441,-2.4511,0.0,0.0,-2.5319,-2.6072,-2.6465,-2.6741,-2.6888,-2.6667,-2.619,-2.5705,-2.5705,-2.5154,-2.4511,-2.4511,-2.4355,-2.419,-2.419,-2.419,-2.4153,-2.3933,-2.3428,-2.3153,0.0,0.0,0.0,0.0,0.0,0.0,0.0,0.0,0.0,-2.1153,-1.9306,-1.8026,-1.7919,0.0,0.0,-1.8572,0.0,0.0,0.0,-1.8422,-1.9004,-1.9552,-2.0715,0.0,0.0,0.0,0.0,-2.4171,-2.4401,-2.4436,-2.4275,-2.4436,-2.4418,-2.4275,-2.4228,-2.419,-2.419,-2.419,-2.419,-2.419,-2.419,-2.4318,-2.4511,-2.4511,-2.463,-2.4887,-2.5466,-2.5705,-2.5815,-2.6612,-2.6778,-2.662,-1.8997,-1.9773,0.0,-2.1123,0.0,0.0,-2.2155,-2.2866,0.0,-2.4406,-2.5135,0.0,-2.6167,-2.6505,-2.6691,-2.6691,-2.6691,0.0,-2.682,0.0,0.0,-2.7879,-2.6937,-2.6399,-2.6373,-2.4414,0.0,-2.1183,0.0,-1.8301,-1.7218,-1.6509,-1.6177,-1.6219,-1.7825,-1.921,-2.047,-2.2612,-2.3786,-2.419,-2.419,0.0,0.0,-2.419,-2.4493,-2.4934,-2.5383,-2.5786,-2.6025,-2.5676,-2.5254,-2.4879,-2.4879,-2.4566,-2.419,-2.419,-2.419,-2.419,-2.419,-2.419,-2.419,-2.419,-2.3859,-2.3639,-2.4098,-2.3859,-2.3657,0.0,0.0,0.0,0.0,0.0,0.0,-2.1011,-1.9651,-1.8626,-1.81,0.0,0.0,0.0,-1.8405,0.0,0.0,0.0,0.0,0.0,0.0,0.0,0.0,0.0,0.0,-2.3657,-2.4127,-2.4321,-2.419,-2.4312,-2.4312,-2.419,-2.419,-2.419,-2.419,-2.419,-2.419,-2.419,-2.419,-2.419,-2.419,-2.419,-2.419,-2.4245,-2.4695,-2.4879,-2.4934,-2.5383,-2.5548,-2.5603,-1.9377,-2.0361,0.0,0.0,0.0,0.0,0.0,-2.363,0.0,-2.4558,0.0,-2.5728,-2.5728,-2.6319,-2.6691,-2.6691,0.0,-2.6617,-2.6427,-2.7031,-2.7419,-2.7526,-2.7233,-2.6795,-2.6186,-2.5088,-2.3375,0.0,-2.0071,-1.8808,-1.7259,-1.5868,-1.56,-1.6394,-1.7395,-1.8901,0.0,-2.3199,-2.419,-2.419,-2.419,-2.419,-2.419,-2.419,-2.419,-2.419,-2.419,-2.4658,-2.5136,-2.4438,-2.419,-2.419,-2.419,-2.419,-2.419,-2.419,-2.419,-2.419,-2.419,-2.419,-2.419,-2.419,-2.419,-2.419,-2.419,-2.419,-2.419,-2.419,-2.419,0.0,0.0,0.0,0.0,-2.1061,0.0,0.0,0.0,0.0,0.0,0.0,0.0,0.0,0.0,0.0,0.0,0.0,0.0,0.0,0.0,0.0,0.0,0.0,-2.3786,0.0,-2.419,0.0,-2.419,-2.419,-2.419,-2.419,-2.419,-2.419,-2.419,-2.419,-2.419,-2.419,-2.419,-2.419,-2.419,-2.419,-2.419,-2.419,-2.419,-2.419,-2.419,-2.43,-2.0866,0.0,0.0,0.0,0.0,-2.3611,-2.4203,-2.4814,-2.527,-2.5389,-2.6048,-2.6505,-2.6505,-2.6623,-2.6691,-2.6691,-2.6691,0.0,0.0,0.0,0.0,-2.8674,-2.865,-2.7944,-2.6538,-2.5683,-2.4054,0.0,0.0,-1.8302,-1.6725,-1.6392,-1.6019,-1.5666,-1.7311,0.0,-2.1684,-2.3456,0.0,-2.419,-2.419,-2.419,-2.419,-2.419,-2.419,-2.419,-2.419,-2.4281,-2.4392,-2.4245,-2.419,-2.419,-2.419,-2.419,-2.419,-2.419,-2.419,-2.419,-2.419,-2.419,-2.419,-2.419,-2.419,-2.419,-2.419,-2.419,-2.419,-2.419,-2.419,-2.419,-2.419,0.0,0.0,0.0,0.0,0.0,0.0,0.0,0.0,0.0,0.0,0.0,0.0,0.0,0.0,0.0,0.0,0.0,0.0,0.0,0.0,0.0,0.0,0.0,0.0,0.0,0.0,-2.419,-2.419,-2.419,-2.419,-2.419,-2.419,-2.419,-2.419,-2.419,-2.419,-2.419,-2.419,-2.419,-2.419,-2.419,-2.419,-2.419,-2.419,-2.4226,-2.1725,0.0,0.0,0.0,0.0,0.0,0.0,-2.6007,0.0,-2.5692,-2.5913,-2.6133,-2.6133,-2.6471,-2.6691,-2.6691,-2.689,-2.7255,-2.7869,-2.8061,-2.8412,-2.8982,-2.9005,-2.8253,-2.6638,-2.6227,-2.464,-2.1794,0.0,-1.8731,-1.6754,-1.6296,-1.5903,-1.5663,-1.8207,-2.0262,0.0,0.0,0.0,-2.419,-2.419,-2.419,-2.419,-2.419,-2.419,-2.419,-2.419,-2.419,-2.419,-2.419,-2.419,-2.419,-2.419,-2.419,-2.419,-2.419,-2.419,-2.419,-2.419,-2.419,-2.419,-2.419,-2.419,-2.419,-2.419,-2.419,-2.419,-2.419,-2.419,-2.419,-2.419,-2.3878,0.0,0.0,0.0,0.0,0.0,0.0,-2.1015,0.0,0.0,0.0,0.0,0.0,0.0,0.0,0.0,0.0,0.0,0.0,0.0,0.0,0.0,0.0,0.0,0.0,0.0,-2.419,-2.419,-2.419,-2.419,-2.419,-2.419,-2.419,-2.419,-2.419,-2.419,-2.419,-2.419,-2.419,-2.419,-2.419,-2.419,-2.419,-2.419,-2.419,0.0,-2.2573,0.0,0.0,-2.4298,0.0,-2.6164,-2.6879,-2.7018,-2.62,-2.6083,-2.6083,-2.6083,-2.6596,-2.6955,-2.6955,-2.7239,-2.7589,-2.7978,-2.8264,-2.8577,-2.8982,-2.9005,-2.8253,-2.6638,-2.6602,-2.5107,0.0,0.0,-1.9439,-1.7385,-1.6401,-1.6133,0.0,0.0,0.0,0.0,0.0,-2.419,-2.419,-2.419,-2.419,-2.419,-2.419,-2.419,-2.419,-2.419,-2.419,-2.419,-2.419,-2.419,-2.419,-2.419,-2.419,-2.419,-2.419,-2.419,-2.419,-2.419,-2.419,-2.419,-2.419,-2.419,-2.419,-2.419,-2.419,-2.419,-2.419,-2.419,-2.419,-2.419,-2.419,0.0,0.0,0.0,0.0,0.0,0.0,0.0,0.0,0.0,0.0,0.0,0.0,0.0,0.0,0.0,0.0,-1.689,-1.8262,0.0,0.0,0.0,0.0,-2.3933,0.0,-2.419,0.0,-2.419,-2.419,-2.419,-2.419,-2.419,-2.419,-2.419,-2.419,-2.419,-2.419,-2.419,-2.419,-2.419,-2.419,-2.419,-2.419,-2.419,-2.419,0.0,0.0,0.0,0.0,0.0,0.0,0.0,-2.7072,-2.7391,-2.7648,-2.7674,-2.7674,-2.7674,-2.7744,-2.7797,-2.7797,-2.7826,-2.7992,-2.8342,-2.8376,-2.8577,-2.8982,-2.9005,-2.8253,-2.6638,-2.6602,-2.5373,0.0,0.0,-2.0016,-1.904,-1.7502,0.0,0.0,0.0,0.0,0.0,-2.3823,-2.419,-2.419,-2.419,-2.419,-2.419,-2.419,-2.419,-2.419,-2.419,-2.419,-2.419,-2.419,-2.419,-2.419,-2.419,-2.419,-2.419,-2.419,-2.419,-2.419,-2.419,-2.419,-2.419,-2.419,-2.419,-2.419,-2.419,-2.419,-2.419,-2.419,-2.419,-2.419,-2.419,-2.419,-2.3933,0.0,0.0,0.0,0.0,0.0,-2.2369,-2.0975,0.0,0.0,0.0,0.0,0.0,0.0,0.0,0.0,-1.6853,-1.7722,0.0,-2.0566,0.0,-2.3043,-2.3116,-2.3841,0.0,-2.419,-2.419,-2.419,-2.419,-2.419,-2.419,-2.419,-2.419,-2.419,-2.419,-2.419,-2.419,-2.419,-2.419,-2.419,-2.419,-2.419,-2.419,-2.419,0.0,0.0,0.0,0.0,0.0,0.0,0.0,-2.7874,-2.8098,-2.8507,-2.8174,-2.7897,-2.7897,-2.7897,-2.7897,-2.7897,-2.8075,-2.8264,-2.8394,-2.8633,-2.8839,-2.8994,-2.9005,-2.8253,-2.6638,-2.6602,-2.5409,0.0,0.0,-2.1318,-2.0005,-1.9355,0.0,0.0,0.0,-2.3006,-2.3043,-2.3859,-2.419,-2.419,-2.419,-2.419,-2.419,-2.419,-2.419,-2.419,-2.419,-2.419,-2.419,-2.419,-2.419,-2.419,-2.419,-2.419,-2.419,-2.419,-2.419,-2.419,-2.419,-2.419,-2.419,-2.419,-2.419,-2.419,-2.419,-2.419,-2.419,-2.419,-2.419,-2.4237,-2.4357,-2.4384,-2.4273,0.0,0.0,0.0,0.0,0.0,0.0,-2.1922,0.0,-2.0164,0.0,0.0,0.0,0.0,0.0,0.0,0.0,0.0,0.0,-1.973,0.0,-2.252,-2.3006,-2.3804,-2.419,-2.419,-2.419,-2.419,-2.419,-2.419,-2.419,-2.419,-2.419,-2.419,-2.419,-2.419,-2.419,-2.419,-2.419,-2.419,-2.419,-2.419,-2.419,-2.419,-2.6027,0.0,-2.6232,0.0,-2.7179,-2.7455,-2.8424,-2.8471,-2.8552,-2.894,-2.8551,-2.8215,-2.8215,-2.8215,-2.8215,-2.8215,-2.8438,-2.8577,-2.8577,-2.8839,-2.9005,-2.9005,-2.9005,0.0,-2.6638,-2.6602,-2.5519,-2.3354,-2.3116,-2.2401,-2.1245,0.0,0.0,0.0,-2.2712,-2.3354,-2.3391,-2.3951,-2.419,-2.419,-2.419,-2.419,-2.419,-2.419,-2.419,-2.419,-2.419,-2.419,-2.419,-2.419,-2.419,-2.419,-2.419,-2.419,-2.419,-2.419,-2.419,-2.419,-2.419,-2.419,-2.419,-2.419,-2.419,-2.419,-2.419,-2.419,-2.4218,-2.4275,-2.4348,-2.4428,-2.4551,-2.4583,-2.4484,-2.4195,0.0,0.0,0.0,0.0,0.0,-2.2559,-2.1451,-2.0297,-1.9254,0.0,0.0,0.0,0.0,0.0,0.0,0.0,0.0,0.0,0.0,0.0,0.0,0.0,-2.419,-2.419,-2.419,-2.419,-2.419,-2.419,-2.419,-2.419,-2.419,-2.419,-2.419,-2.419,-2.419,-2.419,-2.419,-2.419,-2.419,-2.419,-2.419,-2.419,-2.7036,-2.6964,-2.7126,-2.818,-2.8112,-2.8147,-2.8881,-2.8658,-2.8552,-2.894,-2.8994,-2.8994,-2.8994,-2.8994,-2.8994,-2.8994,-2.8994,-2.8994,-2.8994,-2.8994,-2.9005,0.0,0.0,-2.8253,-2.6638,-2.6602,-2.5805,-2.419,0.0,0.0,-2.2969,0.0,-2.2969,-2.3006,-2.3823,-2.419,-2.419,-2.419,-2.419,-2.419,-2.419,-2.419,-2.419,-2.419,-2.419,-2.419,-2.419,-2.419,-2.419,-2.419,-2.419,-2.419,-2.419,-2.419,-2.419,-2.419,-2.419,-2.419,-2.419,-2.419,-2.419,-2.419,-2.419,-2.419,-2.419,-2.419,-2.4266,-2.4452,-2.4654,-2.4797,-2.4797,-2.4797,-2.4475,-2.3481,0.0,0.0,0.0,0.0,0.0,-2.257,-2.1024,-2.002,-1.9988,0.0,0.0,0.0,0.0,0.0,0.0,0.0,0.0,-2.0429,-2.2107,0.0,-2.3006,-2.3804,-2.419,-2.419,-2.419,-2.419,-2.419,-2.419,-2.419,-2.419,-2.419,-2.419,-2.419,-2.419,-2.419,-2.419,-2.419,-2.419,-2.419,-2.419,-2.419,-2.419,-2.8389,-2.8373,-2.8409,-2.8749,-2.8713,-2.8743,-2.8952,-2.8893,-2.8851,-2.8975,-2.9005,-2.9005,-2.9005,-2.9005,-2.9005,0.0,-2.9005,-2.9005,0.0,-2.9005,-2.9005,-2.9005,-2.9005,-2.8253,-2.6638,-2.7145,-2.6355,-2.419,0.0,0.0,0.0,-2.3823,-2.3823,-2.3823,-2.408,-2.419,-2.419,-2.419,-2.419,-2.419,-2.419,-2.419,-2.419,-2.419,-2.419,-2.419,-2.419,-2.419,-2.419,-2.419,-2.419,-2.419,-2.419,-2.419,-2.419,-2.419,-2.419,-2.419,-2.419,-2.419,-2.419,-2.419,-2.419,-2.419,-2.419,-2.4312,-2.4461,-2.4662,-2.476,-2.4821,-2.4923,-2.4949,-2.4835,-2.4517,0.0,0.0,0.0,0.0,0.0,-2.3524,-2.2077,-2.1267,0.0,-2.1044,0.0,0.0,0.0,0.0,0.0,0.0,0.0,0.0,-2.1832,0.0,-2.3006,-2.3804,-2.419,-2.419,-2.419,-2.419,-2.419,-2.419,-2.419,-2.419,-2.419,-2.419,-2.419,-2.419,-2.419,-2.419,-2.419,-2.419,-2.419,-2.419,-2.419,-2.419,-2.9005,-2.9005,-2.9005,-2.9005,-2.9005,-2.9005,-2.9005,-2.9005,-2.9005,-2.9005,-2.9005,-2.9005,-2.9005,-2.9005,0.0,-2.9005,-2.9005,-2.9005,-2.9005,-2.9005,-2.9005,-2.9005,-2.9005,-2.8381,-2.709,0.0,0.0,-2.4658,-2.4842,-2.4695,-2.419,-2.419,-2.419,-2.419,-2.419,-2.419,-2.419,-2.419,-2.419,-2.419,-2.419,-2.419,-2.419,-2.419,-2.419,-2.419,-2.419,-2.419,-2.419,-2.419,-2.419,-2.419,-2.419,-2.419,-2.419,-2.419,-2.419,-2.419,-2.419,-2.419,-2.419,-2.419,-2.4266,-2.4321,-2.441,-2.4556,-2.4723,-2.4843,-2.4936,-2.5012,-2.5107,-2.5105,-2.5088,-2.5016,0.0,-2.4973,-2.4591,0.0,0.0,0.0,0.0,0.0,0.0,-2.2494,0.0,0.0,0.0,0.0,0.0,0.0,0.0,-2.0692,-2.2483,0.0,-2.3446,-2.3951,-2.419,-2.419,-2.419,-2.419,-2.419,-2.419,-2.419,-2.419,-2.419,-2.419,-2.419,-2.419,-2.419,-2.419,-2.419,-2.419,-2.419,-2.419,-2.419,-2.419,-2.9005,-2.9005,0.0,0.0,-2.9005,0.0,-2.9005,-2.9005,-2.9005,-2.9005,-2.9005,-2.9005,-2.9005,-2.9005,-2.9005,-2.9005,0.0,0.0,0.0,-2.9005,-2.9005,-2.9005,-2.9005,0.0,-2.7824,-2.7842,-2.71,-2.5485,-2.4622,-2.419,-2.419,-2.419,-2.419,-2.419,-2.419,-2.419,-2.419,-2.419,-2.419,-2.419,-2.419,-2.419,-2.419,-2.419,-2.419,-2.419,-2.419,-2.419,-2.419,-2.419,-2.419,-2.419,-2.419,-2.419,-2.419,-2.419,-2.419,-2.419,-2.419,-2.419,-2.4199,-2.4218,-2.4366,-2.4567,-2.4775,-2.4917,-2.4991,-2.5022,-2.5168,-2.5308,-2.5308,-2.5308,-2.5248,-2.5046,-2.5135,-2.4884,-2.3946,0.0,0.0,0.0,0.0,0.0,0.0,-2.3546,-2.3965,0.0,0.0,0.0,0.0,0.0,-2.1633,-2.2987,-2.3795,-2.419,-2.419,-2.419,-2.419,-2.419,-2.419,-2.419,-2.419,-2.419,-2.419,-2.419,-2.419,-2.419,-2.419,-2.419,-2.419,-2.419,-2.419,-2.419,-2.419,-2.419,-2.419,-2.419,0.0,0.0,-2.9005,-2.9005,-2.9005,-2.9005,-2.9005,-2.9005,-2.9005,-2.9005,-2.9005,-2.9005,-2.9005,-2.9005,-2.9005,-2.9005,-2.9005,-2.9005,-2.9005,-2.9005,-2.9005,-2.9005,-2.9005,-2.862,-2.7824,-2.8411,-2.7923,-2.6319,-2.4887,-2.419,-2.419,-2.419,-2.419,-2.419,-2.419,-2.419,-2.419,-2.419,-2.419,-2.419,-2.419,-2.419,-2.419,-2.419,-2.419,-2.419,-2.419,-2.419,-2.419,-2.419,-2.419,-2.419,-2.419,-2.419,-2.419,-2.419,-2.419,-2.419,-2.419,-2.419,-2.4237,-2.4393,-2.4575,-2.4763,-2.493,-2.498,-2.504,-2.5203,-2.5269,-2.5308,-2.5308,-2.5308,-2.5279,-2.5248,-2.4755,-2.4308,-2.4068,-2.3318,0.0,0.0,-2.3605,-2.3817,-2.4635,-2.4855,-2.4702,0.0,0.0,0.0,0.0,0.0,-2.3129,-2.3227,-2.387,-2.419,-2.419,-2.419,-2.419,-2.419,-2.419,-2.419,-2.419,-2.419,-2.419,-2.419,-2.419,-2.419,-2.419,-2.419,-2.419,-2.419,-2.419,-2.419,-2.419,-2.419,-2.419,-2.419,-2.9005,-2.9005,-2.9005,-2.9005,-2.9005,-2.9005,-2.9005,-2.9005,-2.9005,-2.9005,-2.9005,-2.9005,-2.9005,-2.9005,-2.9005,-2.9005,-2.9005,-2.9005,-2.9005,-2.9005,-2.9005,-2.9005,-2.9005,-2.8803,-2.8356,-2.8785,-2.8381,-2.7145,-2.554,-2.475,-2.475,-2.475,-2.475,-2.475,-2.475,-2.4942,-2.5309,-2.5309,-2.5352,-2.5421,-2.5322,-2.5352,-2.543,-2.543,-2.543,-2.5449,-2.5567,-2.529,-2.4894,-2.4894,-2.4579,-2.419,-2.419,-2.419,-2.419,-2.419,-2.419,-2.419,-2.419,-2.4275,-2.4392,-2.4663,-2.4771,-2.4855,-2.5096,-2.5146,-2.5163,-2.5274,-2.5308,-2.5308,-2.5308,-2.5308,-2.5173,-2.4812,-2.4697,-2.4375,-2.3605,-2.3432,0.0,-2.4033,-2.411,-2.4413,-2.5212,-2.5308,-2.5115,-2.4678,0.0,0.0,-2.4495,-2.441,-2.4239,-2.3998,-2.4294,-2.4418,-2.4348,-2.4256,-2.419,-2.419,-2.419,-2.419,-2.419,-2.419,-2.419,-2.419,-2.419,-2.419,-2.419,-2.419,-2.419,-2.419,-2.419,-2.419,-2.419,-2.419,-2.419,-2.419,-2.9067,-2.9089,-2.9112,-2.9067,-2.9089,-2.9104,-2.9104,-2.9104,-2.9104,-2.9104,-2.9104,-2.9104,-2.9104,-2.9078,-2.9055,-2.9055,-2.901,-2.9005,-2.9005,-2.9005,-2.9005,-2.9005,-2.9051,-2.9051,-2.9005,-2.8877,-2.8473,-2.7798,-2.6334,-2.5608,-2.5576,-2.5608,-2.5598,-2.5576,-2.5576,-2.5952,-2.6602,-2.6602,-2.6722,-2.6879,-2.6722,-2.6773,-2.6961,-2.6961,-2.6961,-2.6997,-2.7226,-2.6707,-2.593,-2.5791,-2.5178,-2.445,-2.4284,-2.4247,-2.4247,-2.4199,-2.4218,-2.4247,-2.4199,-2.4366,-2.4604,-2.4898,-2.4917,-2.4961,-2.5238,-2.5308,-2.5308,-2.5308,-2.5308,-2.5308,-2.5308,-2.5308,-2.5038,-2.4221,-2.4678,-2.4577,-2.3028,0.0,-2.411,-2.411,-2.4206,-2.4548,-2.5231,-2.5308,-2.5308,-2.5308,-2.5308,0.0,0.0,-2.5146,-2.4999,-2.4888,-2.4832,-2.4716,-2.4553,-2.4358,-2.4247,-2.4228,-2.4209,-2.419,-2.419,-2.419,-2.4218,-2.4247,-2.4209,-2.4218,-2.4247,-2.4209,-2.419,-2.419,-2.419,-2.419,-2.419,-2.419,-2.4218,-2.4247,-2.9363,-2.9465,-2.9542,-2.9363,-2.9484,-2.9588,-2.9588,-2.9588,-2.9588,-2.9588,-2.9588,-2.9588,-2.9588,-2.9435,-2.9341,-2.9341,-2.9134,-2.9005,-2.9005,-2.9005,-2.9005,-2.9005,-2.9232,-2.9225,-2.9005,-2.8338,-2.7934,-2.7798,-2.7042,-2.6579,-2.641,-2.6589,-2.6569,-2.641,-2.641,-2.6484,-2.6602,-2.6602,-2.6722,-2.6898,-2.6879,-2.7005,-2.7242,-2.7242,-2.7242,-2.7242,-2.7281,-2.7198,-2.694,-2.6208,-2.5857,-2.5568,-2.4717,-2.4444,-2.4428,-2.4256,-2.433,-2.4428,-2.4256,-2.4469,-2.4768,-2.4814,-2.5018,-2.5238,-2.5298,-2.5308,-2.5308,-2.5308,-2.5308,-2.5308,-2.5308,-2.5308,-2.5038,-2.4221,-2.4206,-2.3932,0.0,0.0,-2.411,-2.411,-2.4697,-2.5154,-2.5288,-2.5308,-2.5308,-2.5308,-2.5308,-2.5308,-2.5308,-2.5269,-2.5248,-2.5228,-2.4955,-2.479,-2.4753,-2.4543,-2.4444,-2.4444,-2.4275,-2.419,-2.419,-2.419,-2.4294,-2.4435,-2.4266,-2.4294,-2.4435,-2.4266,-2.419,-2.419,-2.419,-2.419,-2.419,-2.419,-2.4312,-2.4444,-2.9579,-2.9579,-2.9598,-2.9561,-2.9705,-2.978,-2.9713,-2.9705,-2.9705,-2.9705,-2.9705,-2.9705,-2.9705,-2.9626,-2.9551,-2.9551,-2.9353,-2.9259,-2.9367,-2.9149,-2.9055,-2.9203,-2.933,-2.9394,-2.9377,-2.8595,-2.8399,-2.8809,-2.8108,-2.7705,-2.7625,-2.7724,-2.7715,-2.7625,-2.7625,-2.7858,-2.8277,-2.8277,-2.8389,-2.8558,-2.845,-2.8544,-2.8761,-2.8761,-2.8761,-2.8776,-2.8921,-2.8595,-2.7985,-2.7134,-2.6486,-2.5846,-2.4937,-2.4662,-2.4639,-2.4561,-2.4512,-2.451,-2.4609,-2.47,-2.4847,-2.5012,-2.5101,-2.5163,-2.5274,-2.5308,-2.5308,-2.5308,-2.5308,-2.5308,-2.5308,-2.5308,-2.5038,-2.4221,-2.4452,0.0,0.0,-2.4221,-2.4755,-2.4755,-2.5077,-2.5308,-2.5308,-2.5308,-2.5308,-2.5308,-2.5308,-2.5308,-2.5308,-2.5308,-2.5308,-2.5308,-2.503,-2.491,-2.491,-2.4741,-2.4662,-2.4662,-2.4578,-2.4528,-2.4528,-2.4528,-2.4567,-2.4654,-2.4551,-2.4586,-2.4654,-2.4551,-2.4528,-2.4528,-2.4528,-2.4528,-2.4528,-2.4528,-2.4575,-2.4662,-2.9771,-2.9739,-2.9722,-2.9754,-2.992,-2.9988,-2.988,-2.9856,-2.9856,-2.9856,-2.9856,-2.9856,-2.9856,-2.9815,-2.9763,-2.9763,-2.9589,-2.9542,-2.9687,-2.9357,-2.9259,-2.9464,-2.9474,-2.9561,-2.9773,-2.9114,-2.9081,-2.9705,-2.9139,-2.8826,-2.8776,-2.8826,-2.8826,-2.8776,-2.8776,-2.9118,-2.9705,-2.9705,-2.9813,-2.9991,-2.9829,-2.9893,-3.0089,-3.0089,-3.0089,-3.0129,-3.0336,-2.9876,-2.9059,-2.823,-2.728,-2.6294,-2.5411,-2.5019,-2.4842,-2.4811,-2.4704,-2.4674,-2.4891,-2.4904,-2.491,-2.5171,-2.5152,-2.5105,-2.5264,-2.5308,-2.5308,-2.5308,-2.5308,-2.5308,-2.5308,-2.5308,-2.5038,-2.4221,0.0,0.0,0.0,-2.4793,-2.5308,-2.5308,-2.5308,-2.5308,-2.5308,-2.5308,-2.5308,-2.5308,-2.5308,-2.5308,-2.5308,-2.5308,-2.5308,-2.5308,-2.5152,-2.5077,-2.5077,-2.4917,-2.4849,-2.4849,-2.4799,-2.4804,-2.4804,-2.4804,-2.4825,-2.4842,-2.4799,-2.4825,-2.4842,-2.4818,-2.4804,-2.4804,-2.4804,-2.4804,-2.4804,-2.4804,-2.4832,-2.4849,-3.004,-3.0176,-3.0254,-3.0013,-3.0189,-3.0361,-3.0349,-3.0349,-3.0349,-3.0349,-3.0349,-3.0349,-3.0349,-3.0129,-2.9984,-2.9984,-2.9788,-2.9687,-2.9705,-2.967,-2.9661,-2.9678,-2.9678,-2.9763,-2.9977,-2.9739,-2.9648,-2.9705,-2.9836,-2.979,-2.9619,-2.9806,-2.979,-2.961,-2.961,-2.9648,-2.9705,-2.9705,-2.9813,-2.9999,-2.9984,-3.0136,-3.0367,-3.0367,-3.0367,-3.0367,-3.0398,-3.0359,-3.0161,-2.9283,-2.8431,-2.7572,-2.6524,-2.5634,-2.4962,-2.4835,-2.4877,-2.4943,-2.4842,-2.4897,-2.4992,-2.5016,-2.5152,-2.5274,-2.5303,-2.5308,-2.5308,-2.5308,-2.5308,-2.5308,-2.5308,-2.5308,-2.5038,-2.4221,0.0,0.0,-2.4206,-2.4793,-2.5308,-2.5308,-2.5308,-2.5308,-2.5308,-2.5308,-2.5308,-2.5308,-2.5308,-2.5308,-2.5308,-2.5308,-2.5308,-2.5308,-2.5298,-2.5274,-2.5274,-2.5082,-2.4992,-2.4986,-2.4862,-2.4804,-2.4804,-2.4804,-2.4876,-2.498,-2.4855,-2.4864,-2.498,-2.4855,-2.4804,-2.4804,-2.4804,-2.4804,-2.4804,-2.4804,-2.4871,-2.4992,-3.0267,-3.0323,-3.0367,-3.026,-3.0323,-3.0404,-3.0404,-3.0404,-3.0404,-3.0404,-3.0404,-3.0404,-3.0404,-3.0311,-3.0254,-3.0254,-3.0025,-2.9966,-3.0121,-2.9981,-2.9885,-2.9885,-3.0052,-3.0162,-3.0248,-3.0169,-3.0128,-3.0128,-3.0221,-3.0215,-3.0135,-3.0202,-3.0215,-3.0128,-3.0128,-3.0128,-3.0128,-3.0128,-3.0169,-3.0254,-3.0254,-3.0311,-3.0404,-3.0404,-3.0404,-3.0404,-3.0404,-3.0404,-3.0269,-2.939,-2.8896,-2.8385,-2.6946,-2.6253,-2.5883,-2.5285,-2.5154,-2.5163,-2.5126,-2.5154,-2.5198,-2.5198,-2.5234,-2.5308,-2.5308,-2.5308,-2.5308,-2.5308,-2.5308,-2.5308,-2.5308,-2.5308,-2.5192,-2.4889,0.0,-2.5192,-2.4889,-2.5115,-2.5308,-2.5308,-2.5308,-2.5308,-2.5308,-2.5308,-2.5308,-2.5308,-2.5308,-2.5308,-2.5308,-2.5308,-2.5308,-2.5308,-2.5308,-2.5308,-2.5308,-2.5219,-2.5198,-2.5192,-2.5138,-2.5109,-2.5109,-2.5109,-2.5143,-2.5173,-2.5138,-2.5143,-2.5173,-2.5138,-2.5109,-2.5109,-2.5109,-2.5109,-2.5109,-2.5109,-2.5149,-2.5198,-3.0404,-3.0404,-3.0404,-3.0404,-3.0404,-3.0404,-3.0404,-3.0404,-3.05,-3.0769,-3.0577,-3.0596,-3.1135,-3.0712,-3.0519,-3.0788,-3.0394,-3.0202,-3.0398,-3.0241,-3.0129,-3.0129,-3.0305,-3.0404,-3.0404,-3.0404,-3.0404,-3.0404,-3.0404,-3.0404,-3.0404,-3.0404,-3.0404,-3.0404,-3.0404,-3.0404,-3.0404,-3.0404,-3.0404,-3.0404,-3.0404,-3.0404,-3.0404,-3.0404,-3.0404,-3.0404,-3.0404,-3.0404,-3.0308,-2.9717,-2.9338,-2.8896,-2.7755,-2.7024,-2.6428,-2.5558,-2.5308,-2.5308,-2.5308,-2.5308,-2.5308,-2.5308,-2.5308,-2.5308,-2.5308,-2.5308,-2.5308,-2.5308,-2.5308,-2.5308,-2.5308,-2.5308,-2.5308,-2.5308,-2.5322,-2.533,-2.5326,-2.5342,-2.5363,-2.5363,-2.5363,-2.535,-2.5335,-2.5326,-2.5331,-2.5308,-2.5308,-2.5308,-2.5308,-2.5308,-2.5308,-2.5308,-2.5308,-2.5308,-2.5308,-2.5308,-2.5308,-2.5308,-2.5308,-2.5308,-2.5308,-2.5308,-2.5308,-2.5308,-2.5308,-2.5308,-2.5308,-2.5308,-2.5308,-2.5308,-2.5308,-2.5308,-2.5308,-2.5308,-2.5308,-2.5308,-3.0404,-3.0404,-3.0404,-3.0404,-3.0404,-3.0404,-3.0404,-3.0404,-3.0712,-3.1583,-3.0942,-3.1038,-3.2718,-3.1404,-3.075,-3.1621,-3.0904,-3.0404,-3.0404,-3.0404,-3.0404,-3.0404,-3.0404,-3.0404,-3.0404,-3.0404,-3.0404,-3.0404,-3.0404,-3.0404,-3.0404,-3.0404,-3.0404,-3.0404,-3.0404,-3.0404,-3.0404,-3.0404,-3.0404,-3.0404,-3.0404,-3.0404,-3.0404,-3.0404,-3.0404,-3.0404,-3.0404,-3.0404,-3.0404,-3.0404,-2.9833,-2.9107,-2.9088,-2.7928,-2.6428,-2.5558,-2.5308,-2.5308,-2.5308,-2.5308,-2.5308,-2.5308,-2.5308,-2.5308,-2.5308,-2.5308,-2.5308,-2.5308,-2.5308,-2.5308,-2.5308,-2.5308,-2.5308,-2.5308,-2.5359,-2.5409,-2.5402,-2.5462,-2.5491,-2.5491,-2.5491,-2.5465,-2.5401,-2.5406,-2.5375,-2.5317,-2.5308,-2.5308,-2.5308,-2.5308,-2.5308,-2.5308,-2.5308,-2.5308,-2.5308,-2.5308,-2.5308,-2.5308,-2.5308,-2.5308,-2.5308,-2.5308,-2.5308,-2.5308,-2.5308,-2.5308,-2.5308,-2.5308,-2.5308,-2.5308,-2.5308,-2.5308,-2.5308,-2.5308,-2.5308,-2.5308,-3.0404,-3.0404,-3.0404,-3.0404,-3.0404,-3.0404,-3.0404,-3.0404,-3.05,-3.075,-3.0558,-3.0827,-3.1948,-3.1077,-3.075,-3.1621,-3.0904,-3.0404,-3.0404,-3.0404,-3.0404,-3.0404,-3.0404,-3.0404,-3.0404,-3.0404,-3.0404,-3.0404,-3.0404,-3.0404,-3.0404,-3.0404,-3.0404,-3.0404,-3.0404,-3.0404,-3.0404,-3.0404,-3.0404,-3.0404,-3.0404,-3.0404,-3.0404,-3.0404,-3.0404,-3.0404,-3.0404,-3.0404,-3.0404,-3.0404,-3.0231,-2.9813,-2.8621,-2.7082,-2.5635,-2.5385,-2.5308,-2.5308,-2.5308,-2.5308,-2.5308,-2.5308,-2.5308,-2.5308,-2.5308,-2.5308,-2.5308,-2.5308,-2.5308,-2.5313,-2.5359,-2.5371,-2.5399,-2.5431,-2.5465,-2.5479,-2.5477,-2.5498,-2.5491,-2.5491,-2.5491,-2.5484,-2.5463,-2.5428,-2.5395,-2.5364,-2.5321,-2.5308,-2.5308,-2.5308,-2.5308,-2.5308,-2.5308,-2.5308,-2.5308,-2.5308,-2.5308,-2.5308,-2.5308,-2.5308,-2.5308,-2.5308,-2.5308,-2.5308,-2.5308,-2.5308,-2.5308,-2.5308,-2.5308,-2.5308,-2.5308,-2.5308,-2.5308,-2.5308,-2.5308,-2.5308,-3.0404,-3.0404,-3.0404,-3.0404,-3.0692,-3.0808,-3.0442,-3.0692,-3.0904,-3.0904,-3.0904,-3.1365,-3.2564,-3.191,-3.1737,-3.2602,-3.1602,-3.0904,-3.0904,-3.0596,-3.0404,-3.0404,-3.0404,-3.0404,-3.0404,-3.0404,-3.0404,-3.0404,-3.0404,-3.0404,-3.0404,-3.0404,-3.0404,-3.0404,-3.0404,-3.0404,-3.0404,-3.0404,-3.0404,-3.0404,-3.0404,-3.0404,-3.0404,-3.0404,-3.0404,-3.0404,-3.0404,-3.0404,-3.0404,-3.0404,-3.0173,-2.9583,-2.7909,-2.6659,-2.575,-2.5404,-2.5308,-2.5308,-2.5308,-2.5308,-2.5308,-2.5308,-2.5308,-2.5308,-2.5308,-2.5308,-2.5308,-2.5308,-2.5308,-2.5327,-2.5383,-2.5402,-2.5418,-2.5501,-2.5511,-2.5545,-2.5545,-2.5561,-2.557,-2.557,-2.557,-2.5564,-2.5547,-2.5493,-2.5477,-2.5447,-2.5409,-2.5372,-2.5372,-2.5372,-2.5372,-2.5372,-2.5372,-2.5372,-2.5372,-2.5372,-2.5346,-2.5308,-2.5308,-2.5308,-2.5308,-2.5308,-2.5308,-2.5308,-2.5308,-2.5308,-2.5308,-2.5308,-2.5308,-2.5308,-2.5308,-2.5308,-2.5308,-2.5308,-2.5308,-2.5308,-3.0404,-3.0396,-3.0427,-3.0504,-3.1189,-3.1451,-3.0662,-3.122,-3.1721,-3.1721,-3.1721,-3.2356,-3.4038,-3.346,-3.3281,-3.4129,-3.2673,-3.1737,-3.1795,-3.0923,-3.0423,-3.0519,-3.0442,-3.0404,-3.0404,-3.0404,-3.0404,-3.0404,-3.0404,-3.0404,-3.0404,-3.0404,-3.0404,-3.0404,-3.0404,-3.0404,-3.0404,-3.0404,-3.0404,-3.0404,-3.0404,-3.0404,-3.0404,-3.0404,-3.0404,-3.0404,-3.0404,-3.0404,-3.0404,-3.0404,-2.9813,-2.8819,-2.7217,-2.6659,-2.6428,-2.5558,-2.5293,-2.5303,-2.5303,-2.5313,-2.5322,-2.5322,-2.5322,-2.5317,-2.5293,-2.5308,-2.5308,-2.5308,-2.5293,-2.5326,-2.5406,-2.5411,-2.5444,-2.5517,-2.5564,-2.5605,-2.5605,-2.5661,-2.5703,-2.5703,-2.5703,-2.5682,-2.5607,-2.5603,-2.5567,-2.5515,-2.5491,-2.5491,-2.5491,-2.5491,-2.5491,-2.5491,-2.5491,-2.5491,-2.5491,-2.5491,-2.5441,-2.5322,-2.5322,-2.5317,-2.5303,-2.5303,-2.5317,-2.5308,-2.5308,-2.5308,-2.5308,-2.5308,-2.5308,-2.5308,-2.5308,-2.5308,-2.5308,-2.5308,-2.5308,-2.5308,-3.0404,-3.0441,-3.0694,-3.1386,-3.1693,-3.1782,-3.1607,-3.1743,-3.1859,-3.1859,-3.1859,-3.252,-3.4249,-3.365,-3.344,-3.4206,-3.27,-3.1968,-3.2602,-3.1231,-3.0692,-3.1391,-3.075,-3.0404,-3.0404,-3.0404,-3.0404,-3.0404,-3.0404,-3.0404,-3.0404,-3.0404,-3.0404,-3.0404,-3.0404,-3.0404,-3.0404,-3.0404,-3.0404,-3.0404,-3.0404,-3.0404,-3.0404,-3.0404,-3.0404,-3.0404,-3.0404,-3.0404,-3.0404,-3.0404,-2.9813,-2.8934,-2.7934,-2.7159,-2.6428,-2.5558,-2.5344,-2.5376,-2.5376,-2.5411,-2.5462,-2.5462,-2.5462,-2.5428,-2.5312,-2.5308,-2.5308,-2.5308,-2.5344,-2.5398,-2.5474,-2.5511,-2.557,-2.5657,-2.5662,-2.5682,-2.5682,-2.5683,-2.5703,-2.5703,-2.5703,-2.5683,-2.5683,-2.5633,-2.5567,-2.5515,-2.5491,-2.5491,-2.5491,-2.5491,-2.5491,-2.5491,-2.5491,-2.5491,-2.5491,-2.5491,-2.5495,-2.5462,-2.5462,-2.5428,-2.5376,-2.5376,-2.5346,-2.5308,-2.5308,-2.5308,-2.5308,-2.5308,-2.5308,-2.5308,-2.5308,-2.5308,-2.5308,-2.5308,-2.5308,-2.5308,-3.1529,-3.1403,-3.1441,-3.2322,-3.2847,-3.3008,-3.2583,-3.2872,-3.2989,-3.2563,-3.2872,-3.3495,-3.439,-3.4448,-3.4545,-3.4932,-3.3397,-3.258,-3.2963,-3.1794,-3.1254,-3.1679,-3.125,-3.1019,-3.1019,-3.0615,-3.0404,-3.0404,-3.0404,-3.0404,-3.0404,-3.0404,-3.0404,-3.0404,-3.0404,-3.0404,-3.0404,-3.0404,-3.0404,-3.0404,-3.0404,-3.0404,-3.0404,-3.0404,-3.0404,-3.0404,-3.0404,-3.0404,-3.0346,-2.9929,-2.9486,-2.8964,-2.8184,-2.7349,-2.6567,-2.6146,-2.5751,-2.5453,-2.5453,-2.5465,-2.5491,-2.5491,-2.5491,-2.5473,-2.5401,-2.5398,-2.5398,-2.5398,-2.5418,-2.5474,-2.5541,-2.5588,-2.561,-2.5683,-2.5703,-2.5703,-2.5703,-2.5703,-2.5703,-2.5703,-2.5703,-2.5703,-2.5703,-2.5662,-2.5634,-2.5601,-2.5599,-2.5599,-2.5599,-2.5599,-2.5599,-2.5599,-2.5599,-2.5599,-2.5599,-2.5599,-2.5599,-2.5599,-2.5537,-2.5473,-2.5453,-2.5453,-2.5428,-2.5398,-2.5398,-2.5398,-2.5398,-2.5398,-2.5398,-2.5398,-2.5398,-2.5398,-2.5391,-2.5363,-2.5337,-2.5303,-3.2833,-3.2584,-3.2408,-3.3287,-3.4055,-3.4294,-3.3575,-3.406,-3.4274,-3.3558,-3.4079,-3.4583,-3.4742,-3.5349,-3.5726,-3.5726,-3.4312,-3.34,-3.3341,-3.2376,-3.1787,-3.1721,-3.1561,-3.1484,-3.1484,-3.0794,-3.0417,-3.0404,-3.0404,-3.0404,-3.0404,-3.0404,-3.0416,-3.0425,-3.0425,-3.0417,-3.0419,-3.0419,-3.0428,-3.0425,-3.0433,-3.0428,-3.0425,-3.0433,-3.0419,-3.0419,-3.0419,-3.0419,-3.0323,-2.9594,-2.9354,-2.924,-2.8473,-2.7741,-2.7112,-2.6862,-2.6303,-2.5702,-2.5565,-2.5533,-2.5522,-2.5522,-2.5522,-2.5522,-2.5522,-2.5526,-2.5491,-2.5491,-2.552,-2.5522,-2.5597,-2.5605,-2.5635,-2.5683,-2.5703,-2.5703,-2.5703,-2.5703,-2.5703,-2.5703,-2.5703,-2.5703,-2.5703,-2.5703,-2.5703,-2.5703,-2.5703,-2.5703,-2.5703,-2.5703,-2.5703,-2.5703,-2.5703,-2.5703,-2.5703,-2.5703,-2.5703,-2.5703,-2.5595,-2.5535,-2.5526,-2.5526,-2.55,-2.5491,-2.5491,-2.5491,-2.5491,-2.5491,-2.5491,-2.5491,-2.5491,-2.5491,-2.5484,-2.5441,-2.5372,-2.5356,-3.3135,-3.3154,-3.3384,-3.4264,-3.4559,-3.4627,-3.4529,-3.4607,-3.4627,-3.451,-3.4607,-3.4959,-3.5701,-3.5837,-3.5873,-3.5873,-3.4912,-3.4322,-3.4302,-3.2737,-3.18,-3.1792,-3.1057,-3.067,-3.067,-3.0607,-3.052,-3.0404,-3.0404,-3.0404,-3.0404,-3.0404,-3.0439,-3.0495,-3.0495,-3.0528,-3.0568,-3.0568,-3.0541,-3.0485,-3.0556,-3.0541,-3.0485,-3.0559,-3.0568,-3.0568,-3.0568,-3.0568,-3.0558,-3.0376,-3.0347,-3.0264,-2.9463,-2.9138,-2.8732,-2.7247,-2.6759,-2.6553,-2.5791,-2.5633,-2.5662,-2.5662,-2.5662,-2.5662,-2.5662,-2.5573,-2.5491,-2.5491,-2.5549,-2.5595,-2.5601,-2.5657,-2.5683,-2.5703,-2.5703,-2.5703,-2.5703,-2.5703,-2.5703,-2.5703,-2.5703,-2.5703,-2.5703,-2.5703,-2.5703,-2.5703,-2.5703,-2.5703,-2.5703,-2.5703,-2.5703,-2.5703,-2.5703,-2.5703,-2.5703,-2.5703,-2.5703,-2.5703,-2.5683,-2.5636,-2.5594,-2.5594,-2.5556,-2.5491,-2.5491,-2.5491,-2.5491,-2.5491,-2.5491,-2.5491,-2.5491,-2.5491,-2.551,-2.5481,-2.5479,-2.5479,-3.4528,-3.4371,-3.4351,-3.523,-3.5409,-3.543,-3.543,-3.543,-3.543,-3.543,-3.543,-3.5566,-3.5957,-3.5974,-3.597,-3.597,-3.512,-3.4596,-3.4567,-3.3818,-3.3349,-3.3316,-3.2947,-3.2734,-3.2734,-3.1819,-3.1294,-3.1241,-3.0752,-3.0516,-3.0516,-3.0516,-3.0521,-3.0567,-3.0567,-3.0571,-3.0603,-3.0603,-3.0584,-3.0551,-3.0591,-3.0581,-3.0551,-3.0591,-3.0603,-3.0603,-3.0603,-3.0603,-3.06,-3.0561,-3.0575,-3.0534,-3.0226,-2.9827,-2.9226,-2.8004,-2.7314,-2.6773,-2.5894,-2.5682,-2.5703,-2.5703,-2.5703,-2.5703,-2.5703,-2.5659,-2.5606,-2.5606,-2.5635,-2.566,-2.566,-2.5683,-2.5703,-2.5703,-2.5703,-2.5703,-2.5703,-2.5703,-2.5703,-2.5703,-2.5703,-2.5703,-2.5703,-2.5703,-2.5703,-2.5703,-2.5703,-2.5703,-2.5703,-2.5703,-2.5703,-2.5703,-2.5703,-2.5703,-2.5703,-2.5703,-2.5703,-2.5703,-2.5703,-2.5683,-2.566,-2.566,-2.5636,-2.5606,-2.5606,-2.5606,-2.5606,-2.5606,-2.5606,-2.5606,-2.5606,-2.5595,-2.5559,-2.5601,-2.5595,-2.5559]},{"header":{"parameterUnit":"m.s-1","parameterCategory":1,"la1":30.6,"la2":28.766,"lo1":-90.7593,"lo2":-88.6598,"dy":0.0162,"dx":0.0183,"nx":116,"ny":114,"refTime":"2024-06-08T12:00:00:Z","depth":0,"parameterNumber":3,"parameterNumberName":"V-component_of_WINDS"},"data":[0.0,0.0,0.0,0.0,0.0,0.0,0.0,0.0,0.0,0.0,0.0,0.0,0.0,0.0,0.0,0.0,0.0,0.0,0.0,0.0,0.0,0.0,0.0,0.0,0.0,0.0,0.0,0.0,0.0,0.0,0.0,0.0,0.0,0.0,0.0,0.0,0.0,0.0,0.0,0.0,0.0,0.0,0.0,0.0,0.0,0.0,0.0,0.0,0.0,0.0,0.0,0.0,0.0,0.0,0.0,0.0,0.0,0.0,0.0,0.0,0.0,0.0,0.0,0.0,0.0,0.0,0.0,0.0,0.0,0.0,0.0,0.0,0.0,0.0,0.0,0.0,0.0,0.0,0.0,0.0,0.0,0.0,0.0,0.0,0.0,0.0,0.0,0.0,0.0,0.0,0.0,0.0,0.0,0.0,0.0,0.0,0.0,0.0,0.0,0.0,0.0,0.0,0.0,0.0,0.0,0.0,0.0,0.0,0.0,0.0,0.0,0.0,0.0,0.0,0.0,0.0,0.0,0.0,0.0,0.0,0.0,0.0,0.0,0.0,0.0,0.0,0.0,0.0,0.0,0.0,0.0,0.0,0.0,0.0,0.0,0.0,0.0,0.0,0.0,0.0,0.0,0.0,0.0,0.0,0.0,0.0,0.0,0.0,0.0,0.0,0.0,0.0,0.0,0.0,0.0,0.0,0.0,0.0,0.0,0.0,0.0,0.0,0.0,0.0,0.0,0.0,0.0,0.0,0.0,0.0,0.0,0.0,0.0,0.0,0.0,0.0,0.0,0.0,0.0,0.0,0.0,0.0,0.0,0.0,0.0,0.0,0.0,0.0,0.0,0.0,0.0,0.0,0.0,0.0,0.0,0.0,0.0,0.0,0.0,0.0,0.0,0.0,0.0,0.0,0.0,0.0,0.0,0.0,0.0,0.0,0.0,0.0,0.0,0.0,0.0,0.0,0.0,0.0,0.0,0.0,0.0,0.0,0.0,0.0,0.0,0.0,0.0,0.0,0.0,0.0,0.0,0.0,0.0,0.0,0.0,0.0,0.0,0.0,0.0,0.0,0.0,0.0,0.0,0.0,0.0,0.0,0.0,0.0,0.0,0.0,0.0,0.0,0.0,0.0,0.0,0.0,0.0,0.0,0.0,0.0,0.0,0.0,0.0,0.0,0.0,0.0,0.0,0.0,0.0,0.0,0.0,0.0,0.0,0.0,0.0,0.0,0.0,0.0,0.0,0.0,0.0,0.0,0.0,0.0,0.0,0.0,0.0,0.0,0.0,0.0,0.0,0.0,0.0,0.0,0.0,0.0,0.0,0.0,0.0,0.0,0.0,0.0,0.0,0.0,0.0,0.0,0.0,0.0,0.0,0.0,0.0,0.0,0.0,0.0,0.0,0.0,0.0,0.0,0.0,0.0,0.0,0.0,0.0,0.0,0.0,0.0,0.0,0.0,0.0,0.0,0.0,0.0,0.0,0.0,0.0,0.0,0.0,0.0,0.0,0.0,0.0,0.0,0.0,0.0,0.0,0.0,0.0,0.0,0.0,0.0,0.0,0.0,0.0,0.0,0.0,0.0,0.0,0.0,0.0,0.0,0.0,0.0,0.0,0.0,0.0,0.0,0.0,0.0,0.0,0.0,0.0,0.0,0.0,0.0,0.0,0.0,0.0,0.0,0.0,0.0,0.0,0.0,0.0,0.0,0.0,0.0,0.0,0.0,0.0,0.0,0.0,0.0,0.0,0.0,0.0,0.0,0.0,0.0,0.0,0.0,0.0,0.0,0.0,0.0,0.0,0.0,0.0,0.0,0.0,0.0,0.0,0.0,0.0,0.0,0.0,0.0,0.0,0.0,0.0,0.0,0.0,0.0,0.0,0.0,0.0,0.0,0.0,0.0,0.0,0.0,0.0,0.0,0.0,0.0,0.0,0.0,0.0,0.0,0.0,0.0,0.0,0.0,0.0,0.0,0.0,0.0,0.0,0.0,0.0,0.0,0.0,0.0,0.0,0.0,0.0,0.0,0.0,0.0,0.0,0.0,0.0,0.0,0.0,0.0,0.0,0.0,0.0,0.0,0.0,0.0,0.0,0.0,0.0,0.0,0.0,0.0,0.0,0.0,0.0,0.0,0.0,0.0,0.0,0.0,0.0,0.0,0.0,0.0,0.0,0.0,0.0,0.0,0.0,0.0,0.0,0.0,0.0,0.0,0.0,0.0,0.0,0.0,0.0,0.0,0.0,0.0,0.0,0.0,0.0,0.0,0.0,0.0,0.0,0.0,0.0,0.0,0.0,0.0,0.0,0.0,0.0,0.0,0.0,0.0,0.0,0.0,0.0,0.0,0.0,0.0,0.0,0.0,0.0,0.0,0.0,0.0,0.0,0.0,0.0,0.0,0.0,0.0,0.0,0.0,0.0,0.0,0.0,0.0,0.0,0.0,0.0,0.0,0.0,0.0,0.0,0.0,0.0,0.0,0.0,0.0,0.0,0.0,0.0,0.0,0.0,0.0,0.0,0.0,0.0,0.0,0.0,0.0,0.0,0.0,0.0,0.0,0.0,0.0,0.0,0.0,0.0,0.0,0.0,0.0,0.0,0.0,0.0,0.0,0.0,0.0,0.0,0.0,0.0,0.0,0.0,0.0,0.0,0.0,0.0,0.0,0.0,0.0,0.0,0.0,0.0,0.0,0.0,0.0,0.0,0.0,0.0,0.0,0.0,0.0,0.0,0.0,0.0,0.0,0.0,0.0,0.0,0.0,0.0,0.0,0.0,0.0,0.0,0.0,0.0,0.0,0.0,0.0,0.0,0.0,0.0,0.0,0.0,0.0,0.0,0.0,0.0,0.0,0.0,0.0,0.0,0.0,0.0,0.0,0.0,0.0,0.0,0.0,0.0,0.0,0.0,0.0,0.0,0.0,0.0,0.0,0.0,0.0,0.0,0.0,0.0,0.0,0.0,0.0,0.0,0.0,0.0,0.0,0.0,0.0,0.0,0.0,0.0,0.0,0.0,0.0,0.0,0.0,0.0,0.0,0.0,0.0,0.0,0.0,0.0,0.0,0.0,0.0,0.0,0.0,0.0,0.0,0.0,0.0,0.0,0.0,0.0,0.0,0.0,0.0,0.0,0.0,0.0,0.0,0.0,0.0,0.0,0.0,0.0,0.0,0.0,0.0,0.0,0.0,0.0,0.0,0.0,0.0,0.0,0.0,0.0,0.0,0.0,0.0,0.0,0.0,0.0,0.0,0.0,0.0,0.0,0.0,0.0,0.0,0.0,0.0,0.0,0.0,0.0,0.0,0.0,0.0,0.0,0.0,0.0,0.0,0.0,0.0,0.0,0.0,0.0,0.0,0.0,0.0,0.0,0.0,0.0,0.0,0.0,0.0,0.0,0.0,0.0,0.0,0.0,0.0,0.0,0.0,0.0,0.0,0.0,0.0,0.0,0.0,0.0,0.0,0.0,0.0,0.0,0.0,0.0,0.0,0.0,0.0,0.0,0.0,0.0,0.0,0.0,0.0,0.0,0.0,0.0,0.0,0.0,0.0,0.0,0.0,0.0,0.0,0.0,0.0,0.0,0.0,0.0,0.0,0.0,0.0,0.0,0.0,0.0,0.0,0.0,0.0,0.0,0.0,0.0,0.0,0.0,0.0,0.0,0.0,0.0,0.0,0.0,0.0,0.0,0.0,0.0,0.0,0.0,0.0,0.0,0.0,0.0,0.0,0.0,0.0,0.0,0.0,0.0,0.0,0.0,0.0,0.0,0.0,0.0,0.0,0.0,0.0,0.0,0.0,0.0,0.0,0.0,0.0,0.0,0.0,0.0,0.0,0.0,0.0,0.0,0.0,0.0,0.0,0.0,0.0,0.0,0.0,0.0,0.0,0.0,0.0,0.0,0.0,0.0,0.0,0.0,0.0,0.0,0.0,0.0,0.0,0.0,0.0,0.0,0.0,0.0,0.0,0.0,0.0,0.0,0.0,0.0,0.0,0.0,0.0,0.0,0.0,0.0,0.0,0.0,0.0,0.0,0.0,0.0,0.0,0.0,0.0,0.0,0.0,0.0,0.0,0.0,0.0,0.0,0.0,0.0,0.0,0.0,0.0,0.0,0.0,0.0,0.0,0.0,0.0,0.0,0.0,0.0,0.0,0.0,0.0,0.0,0.0,0.0,0.0,0.0,0.0,0.0,0.0,0.0,0.0,0.0,0.0,0.0,0.0,0.0,0.0,0.0,0.0,0.0,0.0,0.0,0.0,0.0,0.0,0.0,0.0,0.0,0.0,0.0,0.0,0.0,0.0,0.0,0.0,0.0,0.0,0.0,0.0,0.0,0.0,0.0,0.0,0.0,0.0,0.0,0.0,0.0,0.0,0.0,0.0,0.0,0.0,0.0,0.0,0.0,0.0,0.0,0.0,0.0,0.0,0.0,0.0,0.0,0.0,0.0,0.0,0.0,0.0,0.0,0.0,0.0,0.0,0.0,0.0,0.0,0.0,0.0,0.0,0.0,0.0,0.0,0.0,0.0,0.0,0.0,0.0,0.0,0.0,0.0,0.0,0.0,0.0,0.0,0.0,0.0,0.0,0.0,0.0,0.0,0.0,0.0,0.0,0.0,0.0,0.0,0.0,0.0,0.0,0.0,0.0,0.0,0.0,0.0,0.0,0.0,0.0,0.0,0.0,0.0,0.0,0.0,0.0,0.0,0.0,0.0,0.0,0.0,0.0,0.0,0.0,0.0,0.0,0.0,0.0,0.0,0.0,0.0,0.0,0.0,0.0,0.0,0.0,0.0,0.0,0.0,0.0,0.0,0.0,0.0,0.0,0.0,0.0,0.0,0.0,0.0,0.0,0.0,0.0,0.0,0.0,0.0,0.0,0.0,0.0,0.0,0.0,0.0,0.0,0.0,0.0,0.0,0.0,0.0,0.0,0.0,0.0,0.0,0.0,0.0,0.0,0.0,0.0,0.0,0.0,0.0,0.0,0.0,0.0,0.0,0.0,0.0,0.0,0.0,0.0,0.0,0.0,0.0,0.0,0.0,0.0,0.0,0.0,0.0,0.0,0.0,0.0,0.0,0.0,0.0,0.0,0.0,0.0,0.0,0.0,0.0,0.0,0.0,0.0,0.0,0.0,0.0,0.0,0.0,0.0,0.0,0.0,0.0,0.0,0.0,0.0,0.0,0.0,0.0,0.0,0.0,0.0,0.0,0.0,0.0,0.0,0.0,0.0,0.0,0.0,0.0,0.0,0.0,0.0,0.0,0.0,0.0,0.0,0.0,0.0,0.0,0.0,0.0,0.0,0.0,0.0,0.0,0.0,0.0,0.0,0.0,0.0,0.0,0.0,0.0,0.0,0.0,0.0,0.0,0.0,0.0,0.0,0.0,0.0,0.0,0.0,0.0,0.0,0.0,0.0,0.0,0.0,0.0,0.0,0.0,0.0,0.0,0.0,0.0,0.0,0.0,0.0,0.0,0.0,0.0,0.0,0.0,0.0,0.0,0.0,0.0,0.0,0.0,0.0,0.0,0.0,0.0,0.0,0.0,0.0,0.0,0.0,0.0,0.0,0.0,0.0,0.0,0.0,0.0,0.0,0.0,0.0,0.0,0.0,0.0,0.0,0.0,0.0,0.0,0.0,0.0,0.0,0.0,0.0,0.0,0.0,0.0,0.0,0.0,0.0,0.0,0.0,0.0,0.0,0.0,0.0,0.0,0.0,0.0,0.0,0.0,0.0,0.0,0.0,0.0,0.0,0.0,0.0,0.0,0.0,0.0,0.0,0.0,0.0,0.0,0.0,0.0,0.0,0.0,0.0,0.0,0.0,0.0,0.0,0.0,0.0,0.0,0.0,0.0,0.0,0.0,0.0,0.0,0.0,0.0,0.0,0.0,0.0,0.0,0.0,0.0,0.0,0.0,0.0,0.0,0.0,0.0,0.0,0.0,0.0,0.0,0.0,0.0,0.0,0.0,0.0,0.0,0.0,0.0,0.0,0.0,0.0,0.0,0.0,0.0,0.0,0.0,0.0,0.0,0.0,0.0,0.0,0.0,0.0,0.0,0.0,0.0,0.0,0.0,0.0,0.0,0.0,0.0,0.0,0.0,0.0,0.0,0.0,-1.5501,0.0,0.0,0.0,0.0,0.0,0.0,0.0,0.0,0.0,0.0,0.0,0.0,0.0,0.0,0.0,0.0,0.0,0.0,0.0,0.0,0.0,0.0,0.0,0.0,0.1122,0.0526,0.0097,-0.041,-0.0783,-0.0994,0.0,0.0,0.0,0.0,0.0,0.0,0.0,-0.0182,-0.0527,-0.0488,-0.0676,-0.1094,-0.0704,-0.0784,-0.1271,0.0,0.0,0.0,0.0,0.0,0.0,0.0,0.0,0.0,0.0,0.0,0.0,0.0,0.0,0.0,0.0,0.0,0.0,0.0,0.0,0.0,0.0,0.0,0.0,0.0,0.0,0.0,0.0,0.0,0.0,0.0,0.0,0.0,0.0,0.0,0.0,0.0,0.0,0.0,0.0,0.0,0.0,0.0,0.0,0.0,0.0,0.0,0.0,0.0,0.0,0.0,0.0,0.0,0.0,0.0,0.0,0.0,0.0,0.0,0.0,0.0,0.0,0.0,0.0,0.0,0.0,0.0,0.0,0.0,0.0,0.0,-1.7256,0.0,0.0,0.0,0.0,0.0,0.0,0.0,0.0,0.0,0.0,0.0,0.0,0.0,0.0,0.0,0.0,0.0,0.0,0.0,0.0,0.0,0.2444,0.223,0.1455,0.0945,0.0901,0.0091,-0.0414,-0.0423,-0.0426,0.0,0.0,0.0,0.0265,0.0166,0.0149,-0.0195,-0.0912,-0.0591,-0.0785,-0.1486,-0.167,-0.1891,-0.216,-0.2543,0.0,0.0,0.0,0.0,0.0,0.0,0.0,0.0,0.0,0.0,0.0,0.0,0.0,0.0,0.0,0.0,0.0,0.0,0.0,0.0,0.0,0.0,0.0,0.0,0.0,0.0,0.0,0.0,0.0,0.0,0.0,0.0,0.0,0.0,0.0,0.0,0.0,0.0,0.0,0.0,0.0,0.0,0.0,0.0,0.0,0.0,0.0,0.0,0.0,0.0,0.0,0.0,0.0,0.0,0.0,0.0,0.0,0.0,0.0,0.0,0.0,0.0,0.0,-1.6742,-1.8174,-1.9146,-2.1096,-2.2297,-2.2701,-2.0381,-1.9936,-2.0713,0.0,0.0,0.0,0.0,0.0,0.0,0.0,0.0,0.0,0.0,0.0,0.0,0.0,0.0,0.0,0.0,0.0,0.0,0.0,0.0,0.2804,0.2252,0.2075,0.1707,0.0971,0.0779,0.0693,0.0685,0.0692,0.0,0.0,0.1529,0.1325,0.0794,0.0787,0.0487,-0.0156,-0.15,-0.245,-0.3028,-0.3972,-0.4104,-0.3504,-0.2408,-0.1901,-0.1834,0.0,0.0,0.0,0.0,0.0,0.0,0.0,0.0,0.0,0.0,0.0,0.0,0.0,0.0,0.0,0.0,0.0,0.0,0.0,0.0,0.0,0.0,0.0,0.0,0.0,0.0,0.0,0.0,0.0,0.0,0.0,0.0,0.0,0.0,0.0,0.0,0.0,0.0,0.0,0.0,0.0,-0.5346,-0.631,0.0,0.0,0.0,0.0,0.0,0.0,0.0,0.0,0.0,0.0,0.0,0.0,0.0,0.0,-1.5104,-1.5611,-1.6469,-1.7574,-1.8133,-1.959,-2.1868,-2.2204,-2.2982,-2.415,-2.3777,0.0,-2.1631,-2.0674,0.0,0.0,0.0,0.0,0.0,0.0,0.0,0.0,0.0,0.0,0.0,0.0,0.0,0.0,0.0,0.0,0.0,0.0,0.0,0.0,0.0,0.3044,0.2715,0.2179,0.1836,0.16,0.1515,0.151,0.1602,0.1787,0.1801,0.172,0.1517,0.1119,0.0598,0.0,-0.1691,-0.2613,-0.2859,-0.3845,-0.4333,-0.4348,-0.2869,-0.1893,-0.1375,-0.1092,0.0,0.0,0.0,0.0,0.0,0.0,0.0,0.0,0.0,0.0,0.0,0.0,0.0,0.0,0.0,0.0,0.0,0.0,0.0,0.0,0.0,0.0,0.0,0.0,0.0,0.0,0.0,0.0,0.0,0.0,0.0,0.0,0.0,0.0,0.0,0.0,0.0,0.0,0.0,-0.5139,-0.5685,-0.6234,-0.6749,-0.7536,0.0,0.0,0.0,0.0,0.0,0.0,0.0,0.0,0.0,-1.533,-1.5598,-1.6032,-1.662,-1.6881,-1.7343,-1.8079,-1.9819,-2.1306,-2.2612,-2.4024,-2.4976,-2.5498,-2.5,-2.4365,-2.3564,-2.2217,-2.1191,-2.0371,0.0,0.0,0.0,0.0,0.0,-1.8975,0.0,0.0,0.0,0.0,0.0,0.0,0.0,0.0,0.0,0.0,0.0,0.0,0.4449,0.4233,0.3932,0.3425,0.3154,0.2788,0.2305,0.2433,0.246,0.2315,0.2282,0.2245,0.224,0.1382,0.0741,0.032,-0.1369,-0.232,-0.2607,-0.3498,-0.4181,-0.4658,-0.3228,-0.2051,-0.1062,-0.0271,0.0597,0.1458,0.0,0.0,0.0,0.0,0.0,0.0,0.0,0.0,0.0,0.0,0.0,0.0,0.0,0.0,0.0,0.0,0.0,0.0,0.0,0.0,0.0,0.0,0.0,0.0,0.0,0.0,0.0,0.0,0.0,0.0,0.0,0.0,0.0,0.0,0.0,0.0,0.0,-0.5619,-0.6,-0.6208,-0.7253,-0.8302,0.0,0.0,0.0,0.0,0.0,0.0,-1.4732,-1.5363,-1.5965,-1.6693,-1.6934,-1.7295,-1.7809,-1.7816,-1.7929,-1.8163,-2.0316,-2.1807,-2.274,-2.4627,-2.5803,-2.6357,-2.5693,-2.5342,-2.5127,-2.3613,-2.2754,-2.2275,-2.1289,-2.0586,-2.0205,-2.0997,-2.0957,-2.0781,0.0,0.0,0.0,0.0,0.0,0.0,0.0,0.0,0.0,0.0,0.0,0.5892,0.5476,0.5689,0.5412,0.4254,0.4758,0.4535,0.0,0.3589,0.384,0.3703,0.3587,0.3308,0.2858,0.1707,0.1135,0.1248,-0.0513,-0.1881,-0.2913,-0.3779,-0.4184,-0.4209,-0.3295,-0.2204,-0.0967,0.1157,0.2191,0.2473,0.2854,0.0,0.0,0.0,0.0,0.0,0.0,0.0,0.0,0.0,0.0,0.0,0.0,0.0,0.0,0.0,0.0,0.0,0.0,0.0,0.0,0.0,0.0,0.0,0.0,0.0,0.0,0.0,0.0,0.0,0.0,0.0,0.0,0.0,0.0,0.0,0.0,0.0,0.0,-0.6794,-0.8123,0.0,0.0,0.0,0.0,-1.4292,-1.5482,-1.6259,-1.655,-1.7128,-1.7595,-1.7916,-1.7909,-1.8075,-1.8444,-1.8444,-1.8457,-1.847,-1.863,-2.0077,-2.2695,-2.283,-2.4173,-2.6387,-2.6338,-2.6084,-2.5586,-2.4707,-2.4072,-2.3691,-2.3623,-2.3086,-2.2402,-2.2904,-2.2754,-2.2451,0.0,0.0,0.0,0.0,0.0,0.1131,0.2575,0.3466,0.4237,0.5008,0.5865,0.6331,0.6095,0.6525,0.6545,0.5815,0.599,0.5875,0.5257,0.4908,0.4677,0.4638,0.4048,0.3571,0.324,0.2284,0.1633,0.1288,-0.0462,-0.1835,-0.2935,-0.3797,-0.4212,-0.4135,-0.2549,-0.0588,0.1667,0.2778,0.3808,0.4775,0.5204,0.4792,0.0,0.0,0.0,0.0,0.0,0.0,0.0,0.0,0.0,0.0,0.0,0.0,0.0,0.0,0.0,0.0,0.0,0.0,0.0,0.0,0.0,0.0,0.0,0.0,0.0,0.0,0.0,0.0,0.0,0.0,0.0,0.0,0.0,0.0,0.0,0.0,0.0,-0.7426,-0.8944,0.0,-1.1196,-1.307,-1.4666,-1.5813,-1.6847,-1.7436,-1.7523,-1.7949,-1.8303,-1.8591,-1.8604,-1.8751,-1.9052,-1.9052,-1.9052,-1.9109,-2.004,-2.1025,-2.1999,-2.2713,-2.3995,-2.5706,-2.5187,-2.5402,-2.6113,-2.5508,-2.501,-2.4636,-2.4297,-2.4014,-2.376,-2.3916,-2.3701,-2.3359,0.0,0.0,0.0,0.0,-0.0437,0.038,0.1598,0.2638,0.3721,0.5003,0.6113,0.6881,0.7066,0.7505,0.7578,0.7015,0.7197,0.7095,0.6509,0.5877,0.543,0.5178,0.4429,0.3984,0.3851,0.3173,0.2462,0.1766,0.0,-0.1585,-0.298,-0.3541,-0.3815,-0.3758,-0.1732,0.0794,0.362,0.4577,0.5676,0.6779,0.7091,0.664,0.5772,0.0,0.0,0.0,0.0,0.0,0.0,0.0,0.0,0.0,0.0,0.0,0.0,0.0,0.0,0.0,0.0,0.0,0.0,0.0,0.0,0.0,0.0,0.0,0.0,0.0,0.0,0.0,0.0,0.0,0.0,0.0,0.0,0.0,0.0,0.0,-0.741,-0.7746,-0.9845,-1.1537,-1.2123,-1.4492,-1.6333,-1.7071,-1.7836,-1.8288,-1.8288,-1.8624,-1.8871,-1.9065,-1.9072,-1.9165,-1.9424,-1.9424,-1.9424,-1.9424,-2.0364,-2.1145,-2.1635,-2.2362,-2.3666,-2.5361,-2.4787,-2.5266,-2.6367,-2.6074,-2.5693,-2.5264,-2.498,-2.4775,-2.4639,-2.4639,-2.4365,-2.3984,0.0,0.0,0.0,-0.2119,-0.1444,-0.062,0.0391,0.1779,0.3324,0.4998,0.6355,0.7462,0.8266,0.8626,0.8507,0.7803,0.8401,0.819,0.6758,0.6494,0.606,0.5311,0.4773,0.458,0.4707,0.4235,0.3565,0.2692,0.093,-0.1028,-0.3059,-0.3057,-0.3017,-0.2924,-0.0875,0.1707,0.4571,0.6507,0.7688,0.8286,0.8429,0.7973,0.716,0.0,0.0,0.0,0.0,0.0,0.0,0.0,0.0,0.0,0.0,0.0,0.0,0.0,0.0,0.0,0.0,0.0,0.0,0.0,0.0,0.0,0.0,0.0,0.0,0.0,0.0,0.0,0.0,0.0,0.0,0.0,0.0,0.0,-0.672,-0.7232,-0.7689,-0.7872,-1.0962,-1.2974,-1.2941,-1.5997,-1.8015,-1.8015,-1.8555,-1.8945,-1.8951,-1.9225,-1.9444,-1.9392,-1.9392,-1.945,-1.9379,-1.9379,-1.943,-1.9424,-1.9424,-2.0148,-2.1529,-2.1586,-2.295,-2.5352,-2.5397,-2.5767,-2.6406,-2.6396,-2.6133,-2.5693,-2.5693,-2.5469,-2.5135,-2.5135,-2.4814,-2.4375,0.0,0.0,-0.3179,-0.2853,-0.2635,-0.2112,-0.0946,0.01,0.1445,0.3315,0.505,0.6499,0.7481,0.8332,0.8725,0.8507,0.8672,0.8639,0.8223,0.7067,0.59,0.4774,0.4758,0.4914,0.5204,0.4399,0.3632,0.2845,0.1716,0.0074,-0.2016,-0.2018,-0.1605,-0.078,0.0541,0.2863,0.5812,0.7637,0.8913,0.9791,0.9943,0.9836,0.9536,0.0,0.0,0.0,0.0,0.0,0.0,0.0,0.0,0.0,0.0,0.0,0.0,0.0,0.0,0.0,0.0,0.0,0.0,0.0,0.0,0.0,0.0,0.0,0.0,0.0,0.0,0.0,0.0,0.0,0.0,0.0,0.0,-0.7357,-0.7352,-0.7802,-0.8685,-1.0163,-1.222,-1.3986,-1.5206,-1.7327,-1.8628,-1.8628,-1.9032,-1.9339,-1.9546,-1.9639,-1.978,-1.9987,-1.9993,-1.9893,-1.9686,-1.9679,-1.9579,-1.9424,-1.9424,-1.9591,-2.0033,-2.1088,-2.259,-2.4264,-2.5075,-2.5925,-2.6816,-2.6514,-2.6133,-2.5693,-2.5693,-2.5615,-2.5557,-2.5557,-2.5273,-2.4824,0.0,-0.3596,-0.3681,-0.3583,-0.3467,-0.3105,-0.2261,-0.1399,-0.0257,0.1382,0.3411,0.5172,0.6405,0.7606,0.8454,0.8778,0.8804,0.8804,0.8804,0.7424,0.6037,0.4728,0.4943,0.5218,0.5392,0.4605,0.3784,0.2905,0.1576,0.0304,-0.0938,-0.0924,-0.0346,0.074,0.2218,0.4137,0.6278,0.7778,0.9224,1.0564,1.0512,1.0659,1.0852,1.0468,0.9881,0.9253,0.9164,0.8478,0.7535,0.6829,0.0,0.0,0.0,0.0,0.0,0.0,0.0,0.0,0.0,0.0,0.0,0.0,0.0,0.0,0.0,0.0,0.0,0.0,0.0,0.0,0.0,0.0,0.0,0.0,-0.8296,-0.7853,-0.8035,-0.8315,-0.9147,-1.1048,-1.2819,-1.4545,-1.6321,-1.8109,-1.9158,-1.9279,-1.9452,-1.9673,-1.9967,-1.998,-2.006,-2.0227,-2.0173,-2.0094,-1.9806,-1.98,-1.9659,-1.9424,-1.9424,-1.9424,-1.9424,-2.0923,-2.242,0.0,-2.5133,-2.6303,-2.7256,-2.6826,-2.6396,0.0,0.0,0.0,0.0,0.0,-2.5566,-2.5283,0.0,-0.4089,-0.4139,-0.429,-0.4169,-0.3919,-0.3568,-0.2839,-0.1914,-0.0742,0.1419,0.3419,0.4973,0.6513,0.7791,0.8613,0.8752,0.8745,0.0,0.7533,0.6349,0.5009,0.5256,0.5369,0.5299,0.4765,0.3922,0.2765,0.1157,0.0273,0.0195,0.0312,0.0934,0.2022,0.3859,0.5282,0.6271,0.733,0.8878,1.0609,1.0316,1.0754,1.149,1.0665,1.0508,1.0694,1.0099,0.9273,0.8469,0.8363,0.0,0.0,0.0,0.0,0.0,0.0,0.0,0.0,0.0,0.0,0.0,0.0,0.0,0.0,0.0,0.0,0.0,0.0,0.0,0.0,0.0,0.0,0.0,0.0,-0.8466,-0.8233,-0.8633,-0.8725,-0.9454,-1.1397,-1.3088,-1.4872,-1.6878,-1.8494,-1.9486,-1.978,-1.98,-1.994,-2.0267,0.0,0.0,0.0,0.0,-2.0187,-1.99,-1.9867,-1.97,-1.9412,-1.9379,-1.9424,-1.9424,-2.0923,-2.242,-2.3877,-2.5434,-2.671,-2.7679,-2.7197,-2.6738,-2.6279,-2.584,-2.5693,-2.5693,-2.5693,-2.5693,0.0,0.0,-0.4639,-0.4741,-0.5029,-0.5316,-0.5339,-0.4894,-0.4593,-0.408,-0.3155,-0.1227,0.0767,0.264,0.4697,0.6471,0.7797,0.8454,0.8363,0.7342,0.7146,0.655,0.5361,0.5464,0.5265,0.4674,0.4556,0.3612,0.1868,0.23,0.207,0.1291,0.2109,0.3083,0.4105,0.453,0.5276,0.6338,0.7365,0.8494,0.9567,0.9243,1.0565,1.2718,1.2033,1.1829,1.1808,1.1203,1.0186,0.8998,0.8134,0.7237,0.6387,0.5526,0.4136,0.0,0.0,0.0,0.0,0.0,0.0,0.0,0.0,0.0,0.0,0.0,0.0,0.0,0.0,0.0,0.0,0.0,0.0,0.0,-0.9221,-0.8874,-0.8574,-0.8668,-0.8811,-1.005,-1.3207,-1.3875,-1.5341,-1.8571,-1.921,-1.9486,-1.978,-1.98,-2.0034,-2.0561,-2.0588,0.0,-2.0935,-2.0942,-2.0802,-2.0508,-2.0267,-2.0,-1.9713,0.0,0.0,-1.9424,-2.0923,-2.242,-2.3877,-2.5434,-2.671,-2.7679,-2.7197,-2.6562,-2.581,-2.5723,-2.5693,-2.5693,-2.5693,-2.5693,-2.5674,-0.5784,-0.5494,-0.5401,-0.5572,-0.5765,-0.589,-0.5861,-0.5846,-0.5726,-0.5354,-0.3604,-0.182,-0.0279,0.2329,0.4645,0.6339,0.7455,0.7756,0.705,0.6789,0.6292,0.5528,0.5222,0.4874,0.4494,0.3539,0.2589,0.1607,0.2113,0.2347,0.2386,0.3398,0.4455,0.5518,0.5512,0.5786,0.6338,0.6834,0.7633,0.8537,0.8353,0.9448,1.1128,1.0465,1.0314,1.0353,0.9335,0.8864,0.8587,0.7507,0.6982,0.6722,0.6201,0.4796,0.3262,0.0,0.0,0.0,0.0,0.0,0.0,0.0,0.0,0.0,0.0,0.0,0.0,0.0,0.0,-0.904,0.0,0.0,-0.934,-0.905,-0.8826,-0.8712,-0.8813,-0.8881,-0.9883,-1.2618,-1.3601,-1.5186,-1.7931,-1.8946,-1.9546,-1.9987,-2.0013,-2.0274,-2.0862,-2.0895,-2.0955,-2.1109,-2.1109,-2.0969,-2.0681,-2.0381,-2.0087,-1.98,-1.9506,-1.9424,-1.9424,-2.0923,-2.1975,-2.2814,-2.5096,-2.638,-2.6927,-2.6956,-2.6514,-2.5693,-2.5693,-2.5693,-2.5693,-2.5693,-2.5693,-2.5693,-0.6691,-0.6351,-0.6114,-0.6037,-0.6083,-0.6275,-0.6681,-0.6892,-0.7084,-0.7327,-0.5912,-0.4374,-0.3108,-0.0217,0.2635,0.5125,0.6443,0.7054,0.6886,0.645,0.5927,0.5363,0.4806,0.4341,0.3949,0.2394,0.1488,0.1293,0.1489,0.2113,0.3124,0.4217,0.5276,0.63,0.6103,0.5983,0.5983,0.5786,0.6398,0.7468,0.7042,0.7621,0.8575,0.7563,0.7721,0.8329,0.6864,0.6784,0.7263,0.6419,0.6122,0.6109,0.6003,0.4846,0.3382,0.2635,0.169,0.0,0.0,0.0,0.0,0.0,0.0,0.0,0.0,-0.637,-0.7223,-0.9651,-0.9508,-0.9369,-1.0832,-1.0356,-0.9537,-0.8786,-0.8747,-0.8754,-0.8861,-0.8885,-0.9478,-1.1118,-1.2937,-1.4843,-1.6798,-1.8467,-1.9606,-2.0187,-2.0173,-2.0488,-2.1076,-2.1109,-2.1109,-2.1109,-2.1109,-2.0995,-2.0762,-2.0468,-2.0174,-1.988,-1.9593,-1.9419,-1.9424,-2.0644,-2.1309,-2.1749,-2.4812,-2.6055,-2.6037,-2.6735,-2.6562,-2.581,-2.5723,-2.5693,-2.5693,-2.5693,-2.5693,-2.5693,0.0,-0.699,-0.6856,-0.6503,-0.6732,-0.7111,-0.7585,-0.7864,-0.8278,-0.8935,-0.8163,-0.693,-0.524,-0.2666,0.0709,0.5094,0.6094,0.6395,0.614,0.6184,0.565,0.4417,0.4442,0.3704,0.1975,0.1715,0.1135,0.0196,0.1137,0.2113,0.3124,0.4217,0.5276,0.6261,0.5315,0.4882,0.4805,0.3865,0.4593,0.621,0.4361,0.4786,0.6343,0.4276,0.5159,0.7281,0.594,0.5019,0.4476,0.4484,0.3954,0.3339,0.3342,0.2652,0.1814,0.1541,0.0827,0.0104,0.0041,-0.0522,-0.1934,-0.5482,-0.5503,-0.5216,0.0,-0.7502,-0.7804,-0.9643,-0.9161,-0.8791,-1.0107,-0.949,-0.8786,-0.8706,-0.8806,-0.8858,-0.8881,-0.8885,-0.9053,-0.944,-1.2225,-1.4843,-1.6798,-1.8467,-1.9606,-2.0187,-2.0173,-2.0488,-2.1076,-2.1109,-2.1109,-2.1109,-2.1109,-2.1096,-2.1062,-2.0775,-2.0474,-2.012,-1.9887,-1.9619,-1.9424,-1.9591,-2.0371,-2.1749,-2.4812,-2.5838,-2.554,-2.6559,-2.6738,-2.6279,-2.584,-2.5693,-2.5693,-2.5693,-2.5693,-2.5693,0.0,-0.7846,-0.7875,-0.795,-0.771,-0.7728,-0.8396,-0.8798,-0.9118,-0.9422,-0.9133,-0.8343,-0.6939,-0.3427,0.0117,0.3293,0.4443,0.5104,0.5349,0.5475,0.5153,0.4238,0.3778,0.2943,0.1643,0.0392,-0.047,-0.094,0.0157,0.09,0.1325,0.3004,0.4018,0.4407,0.3348,0.288,0.284,0.1748,0.2172,0.3453,0.2567,0.3088,0.4183,0.2106,0.2131,0.3187,0.2549,0.2497,0.0,0.1481,0.1624,0.2248,0.2173,0.1893,0.159,0.151,0.0275,-0.1061,-0.103,-0.1772,-0.2951,-0.4491,-0.5058,-0.5681,-0.7365,-0.7709,-0.8091,-0.9693,-0.9079,-0.8725,-1.005,-0.941,-0.8747,0.0,-0.8952,-0.9032,-0.8895,-0.9011,-0.9086,-0.9204,-1.1945,-1.4302,-1.5406,-1.7693,-1.9419,-2.0113,-2.0173,-2.0488,-2.1076,-2.1109,-2.1109,-2.1109,-2.1109,-2.1109,-2.1109,-2.0822,-2.0528,-2.0227,-1.994,-1.9646,-1.9424,-1.9424,-2.0199,-2.1699,-2.3822,-2.4988,-2.5467,-2.654,-2.6768,-2.6348,-2.5859,-2.5693,-2.5693,-2.5693,-2.5693,-2.5693,0.0,-0.8483,-0.8731,-0.9283,-0.8904,-0.8662,-0.9099,-0.9544,-0.9808,-0.9805,-0.9608,-0.8944,-0.7486,-0.3921,-0.0877,0.0931,0.238,0.3398,0.3866,0.4245,0.4139,0.3417,0.2846,0.1957,0.0746,-0.0786,-0.1725,-0.2029,-0.1251,-0.0704,-0.039,0.109,0.1946,0.2215,0.1165,0.0582,0.0271,-0.0543,-0.0388,0.031,0.0347,0.0953,0.1687,0.0036,-0.0522,-0.0399,-0.0515,0.0,0.0482,-0.0919,-0.0477,0.0679,0.0599,0.0547,0.0523,0.0382,-0.0677,-0.1843,-0.2103,-0.2642,-0.3319,-0.399,-0.4999,-0.6205,-0.7425,-0.7786,-0.8144,-0.9226,-0.8812,-0.861,-0.9628,-0.9155,-0.8681,-0.8842,-0.8998,-0.9059,-0.8898,-0.9062,-0.9193,-0.91,-1.1744,-1.3765,-1.4157,-1.7029,-1.9252,-2.0054,-2.0187,-2.0454,-2.0962,-2.1069,-2.1109,-2.1109,-2.1109,-2.1109,-2.1109,-2.0822,-2.0528,-2.0227,-1.994,-1.9646,-1.9424,-1.9424,-2.0199,-2.1692,-2.3151,-2.4501,-2.5684,-2.6588,-2.6836,-2.6504,-2.5908,-2.5693,-2.5693,-2.5693,-2.5693,-2.5693,0.0,0.0,-0.9276,-1.0196,-1.0336,-1.0147,-0.9652,-1.0028,-1.0351,-1.0283,-0.9834,-0.8646,-0.6406,-0.4521,-0.2957,-0.1791,0.0075,0.1256,0.139,0.2252,0.2354,0.143,0.1561,0.0667,-0.1454,-0.1572,-0.2074,-0.3068,-0.3034,-0.2495,-0.1562,-0.1479,-0.0893,0.0039,-0.1009,-0.2053,-0.2966,-0.2994,-0.299,-0.2961,-0.281,-0.2107,-0.1267,-0.224,-0.2542,-0.2407,-0.2403,-0.2261,-0.2099,-0.2162,-0.2141,-0.2071,-0.2076,-0.2094,-0.2175,-0.2628,-0.2305,-0.1986,-0.2832,-0.2552,-0.2589,-0.4935,-0.5764,-0.6357,-0.7683,-0.7988,-0.7988,-0.8041,-0.8194,-0.8313,-0.8371,-0.846,-0.8539,-0.8676,-0.8845,-0.8888,-0.8885,-0.9062,-0.91,-0.8905,-1.1496,-1.342,0.0,-1.6861,-1.9172,-1.9766,-2.0074,-2.0368,-2.0675,-2.0955,-2.1109,-2.1109,-2.1109,-2.1109,-2.1109,-2.0822,-2.0528,-2.0227,-1.994,-1.9646,-1.9424,-1.9424,-2.0199,-2.1692,-2.3151,-2.4646,-2.6127,-2.6764,-2.7012,-2.6914,-2.6015,-2.5693,-2.5693,-2.5693,-2.5693,-2.5693,0.0,0.0,0.0,-1.1176,-1.1593,-1.1503,-1.0651,-1.0685,-1.0666,-1.0332,-0.9684,0.0,0.0,0.0,0.0,0.0,-0.1711,-0.0417,0.0522,0.1332,0.164,0.1315,0.0825,-0.0073,-0.1373,-0.2778,-0.3626,-0.3848,-0.3953,-0.3804,-0.3321,-0.2735,-0.2285,-0.2017,-0.3853,-0.484,-0.526,-0.6621,-0.6486,-0.5252,-0.506,-0.3975,-0.2582,-0.3274,-0.3422,-0.3319,0.0,-0.3583,-0.302,-0.3647,-0.3487,-0.3004,-0.3101,-0.2806,-0.2625,-0.3751,-0.4027,-0.4091,-0.4511,-0.4526,-0.4645,-0.5609,-0.5928,-0.6357,-0.7683,-0.7988,-0.7988,-0.7988,-0.7985,-0.8045,-0.8279,-0.8231,-0.8265,-0.8648,-0.8838,-0.8885,-0.8885,-0.915,-0.9215,-0.8912,-1.1766,0.0,0.0,0.0,0.0,-1.9452,-1.978,-2.016,-2.0648,-2.0949,-2.1109,-2.1109,-2.1109,-2.1109,-2.1109,-2.0822,-2.0528,-2.0167,-1.974,-1.9459,-1.9424,-1.9424,-2.0199,-2.1692,-2.3151,-2.4654,-2.6146,-2.6764,-2.7012,-2.6924,-2.6025,-2.5693,-2.5693,-2.5693,-2.5693,-2.5693,0.0,0.0,0.0,0.0,0.0,0.0,0.0,0.0,0.0,0.0,0.0,0.0,0.0,0.0,0.0,0.0,0.0,-0.192,-0.1142,-0.0367,0.0057,0.006,-0.0498,-0.1222,-0.2166,-0.353,-0.4397,-0.4712,-0.4843,-0.485,-0.4764,-0.4189,-0.4087,-0.4454,-0.5888,-0.6894,-0.7574,-0.8559,-0.83,-0.7125,-0.6487,-0.5328,-0.396,-0.423,-0.4168,0.0,-0.4624,-0.435,-0.3826,-0.4435,-0.4295,-0.389,-0.4016,-0.3964,-0.4038,-0.4983,-0.5294,-0.5285,-0.5446,-0.5616,-0.5799,-0.5964,-0.6357,-0.6918,-0.7786,-0.7988,-0.7975,-0.7921,-0.7814,-0.7818,-0.8028,-0.7926,-0.7967,-0.8472,-0.8723,-0.8893,-0.8998,-0.9273,-0.9371,-0.9127,-1.1907,-1.3927,0.0,0.0,0.0,-1.937,-1.9733,-2.012,-2.0501,-2.0895,-2.1109,-2.1109,-2.1109,-2.1056,-2.0955,-2.0661,-2.0314,-1.992,-1.9546,-1.9424,-1.9424,-1.9424,-2.0199,-2.1692,-2.3151,-2.4654,-2.6146,-2.6764,-2.7012,-2.6924,-2.6025,-2.5693,-2.5693,-2.5693,-2.5693,-2.5693,0.0,0.0,0.0,0.0,0.0,0.0,0.0,0.0,0.0,0.0,0.0,0.0,0.0,0.0,0.0,0.0,0.0,0.0,-0.3392,-0.2683,-0.2238,-0.2211,-0.2233,-0.2754,-0.3774,-0.384,-0.4438,-0.5578,-0.5568,-0.5639,-0.5756,-0.5776,-0.6225,-0.7072,-0.7131,-0.8145,-0.98,-0.8892,-0.8524,-0.8464,-0.7256,-0.6195,-0.5361,-0.5033,-0.4823,-0.4691,-0.4691,-0.4627,-0.4501,-0.4511,-0.4614,-0.4767,-0.4924,-0.5575,-0.6316,-0.6344,-0.6042,-0.5723,-0.5693,-0.5902,-0.6106,-0.6106,-0.7071,-0.7988,-0.7988,-0.7985,-0.7934,-0.7831,-0.7682,-0.7573,-0.7567,-0.7458,-0.761,-0.8204,-0.8499,-0.8804,-0.9166,-0.9408,-0.9544,-0.9398,-1.2082,-1.3977,-1.3967,0.0,0.0,-1.943,0.0,-2.0221,-2.0173,-2.0788,-2.1109,-2.1109,-2.1109,-2.0969,-2.0681,-2.0368,-1.9927,-1.9424,-1.9424,-1.9424,-1.9424,-1.9424,-2.0199,-2.1692,-2.3095,-2.4591,-2.6118,-2.665,-2.69,-2.6894,-2.6015,-2.5693,-2.5693,-2.5693,-2.5693,-2.5693,0.0,0.0,0.0,0.0,0.0,0.0,0.0,0.0,0.0,0.0,0.0,0.0,0.0,0.0,0.0,0.0,0.0,0.0,-0.339,-0.3123,-0.2762,-0.2233,-0.2877,-0.3383,-0.3638,-0.4383,-0.4872,-0.5077,-0.5168,-0.5207,-0.5133,-0.522,-0.5687,-0.6469,-0.7381,-0.8311,-0.9281,-0.9815,-0.9363,-0.8239,-0.7693,-0.6632,-0.5361,-0.5033,-0.4823,-0.4691,-0.4691,-0.4667,-0.465,-0.4765,-0.5062,-0.5415,-0.5653,-0.6055,-0.6482,-0.6675,-0.6913,-0.7089,-0.7113,-0.7273,-0.7478,-0.7478,-0.7733,-0.7988,-0.7988,-0.7901,-0.7828,-0.7685,-0.7441,-0.7179,-0.7075,-0.7248,-0.7492,-0.7868,-0.8272,0.0,-0.9152,-0.9317,-0.9425,-0.9388,-1.2554,-1.4669,-1.4555,-1.7724,0.0,0.0,-1.9947,-2.0007,-2.016,-2.0788,-2.1109,-2.1109,-2.1109,-2.0969,-2.0681,-2.0167,-1.9726,-1.9424,-1.9424,-1.9424,-1.9424,-1.9424,-2.0199,-2.1643,-2.1975,-2.3435,-2.5558,-2.5395,-2.582,-2.6494,-2.5898,-2.5693,-2.5693,-2.5693,-2.5693,-2.5693,0.0,0.0,0.0,0.0,0.0,0.0,0.0,0.0,0.0,0.0,0.0,0.0,0.0,0.0,0.0,0.0,0.0,0.0,0.0,-0.3818,-0.3649,-0.3231,-0.3713,-0.3996,-0.3996,-0.4619,-0.4874,-0.4805,-0.4951,-0.4977,-0.4903,-0.4981,-0.5601,-0.6719,-0.7382,-0.8304,-0.9315,-0.9609,-0.8972,0.0,0.0,-0.6197,-0.5074,-0.4806,-0.4667,-0.4617,-0.4617,-0.4788,-0.5088,-0.5734,-0.594,-0.5959,-0.6207,-0.6568,-0.6927,-0.7133,-0.7449,-0.7708,-0.7746,-0.7885,-0.7988,-0.7988,-0.7988,-0.7958,-0.7826,-0.778,-0.7621,-0.7275,-0.7014,-0.6803,-0.6661,-0.6878,-0.7197,-0.756,-0.8106,-0.8638,-0.9146,-0.9344,-0.9503,-0.9568,-1.2658,-1.4836,-1.4861,-1.7906,-1.9907,0.0,-2.0134,-2.0254,-2.0421,-2.0742,-2.0915,-2.0915,-2.0795,-2.0588,-2.0294,-1.984,-1.9533,-1.9424,-1.9424,-1.9424,-1.9424,-1.9424,-1.9866,-2.0644,0.0,-2.2672,-2.4451,-2.4711,-2.5438,-2.6348,-2.5859,-2.5693,-2.5693,-2.5693,-2.5693,-2.5664,0.0,0.0,0.0,0.0,0.0,0.0,0.0,0.0,0.0,0.0,0.0,0.0,0.0,0.0,0.0,0.0,0.0,0.0,0.0,0.0,0.0,-0.4491,-0.4491,-0.4491,-0.4491,-0.4621,-0.4666,-0.4675,-0.48,-0.4841,-0.4836,-0.493,-0.5792,-0.7199,-0.732,-0.8174,-0.952,-0.88,-0.7974,-0.7125,-0.6277,-0.542,-0.4675,0.0,0.0,-0.4522,-0.4664,-0.504,-0.5659,-0.6929,-0.6904,-0.643,-0.6732,-0.7092,-0.7482,-0.761,-0.7729,-0.7836,-0.7988,-0.7988,-0.7988,-0.7988,-0.7975,-0.7887,-0.7662,-0.7553,-0.735,-0.6787,-0.6532,-0.6405,-0.6242,-0.6444,-0.681,-0.7241,-0.7923,-0.8564,-0.9111,-0.9367,-0.9608,-0.9774,-1.2642,-1.472,-1.4973,-1.7737,-1.9586,-1.984,-2.0327,-2.0601,-2.0561,-2.0595,-2.0615,-2.0615,-2.0327,-2.0054,-1.9806,-1.9512,-1.9424,-1.9424,-1.9424,-1.9424,-1.9424,-1.9424,-1.9424,-1.9482,0.0,0.0,-2.2923,-2.4052,-2.5093,-2.6002,-2.5781,-2.5693,-2.5693,-2.5693,-2.5654,-2.5596,0.0,0.0,0.0,0.0,0.0,0.0,0.0,0.0,0.0,0.0,-1.3026,-1.2281,0.0,0.0,0.0,0.0,0.0,0.0,0.0,0.0,0.0,-0.4491,-0.4491,-0.4491,-0.4491,-0.4515,-0.454,-0.4529,-0.4567,-0.457,-0.4574,-0.5124,-0.5861,-0.6759,-0.7345,-0.8135,-0.8918,-0.8172,-0.7417,-0.6666,-0.5908,-0.5156,-0.4528,0.0,0.0,0.0,-0.5575,-0.5888,-0.6049,-0.7167,-0.7201,-0.6868,-0.7286,-0.7563,-0.7753,-0.7903,-0.796,-0.7988,-0.7988,-0.7988,-0.7988,-0.7988,-0.7894,-0.7807,-0.7638,-0.7312,-0.6943,-0.6583,-0.6295,-0.6023,-0.5755,-0.6187,-0.662,-0.6953,-0.7522,-0.8174,-0.8876,-0.9123,-0.9337,-0.9612,-1.2797,-1.4948,-1.4988,-1.8064,0.0,0.0,0.0,-2.0207,-1.9967,-2.018,-2.0307,-2.0307,-2.0027,-1.9853,-1.98,-1.9512,-1.9424,-1.9424,-1.9424,-1.9424,-1.9424,-1.9424,-1.9424,-1.9424,0.0,0.0,-2.107,-2.2346,-2.3402,-2.4248,-2.5303,-2.5693,-2.5693,-2.5693,-2.5508,-2.5176,0.0,0.0,0.0,0.0,0.0,0.0,0.0,-1.4415,-1.4471,-1.4985,-1.4115,-1.2892,-1.1327,-0.9342,-0.7706,0.0,0.0,0.0,0.0,0.0,0.0,0.0,-0.4491,-0.4491,-0.4491,-0.4565,-0.4584,-0.4488,0.0,-0.4565,-0.4519,-0.5191,-0.5896,-0.6627,-0.7364,-0.8103,-0.8725,-0.7616,-0.6912,-0.6507,-0.5414,-0.4838,0.0,0.0,0.0,0.0,-0.6267,-0.659,-0.6506,-0.7498,-0.7959,-0.8086,-0.765,-0.765,-0.7816,-0.7864,-0.796,-0.8137,-0.8874,-0.9019,-0.9019,-0.9019,-0.8938,-0.8558,-0.7472,-0.7024,-0.6658,-0.6122,-0.5901,-0.587,-0.6109,-0.6283,-0.6593,-0.7267,-0.7501,-0.7845,-0.8594,-0.8828,-0.9093,-0.9554,-1.1947,-1.3956,-1.4917,-1.7163,-1.892,0.0,0.0,-1.9853,-2.0013,-2.0013,-1.994,-1.9786,-1.9646,-1.9579,-1.9579,-1.9432,-1.9424,-1.9424,-1.9424,-1.9424,-1.9424,-1.9424,-1.9279,-1.9138,-1.9138,0.0,-2.0352,-2.0994,-2.1835,-2.2767,-2.4146,-2.4658,-2.4766,-2.543,-2.5449,-2.5086,0.0,0.0,0.0,0.0,0.0,0.0,0.0,-1.5526,-1.5555,-1.6,-1.4506,-1.2806,-1.1301,-0.9086,-0.7354,0.0,0.0,0.0,0.0,0.0,0.0,0.0,0.0,-0.4491,-0.4491,0.0,0.0,-0.4539,-0.4608,0.0,0.0,0.0,0.0,0.0,-0.754,-0.8262,-0.8699,-0.7235,-0.6588,0.0,0.0,0.0,0.0,0.0,0.0,0.0,0.0,-0.722,-0.7145,-0.8057,-0.8745,-0.9033,-0.8023,-0.8039,-0.8334,-0.79,-0.8018,-0.8484,-0.9353,-0.9801,-0.9948,-0.9657,-0.9631,-0.924,-0.7316,-0.6763,-0.6413,-0.5732,-0.5562,-0.5804,-0.6552,-0.6541,-0.6786,-0.7912,-0.7754,-0.7806,-0.8584,-0.8681,-0.8982,-0.9905,-1.1608,-1.3421,-1.5259,-1.6671,0.0,0.0,0.0,0.0,-2.0027,-1.9833,-1.9599,-1.943,-1.9424,-1.9424,-1.9424,-1.9424,-1.9424,-1.9424,-1.9424,-1.9332,-1.9272,-1.9272,-1.9112,-1.8831,-1.8831,0.0,0.0,-1.9969,-2.0547,-2.1397,-2.2717,-2.3276,-2.3425,-2.4662,-2.4862,-2.4477,0.0,0.0,0.0,0.0,0.0,0.0,0.0,-1.548,-1.5389,-1.5627,-1.3579,-1.1527,-1.0101,-0.8811,-0.7395,0.0,0.0,0.0,0.0,0.0,0.0,0.0,0.0,0.0,0.0,0.0,0.0,-0.467,-0.4576,0.0,0.0,0.0,0.0,0.0,0.0,-0.8725,-0.8699,-0.7235,0.0,0.0,0.0,0.0,0.0,0.0,0.0,0.0,0.0,-0.7846,-0.8225,-0.9217,-0.925,-0.8845,-0.8785,-0.9478,-0.9997,-0.8143,-0.844,-0.9208,-0.8393,-0.9069,-0.9706,-0.8482,-0.8868,-0.9079,-0.7288,-0.6603,-0.6204,-0.5688,-0.5515,-0.5671,-0.6527,-0.6785,-0.7328,-0.8764,-0.8413,-0.8252,-0.9088,-0.8838,-0.9205,-1.1087,-1.3007,0.0,-1.6621,-1.824,0.0,0.0,0.0,0.0,-1.9446,-1.9419,-1.9457,-1.9424,-1.9424,-1.9424,-1.9424,-1.9424,-1.9424,-1.9424,-1.9424,-1.9225,-1.8965,-1.8965,-1.8804,-1.8531,0.0,0.0,0.0,-1.9551,-1.9979,-1.993,-2.1347,-2.1904,-2.2013,-2.2926,-2.3003,-2.2746,0.0,0.0,0.0,0.0,0.0,0.0,-1.5605,-1.5441,-1.5232,-1.507,-1.2924,-1.0885,-0.9489,-0.7908,-0.6558,-0.5592,0.0,0.0,0.0,0.0,0.0,0.0,0.0,0.0,0.0,0.0,-0.4639,-0.4702,-0.4725,0.0,0.0,0.0,0.0,0.0,0.0,-0.8804,-0.8725,-0.7696,0.0,0.0,0.0,0.0,0.0,0.0,0.0,0.0,0.0,0.0,-0.8174,-0.8807,-0.9411,-0.9674,-0.8443,-0.9439,-1.0677,-0.8581,-0.8159,-0.8471,-0.8966,-1.0104,-1.0828,-0.9509,-0.9914,-0.9929,-0.7356,-0.6444,-0.5993,-0.5579,-0.5863,-0.6465,-0.7307,-0.7579,-0.8122,-0.9473,-0.9,-0.8817,-0.9696,-0.9965,-1.0612,-1.197,-1.3262,-1.4777,0.0,0.0,0.0,0.0,0.0,0.0,-1.9424,-1.9424,-1.9424,-1.9424,-1.9424,-1.9424,-1.9424,-1.9424,-1.9279,-1.9098,-1.9098,-1.8945,-1.8664,-1.8664,-1.8504,-1.8223,0.0,0.0,0.0,-1.8386,-1.8513,-1.8558,-1.9878,-2.0311,-2.0419,-2.2304,-2.2652,-2.2335,0.0,0.0,0.0,0.0,0.0,-1.5682,-1.5604,-1.5266,-1.4807,-1.4266,-1.2171,-1.0163,-0.8658,-0.7101,-0.5889,-0.5321,-0.4783,0.0,0.0,0.0,0.0,0.0,0.0,0.0,0.0,0.0,-0.4734,-0.4817,-0.5221,-0.5723,0.0,0.0,-0.7753,-0.8217,0.0,0.0,0.0,0.0,0.0,0.0,0.0,0.0,0.0,0.0,0.0,0.0,0.0,0.0,0.0,0.0,0.0,-1.0089,-0.8691,-0.9395,-1.0334,-0.8467,-0.8115,-0.8494,-0.946,-1.0771,-1.1559,-1.0254,-1.0608,-1.0499,-0.7363,-0.6318,-0.5974,-0.5817,-0.6268,-0.7046,-0.8188,-0.8455,-0.8934,-1.0184,-0.9688,-0.9539,-1.0489,-1.0905,-1.1662,-1.3075,0.0,-1.4953,0.0,-1.7591,0.0,0.0,0.0,0.0,0.0,-1.8995,-1.9279,-1.9424,-1.9424,-1.9325,-1.9239,-1.9239,-1.9085,-1.8798,-1.8798,-1.8644,-1.8364,-1.8364,-1.8196,-1.7856,0.0,0.0,0.0,-1.7582,-1.7528,-1.7553,-1.8521,-1.8738,-1.8692,-2.0793,-2.1488,-2.1529,0.0,0.0,0.0,0.0,0.0,0.0,-1.5604,-1.4881,-1.3998,-1.3121,-1.116,-0.9173,-0.7492,-0.6523,-0.5666,-0.4793,-0.4574,0.0,0.0,0.0,0.0,0.0,0.0,0.0,0.0,0.0,-0.4836,-0.5088,-0.6161,-0.6587,-0.6445,-0.8171,-0.8696,-0.8217,0.0,0.0,0.0,0.0,0.0,0.0,0.0,0.0,0.0,0.0,0.0,0.0,0.0,0.0,0.0,0.0,0.0,0.0,0.0,-0.9601,-0.8807,-0.7662,-0.8582,-0.9895,-0.9598,-1.0599,-1.1422,-1.0096,-1.0546,-1.046,-0.7215,-0.6244,-0.6117,-0.6605,-0.6687,-0.7242,-0.8979,-0.9274,-0.9653,-1.0817,-1.0467,-1.0473,-1.1525,-1.1338,-1.2021,0.0,0.0,-1.5895,-1.8245,0.0,0.0,0.0,0.0,0.0,0.0,-1.8096,-1.9065,-1.9417,-1.9424,-1.9225,-1.8931,-1.8925,-1.8784,-1.8497,-1.8497,-1.8337,-1.7995,-1.7995,-1.7883,0.0,0.0,0.0,0.0,-1.7582,-1.7467,-1.7206,-1.7206,-1.7025,-1.6823,-1.7821,-1.8917,-2.0069,0.0,0.0,0.0,0.0,0.0,0.0,0.0,-1.4001,-1.2941,-1.1963,-0.9888,-0.8207,-0.7398,-0.6004,-0.5003,-0.4716,-0.4574,0.0,0.0,0.0,0.0,0.0,0.0,0.0,0.0,0.0,-0.4994,-0.5318,-0.641,-0.7277,-0.7919,-0.8799,-0.9419,-0.984,-0.9633,-0.9551,0.0,0.0,0.0,0.0,0.0,0.0,0.0,0.0,0.0,0.0,0.0,0.0,0.0,0.0,0.0,0.0,0.0,0.0,0.0,-0.7608,-0.8295,-0.9237,-0.7818,-0.952,-1.1056,-0.8372,-0.8906,-0.9384,-0.6769,-0.5939,-0.5898,-0.6552,-0.7177,-0.7929,-0.9075,-0.9786,-1.0555,-1.1708,-1.1748,-1.1999,-1.3182,-1.3749,0.0,-1.5663,-1.6749,-1.7672,0.0,0.0,0.0,0.0,0.0,0.0,0.0,-1.7403,-1.7153,-1.7296,-1.8238,-1.8724,-1.8631,-1.8631,-1.8484,-1.8135,-1.8135,-1.8023,-1.7729,-1.7729,0.0,0.0,0.0,0.0,0.0,-1.7068,-1.6927,-1.6847,-1.6847,-1.6667,-1.6681,-1.8615,-1.9457,-1.992,0.0,0.0,0.0,0.0,0.0,0.0,0.0,-1.3384,-1.2076,-1.1223,-0.8965,-0.7347,-0.7176,-0.5631,-0.4658,-0.4759,-0.4647,0.0,0.0,0.0,0.0,0.0,0.0,0.0,0.0,-0.4857,-0.5265,-0.6037,-0.7201,-0.824,-0.9176,-0.9921,-1.0406,-1.0579,-1.0211,-0.9983,0.0,0.0,0.0,0.0,0.0,0.0,0.0,0.0,0.0,0.0,0.0,0.0,0.0,0.0,0.0,0.0,0.0,0.0,0.0,0.0,-0.8431,-0.9233,-0.7536,-0.8705,-0.9958,-0.7849,-0.819,-0.8473,-0.6321,-0.5885,-0.6119,-0.691,-0.7735,-0.8594,-0.9602,-1.0238,-1.0834,-1.1523,-1.1924,-1.2518,-1.3607,0.0,0.0,-1.6339,0.0,0.0,0.0,0.0,0.0,0.0,0.0,0.0,0.0,0.0,-1.6109,-1.5954,-1.7055,-1.7857,-1.8323,-1.8323,-1.817,-1.7869,-1.7869,-1.7769,-1.7582,-1.7521,0.0,0.0,0.0,0.0,0.0,-1.678,-1.664,-1.6547,-1.6547,-1.6366,-1.6292,-1.7779,-1.8854,-1.9724,0.0,0.0,0.0,0.0,0.0,0.0,0.0,-1.2924,-1.1416,-1.0806,-0.8306,-0.6666,-0.6793,-0.5422,-0.4603,-0.4863,0.0,0.0,0.0,0.0,0.0,0.0,0.0,0.0,-0.4891,-0.4978,-0.5711,-0.7125,-0.8324,-0.9353,-1.0214,-1.1391,-1.1512,-1.068,-1.0673,-1.0423,0.0,0.0,0.0,0.0,0.0,0.0,0.0,0.0,0.0,0.0,0.0,0.0,0.0,0.0,0.0,0.0,0.0,0.0,0.0,0.0,0.0,0.0,0.0,-0.8169,-0.8506,-0.8337,-0.8228,-0.7692,-0.6082,-0.6059,0.0,-0.7576,-0.8318,-0.9161,-1.0395,-1.0626,-1.066,-1.076,-1.1484,-1.2348,0.0,-1.4349,0.0,0.0,-1.7241,0.0,0.0,0.0,0.0,0.0,0.0,0.0,0.0,0.0,-1.5609,-1.5423,-1.5716,-1.6587,-1.7962,-1.7962,-1.7869,-1.7582,-1.7582,-1.7569,-1.7542,-1.7326,0.0,0.0,0.0,0.0,0.0,-1.6653,-1.6486,-1.6239,-1.6239,-1.6072,-1.5832,-1.592,-1.739,-1.936,0.0,0.0,0.0,0.0,0.0,0.0,0.0,0.0,0.0,0.0,-0.7991,-0.6401,-0.5891,-0.5022,-0.4579,0.0,0.0,0.0,0.0,0.0,0.0,0.0,0.0,0.0,-0.4895,-0.5647,-0.6432,-0.7262,-0.9216,-1.0456,-1.0954,-1.2088,-1.2232,-1.1566,-1.1333,-1.0563,0.0,0.0,0.0,0.0,0.0,0.0,0.0,0.0,0.0,0.0,-0.4861,-0.5043,0.0,0.0,0.0,0.0,0.0,0.0,0.0,0.0,-0.8056,-0.812,-0.6713,0.0,-0.9329,-0.779,-0.745,-0.7373,0.0,-0.6397,-0.6498,-0.795,-0.8535,-0.9215,-1.0659,-1.0928,-1.1263,-1.2405,-1.2946,-1.354,-1.4472,-1.5558,0.0,-1.7032,-1.7361,0.0,0.0,0.0,0.0,0.0,0.0,0.0,0.0,0.0,-1.4347,-1.5364,-1.3415,-1.4049,-1.7636,-1.7695,-1.7655,-1.7582,-1.7582,-1.7468,-1.73,-1.7233,0.0,0.0,0.0,0.0,-1.6353,-1.6132,-1.5992,-1.5932,-1.5932,-1.5892,-1.592,-1.6897,-1.7638,-1.828,0.0,0.0,0.0,0.0,0.0,0.0,0.0,0.0,0.0,0.0,0.0,0.0,0.0,0.0,0.0,0.0,0.0,0.0,0.0,0.0,0.0,0.0,0.0,-0.5047,-0.5583,-0.6258,-0.7264,-0.8592,-0.9932,-1.1043,-1.193,-1.237,-1.233,-1.1864,-1.1302,-1.0389,0.0,0.0,0.0,0.0,0.0,0.0,0.0,0.0,0.0,0.0,-0.472,-0.4966,0.0,-0.6922,-0.7824,-0.8506,0.0,0.0,0.0,0.0,-0.8255,-0.806,-0.6981,-0.7881,-0.8697,-0.6795,-0.6982,-0.7444,-0.6831,-0.6784,-0.7143,-0.8103,-0.8781,-0.9528,-1.0617,-1.1009,-1.1503,-1.2438,-1.3147,0.0,0.0,0.0,-1.6814,-1.7166,-1.7967,0.0,0.0,0.0,0.0,0.0,0.0,0.0,0.0,0.0,-1.364,-1.5065,-1.2956,-1.3318,-1.6552,-1.6605,-1.6864,-1.7434,-1.7434,-1.728,-1.6991,-1.6857,0.0,0.0,0.0,0.0,-1.6059,-1.5844,-1.5784,-1.5784,-1.5784,-1.5784,-1.5872,-1.6574,-1.7178,-1.7777,0.0,0.0,0.0,0.0,0.0,0.0,0.0,0.0,0.0,0.0,0.0,0.0,0.0,0.0,0.0,0.0,0.0,0.0,0.0,0.0,0.0,0.0,0.0,-0.5566,-0.6457,-0.7002,-0.8216,-1.0168,-1.063,-1.1542,-1.2852,-1.2596,-1.2261,-1.1864,-1.1048,-1.0232,0.0,0.0,0.0,0.0,0.0,0.0,0.0,0.0,0.0,0.0,0.0,0.0,0.0,-0.6999,-0.8013,-0.8893,-0.9408,0.0,0.0,0.0,0.0,0.0,-0.8012,-0.8142,-0.8042,-0.6278,-0.6998,-0.7914,-0.6938,-0.7398,-0.8096,-0.8367,-0.9131,-0.997,-1.0606,-1.1169,-1.1683,-1.2078,0.0,0.0,-1.5598,-1.6299,-1.6734,-1.7038,0.0,0.0,0.0,0.0,0.0,0.0,0.0,0.0,0.0,0.0,0.0,-1.4439,-1.3053,-1.3138,-1.497,-1.5405,-1.6097,-1.7132,-1.7132,-1.6927,-1.6627,-1.6386,-1.6246,0.0,0.0,0.0,-1.5784,-1.5784,-1.5784,-1.5784,-1.5784,-1.5784,-1.5784,-1.5784,-1.648,-1.7458,0.0,0.0,0.0,0.0,0.0,0.0,0.0,0.0,0.0,0.0,0.0,0.0,0.0,0.0,0.0,0.0,0.0,0.0,0.0,0.0,0.0,-0.6395,-0.6248,-0.6387,-0.6811,-0.8194,-0.9452,-1.0513,-1.1533,-1.2419,-1.312,-1.3327,-1.2876,-1.1859,-1.1249,-1.0731,-1.0364,0.0,0.0,0.0,0.0,0.0,0.0,0.0,0.0,0.0,0.0,0.0,0.0,-0.6538,-0.7651,-0.8805,-0.8912,0.0,0.0,0.0,0.0,0.0,-0.8514,-0.947,-1.0097,-0.8233,-0.8312,-0.8893,-0.9115,-0.8809,-0.8667,-0.9324,-0.9787,-1.0276,-1.1102,-1.177,-1.2432,-1.32,0.0,-1.501,0.0,0.0,-1.6359,0.0,0.0,0.0,0.0,0.0,0.0,0.0,0.0,0.0,0.0,0.0,0.0,-1.2951,-1.1517,-1.1498,-1.3003,-1.5332,-1.6612,-1.6774,-1.6774,-1.662,-1.6339,-1.6342,-1.6139,0.0,0.0,-1.5784,-1.5784,-1.5784,-1.5784,-1.5784,-1.5784,-1.5784,-1.5784,-1.5784,-1.592,-1.6386,0.0,0.0,0.0,0.0,0.0,0.0,0.0,0.0,0.0,0.0,0.0,0.0,0.0,0.0,0.0,0.0,0.0,0.0,0.0,0.0,0.0,-0.6898,-0.772,-0.8253,-0.8409,-0.9451,-1.05,-1.1523,-1.2362,-1.3007,-1.3395,-1.3067,-1.2455,-1.161,-1.1029,-1.0722,-1.0555,-1.0161,0.0,0.0,0.0,0.0,0.0,0.0,0.0,0.0,0.0,0.0,0.0,0.0,-0.7955,-0.9259,-0.9078,0.0,0.0,0.0,0.0,0.0,-0.8238,-0.9277,-1.02,-0.8944,-0.9704,-1.0664,-1.0186,-1.0109,-1.0155,-1.0358,-1.0621,-1.0962,-1.1557,-1.2285,-1.3186,-1.4396,0.0,-1.5344,-1.5718,-1.6086,0.0,0.0,0.0,0.0,0.0,0.0,0.0,0.0,0.0,0.0,0.0,0.0,0.0,0.0,-1.1944,-1.1549,-1.2243,-1.4181,-1.5607,-1.6473,-1.6473,-1.6319,-1.6032,-1.6032,-1.5959,-1.5784,0.0,-1.5784,-1.5784,-1.5784,-1.5784,-1.5784,-1.5784,-1.5784,-1.5784,-1.5784,-1.5784,-1.6055,0.0,0.0,0.0,0.0,0.0,0.0,0.0,0.0,0.0,0.0,0.0,0.0,0.0,0.0,0.0,0.0,0.0,0.0,0.0,0.0,-0.6805,-0.7232,-0.8806,-0.978,-0.9988,-1.0603,-1.1422,-1.249,-1.2984,-1.3326,-1.349,-1.27,-1.1982,-1.1383,-1.0896,-1.0665,-1.0593,-1.0593,-0.9584,0.0,0.0,0.0,0.0,0.0,0.0,0.0,0.0,0.0,0.0,0.0,0.0,0.0,0.0,0.0,0.0,-0.8958,-0.8804,-0.8705,-0.8284,-0.9115,-0.9975,-0.9482,-1.0657,-1.1725,-1.1002,-1.1144,-1.1409,-1.1503,-1.163,-1.1824,-1.2167,-1.2913,0.0,-1.519,-1.5451,-1.5578,-1.5751,0.0,0.0,0.0,0.0,0.0,0.0,0.0,0.0,0.0,0.0,0.0,0.0,0.0,0.0,0.0,-1.3049,-1.2382,-1.2382,-1.306,-1.4226,-1.5722,-1.602,-1.6052,-1.5784,-1.5784,-1.5784,-1.5784,-1.5784,-1.5784,-1.5784,-1.5784,-1.5784,-1.5784,-1.5784,-1.5784,-1.5784,-1.5784,-1.5784,-1.5967,0.0,0.0,0.0,0.0,0.0,0.0,0.0,0.0,0.0,0.0,0.0,0.0,0.0,0.0,0.0,0.0,0.0,0.0,0.0,0.0,-0.6806,-0.7628,-0.8978,-1.0065,-1.0892,-1.151,-1.2234,-1.3142,-1.3172,-1.32,-1.3218,-1.2584,-1.1976,-1.1377,-1.111,-1.0833,-1.0593,-1.0593,-0.9606,-0.7972,0.0,0.0,0.0,0.0,0.0,0.0,0.0,0.0,0.0,0.0,0.0,0.0,0.0,0.0,-0.9184,-0.8898,-0.8804,-0.8898,-0.9416,-0.983,-1.015,-1.043,-1.0608,-1.0962,-1.1952,-1.1759,-1.1702,-1.2826,-1.2878,-1.2784,-1.3053,-1.3834,-1.4636,-1.5291,-1.5625,-1.5758,0.0,0.0,0.0,0.0,0.0,0.0,0.0,0.0,0.0,0.0,0.0,0.0,0.0,0.0,0.0,0.0,0.0,-1.3776,-1.3776,-1.2619,-1.2727,-1.41,-1.5274,-1.5804,-1.5784,-1.5784,-1.5784,-1.5784,-1.5784,-1.5784,-1.5784,-1.5784,-1.5784,-1.5784,-1.5784,-1.5784,-1.5784,-1.5784,-1.5784,-1.5967,0.0,0.0,0.0,0.0,0.0,0.0,0.0,0.0,0.0,0.0,0.0,0.0,0.0,0.0,0.0,0.0,0.0,0.0,0.0,-0.6143,-0.7265,-0.798,-0.9452,-1.0583,-1.1218,-1.2045,-1.2604,-1.2965,-1.3133,-1.3106,-1.2928,-1.2337,-1.1824,-1.1391,-1.094,-1.0673,-1.0579,-1.0369,-0.9325,-0.7787,-0.7404,0.0,0.0,0.0,0.0,0.0,0.0,0.0,0.0,0.0,-0.8133,-0.9149,-0.8884,-0.8978,-0.9158,-0.8865,-0.8804,-0.8858,-0.9078,-0.9753,-1.0452,-1.0566,-1.0861,-1.1356,-1.2388,-1.2839,-1.326,-1.3895,-1.3935,-1.3888,-1.4001,-1.4449,-1.493,-1.5331,-1.5645,0.0,0.0,0.0,0.0,0.0,0.0,0.0,0.0,0.0,0.0,0.0,0.0,0.0,0.0,0.0,0.0,0.0,0.0,-1.3488,-1.2668,-1.2963,-1.2963,-1.2673,-1.3974,-1.5045,-1.5784,-1.5784,-1.5784,-1.5784,-1.5784,-1.5784,-1.5784,-1.5784,-1.5784,-1.5784,-1.5784,-1.5784,-1.5784,-1.5784,-1.5784,-1.5967,0.0,0.0,0.0,0.0,0.0,0.0,0.0,0.0,0.0,0.0,0.0,0.0,0.0,0.0,0.0,0.0,0.0,0.0,-0.4648,-0.6262,-0.7424,-0.7822,-0.9507,-1.0594,-1.0965,-1.1885,-1.2453,-1.2655,-1.2814,-1.2775,-1.2512,-1.1969,-1.1627,-1.1363,-1.0916,-1.0733,-1.0713,-1.0274,-0.9168,-0.7663,-0.7264,-0.6133,0.0,0.0,0.0,0.0,0.0,0.0,0.0,0.0,-0.8296,-0.9044,-0.8871,-0.8918,-0.9038,-0.8864,-0.8871,-0.8918,-0.8918,-0.9599,-1.0358,-1.0546,-1.0995,-1.1703,-1.2786,-1.3434,-1.4001,-1.4663,-1.4723,-1.4663,-1.4663,-1.4874,0.0,0.0,0.0,0.0,0.0,0.0,0.0,0.0,0.0,0.0,0.0,0.0,0.0,0.0,0.0,0.0,0.0,0.0,0.0,0.0,0.0,-1.425,-1.2528,-1.3006,-1.3006,-1.2528,-1.3006,-1.4172,-1.5784,-1.5784,-1.5784,-1.5784,-1.5784,-1.5784,-1.5784,-1.5784,-1.5784,-1.5784,-1.5784,-1.5784,-1.5784,-1.5784,-1.5784,-1.592,0.0,0.0,0.0,0.0,0.0,0.0,0.0,0.0,0.0,0.0,0.0,0.0,0.0,0.0,0.0,0.0,0.0,0.0,-0.4519,-0.6145,-0.7093,-0.7101,-0.9011,-1.0097,-1.0113,-1.0957,-1.169,-1.2299,-1.2282,-1.2154,-1.187,-1.1537,-1.1392,-1.1368,-1.1136,-1.0989,-1.095,-1.0345,-0.9156,-0.7645,-0.7244,-0.6134,0.0,0.0,0.0,0.0,0.0,0.0,0.0,0.0,-0.8209,-0.8804,-0.8804,-0.8811,-0.8811,-0.8804,-0.8984,-0.9211,-0.9211,-0.9459,-0.9869,-1.0452,-1.1048,-1.183,-1.3267,-1.3387,-1.3634,-1.5104,-1.5216,-1.5008,-1.5015,-1.5015,0.0,-1.5351,0.0,0.0,0.0,0.0,0.0,0.0,0.0,0.0,0.0,0.0,0.0,0.0,0.0,0.0,0.0,0.0,0.0,0.0,0.0,0.0,-1.3926,-1.2576,-1.2576,-1.383,-1.2528,-1.3301,-1.5784,-1.5784,-1.5784,-1.5784,-1.5784,-1.5784,-1.5784,-1.5784,-1.5784,-1.5784,-1.5784,-1.5784,-1.5784,-1.5784,-1.5784,-1.5784,0.0,0.0,0.0,0.0,0.0,0.0,0.0,0.0,0.0,0.0,0.0,0.0,0.0,0.0,0.0,0.0,0.0,0.0,-0.5164,-0.6178,-0.7082,-0.7849,-0.8903,-0.9572,-0.9827,-1.0248,-1.0887,-1.1655,-1.1482,-1.1326,-1.1255,-1.1163,-1.1008,-1.0837,-1.0961,-1.0663,-1.0059,-0.9882,-0.8845,-0.7241,-0.6883,-0.5858,0.0,0.0,0.0,0.0,0.0,0.0,0.0,0.0,0.0,0.0,-0.8804,-0.8918,-0.9044,-0.8871,-0.8984,-0.9211,-0.9211,-0.9877,-1.0695,-1.1076,-1.2749,-1.4214,-1.4008,-1.4048,-1.4429,-1.5438,-1.6137,-1.6276,-1.5447,-1.5973,0.0,0.0,0.0,0.0,0.0,0.0,0.0,0.0,0.0,0.0,0.0,0.0,0.0,0.0,0.0,0.0,0.0,0.0,0.0,0.0,0.0,0.0,-1.2528,-1.3006,-1.2571,-1.1161,-1.2619,-1.4172,-1.5784,-1.5784,-1.5784,-1.5784,-1.5784,-1.5784,-1.5784,-1.5784,-1.5784,-1.5784,-1.5784,-1.5784,-1.5784,-1.5784,-1.5784,-1.5784,0.0,0.0,0.0,0.0,0.0,0.0,0.0,0.0,0.0,0.0,-0.6783,0.0,0.0,0.0,0.0,0.0,0.0,0.0,0.0,-0.6199,-0.703,-0.7952,-0.867,-0.9173,-0.9508,-0.979,-1.0117,-1.0516,-1.0584,-1.0655,-1.0659,-1.0774,-1.0825,-1.0783,-1.0916,-1.0659,-1.0052,-0.9791,-0.8705,-0.7062,-0.6748,-0.5768,-0.4491,0.0,0.0,0.0,0.0,0.0,0.0,0.0,0.0,0.0,-0.8804,-0.8898,-0.9031,-0.8971,-0.9398,-0.9848,-0.9787,-1.0995,-1.2343,-1.2543,-1.4253,-1.5802,-1.5612,-1.5583,-1.5742,-1.6434,-1.7316,-1.7793,-1.7126,-1.753,0.0,0.0,0.0,0.0,0.0,0.0,0.0,0.0,0.0,0.0,0.0,0.0,0.0,0.0,0.0,0.0,0.0,0.0,0.0,0.0,0.0,0.0,-1.1945,-1.2716,-1.2037,-0.9998,-1.1989,-1.3625,-1.4886,-1.5528,-1.5784,-1.5784,-1.5784,-1.5718,-1.5658,-1.5658,-1.5585,-1.5484,-1.5484,-1.5484,-1.5484,-1.5484,-1.5484,-1.5504,0.0,0.0,0.0,0.0,0.0,0.0,0.0,0.0,0.0,0.0,-0.7058,-0.6312,0.0,0.0,0.0,0.0,0.0,0.0,0.0,0.0,-0.6966,-0.7777,-0.8505,-0.8984,-0.9244,-0.9546,-0.9539,-0.9211,-0.9751,-1.0032,-1.0042,-1.0394,-1.0659,-1.0884,-1.0948,-1.0784,-1.0437,-0.9895,-0.8652,-0.703,-0.6733,-0.5748,-0.4491,-0.4491,0.0,0.0,0.0,0.0,0.0,0.0,0.0,0.0,-0.8804,-0.8824,-0.8865,-0.9104,-0.9939,-1.0762,-1.0695,-1.2332,-1.4111,-1.4462,-1.5557,-1.6804,-1.778,-1.7731,-1.7515,-1.7712,-1.852,-1.9232,-1.9377,-1.9268,0.0,0.0,0.0,0.0,0.0,0.0,0.0,0.0,0.0,0.0,0.0,0.0,0.0,0.0,0.0,0.0,0.0,0.0,0.0,0.0,0.0,0.0,-1.1884,-1.1836,-1.1162,0.0,-1.0815,-1.1989,-1.3275,-1.4948,-1.5752,-1.5752,-1.5752,-1.5605,-1.5357,-1.5357,-1.5204,-1.5008,-1.5008,-1.5008,-1.5008,-1.5008,-1.5008,-1.5042,0.0,0.0,0.0,0.0,0.0,0.0,0.0,0.0,0.0,0.0,0.0,0.0,0.0,0.0,0.0,0.0,0.0,0.0,0.0,0.0,-0.7182,-0.8507,-0.9162,-0.9526,-0.9586,-0.9653,-0.9539,-0.9211,-0.9317,-0.939,-0.941,-0.9948,-1.0122,-0.9988,-1.0474,-1.0241,-0.9482,-0.9363,-0.8293,-0.6707,-0.6623,-0.5768,-0.4491,-0.4491,-0.4598,0.0,0.0,0.0,0.0,0.0,0.0,0.0,-0.8804,-0.8938,-0.9084,-0.8918,-0.9404,-1.0154,-1.107,-1.1649,-1.2586,-1.492,-1.6499,-1.787,-1.9232,-1.9476,-1.9144,-1.8289,-1.9014,-1.9539,-1.863,0.0,0.0,0.0,0.0,0.0,0.0,0.0,0.0,0.0,0.0,0.0,0.0,0.0,0.0,0.0,0.0,0.0,0.0,0.0,0.0,0.0,0.0,-1.5206,-1.1471,-1.1424,-1.0309,0.0,-0.9328,-1.0552,-1.1815,-1.4143,-1.515,-1.515,-1.515,-1.5162,-1.5102,-1.5102,-1.5068,-1.5008,-1.5008,-1.5008,-1.5008,-1.5008,-1.5008,-1.5015,0.0,0.0,0.0,0.0,0.0,0.0,0.0,0.0,0.0,0.0,0.0,0.0,0.0,0.0,0.0,0.0,0.0,0.0,0.0,-0.6939,-0.7616,-0.8752,-0.9232,-0.9406,-0.9265,-0.9399,-0.9297,-0.9004,-0.9004,-0.9166,-0.9459,-1.0066,-1.0327,-1.0316,-1.0526,-1.0231,-0.962,-0.9312,-0.8181,-0.6588,-0.6598,-0.575,-0.4484,-0.4385,-0.4616,-0.5101,-0.6144,0.0,0.0,0.0,0.0,0.0,0.0,0.0,-0.9086,-0.9408,-1.0,-1.0788,-1.1844,-1.2688,-1.387,-1.6447,-1.7967,-1.9074,-2.0049,-2.0304,-2.0101,-1.9479,-2.0168,-2.0736,-2.0105,0.0,0.0,0.0,0.0,0.0,0.0,0.0,0.0,0.0,0.0,0.0,0.0,0.0,0.0,0.0,0.0,0.0,0.0,0.0,0.0,0.0,-1.5956,-1.3859,-1.1329,-1.0726,-0.9486,-0.7597,-0.8752,-1.0198,-1.1854,-1.4008,-1.5008,-1.5008,-1.5008,-1.4928,-1.475,-1.475,-1.4669,-1.4586,-1.4586,-1.4586,-1.4586,-1.4586,-1.4586,-1.4606,0.0,0.0,0.0,0.0,0.0,0.0,0.0,0.0,0.0,0.0,0.0,0.0,0.0,0.0,0.0,0.0,0.0,0.0,0.0,-0.7477,-0.818,-0.8851,-0.9084,-0.9124,-0.8965,-0.9118,-0.9091,-0.8858,-0.8858,-0.9315,-1.0127,-1.035,-1.0593,-1.0842,-1.0575,-1.0288,-0.9977,-0.9378,-0.8145,-0.656,-0.656,-0.5698,-0.4402,-0.4227,-0.4669,-0.5481,-0.6103,-0.6888,-0.7738,-0.8488,0.0,0.0,0.0,0.0,-0.8909,-0.9829,-1.0546,-1.1285,-1.2352,-1.3929,-1.5761,-1.7768,-1.8901,-1.9704,-2.0264,-2.038,-2.038,-2.038,-2.1085,-2.1701,0.0,0.0,0.0,0.0,0.0,0.0,0.0,0.0,0.0,0.0,0.0,0.0,0.0,0.0,0.0,0.0,0.0,0.0,0.0,0.0,-1.7712,-1.6633,-1.4497,-1.2671,-1.1212,-1.02,-0.8974,-0.7519,-0.8556,-1.0078,-1.204,-1.3768,-1.467,-1.4861,-1.4861,-1.4676,-1.4442,-1.4442,-1.4302,-1.4088,-1.4088,-1.4088,-1.4088,-1.4088,-1.4088,-1.4122,0.0,0.0,0.0,0.0,0.0,0.0,0.0,0.0,0.0,0.0,-0.7509,-0.6588,-0.6588,-0.5336,0.0,0.0,0.0,0.0,-0.745,0.0,0.0,-0.9144,-0.9191,-0.9317,-0.9566,-0.9324,-0.9191,-0.9158,-0.9158,-1.008,-1.1836,-1.0457,-0.9953,-1.0221,-0.995,-0.979,-0.9706,-0.9098,-0.7925,-0.6427,-0.6427,-0.5468,-0.4077,-0.4031,-0.4436,-0.5073,-0.5785,-0.6618,-0.7471,-0.8196,-0.8597,0.0,0.0,0.0,-0.8563,-0.9163,-0.927,-0.9559,-1.1422,-1.3582,-1.5602,-1.6866,-1.7678,-1.8406,-1.925,-1.9453,-1.9453,0.0,-2.0184,0.0,0.0,0.0,0.0,0.0,0.0,0.0,0.0,0.0,0.0,0.0,0.0,0.0,0.0,0.0,0.0,0.0,0.0,0.0,0.0,-1.8053,-1.6949,-1.5872,-1.4641,-1.293,-1.0702,-1.0522,-0.9345,-0.72,-0.8368,-0.9602,-1.0869,-1.2098,-1.3224,-1.4202,-1.4202,-1.4182,-1.4142,-1.4142,-1.4122,-1.4088,-1.4088,-1.4088,-1.4088,-1.4088,-1.4088,-1.4095,0.0,0.0,0.0,0.0,0.0,0.0,0.0,0.0,0.0,0.0,0.0,-0.6588,-0.6588,-0.5336,0.0,0.0,0.0,0.0,-0.8209,-0.8619,0.0,0.0,-0.8971,-0.9058,-0.9192,-0.8905,-0.9009,-0.9541,-0.9389,-1.0387,-1.2397,-1.1278,-1.13,-1.2205,-1.1595,-1.0904,-1.0144,-0.9198,-0.7923,-0.6512,-0.6432,-0.5628,-0.4449,-0.4053,-0.448,-0.5335,-0.5697,-0.6333,-0.7161,-0.8079,-0.8489,-0.8564,-0.8564,0.0,0.0,0.0,-0.9389,-0.9747,-1.1757,-1.3477,-1.4871,-1.5782,-1.6661,-1.7496,-1.8312,-1.8912,-1.9287,-1.9287,0.0,0.0,0.0,0.0,0.0,0.0,0.0,0.0,0.0,0.0,0.0,0.0,0.0,0.0,0.0,0.0,0.0,0.0,0.0,0.0,-1.8101,-1.7009,-1.591,-1.4852,-1.3063,-1.1649,-1.0611,-0.9314,-0.8141,-0.7095,-0.7621,-0.8838,-1.0611,-1.1128,-1.2339,-1.4088,-1.4088,-1.4088,-1.4088,-1.4088,-1.4088,-1.4088,-1.4088,-1.4088,-1.4088,-1.4088,-1.4088,-1.4088,0.0,0.0,0.0,0.0,0.0,0.0,0.0,0.0,0.0,0.0,0.0,0.0,-0.634,0.0,0.0,0.0,0.0,0.0,-0.8487,0.0,0.0,0.0,0.0,-0.8804,-0.8804,-0.8549,-0.8799,-0.9643,-0.9472,-1.0643,-1.3024,-1.2419,-1.2925,-1.4312,-1.2911,-1.1603,-1.0412,-0.9432,-0.8154,-0.6763,-0.6594,-0.5829,-0.4778,-0.4549,-0.5126,-0.6046,-0.6217,-0.6764,-0.7517,-0.8162,-0.8402,-0.8402,-0.8402,-0.8295,0.0,0.0,0.0,-1.0038,-1.1833,-1.2774,-1.3464,-1.4416,-1.5331,-1.6221,-1.7125,-1.8097,-1.8838,0.0,0.0,0.0,0.0,0.0,0.0,0.0,0.0,0.0,0.0,0.0,0.0,0.0,0.0,0.0,0.0,0.0,0.0,0.0,0.0,0.0,-1.7077,-1.6058,-1.4974,-1.3903,-1.1935,-1.0741,-1.0439,-0.8139,-0.6984,-0.6984,-0.6984,-0.8053,-1.0056,-1.0311,-1.155,-1.3528,-1.3931,-1.4088,-1.4082,-1.4008,-1.4021,-1.4082,-1.4001,-1.3975,-1.3981,-1.4055,-1.4041,-1.3981,0.0,0.0,0.0,0.0,0.0,0.0,0.0,0.0,0.0,0.0,0.0,0.0,-0.5624,-0.5487,-0.5632,-0.6118,0.0,0.0,0.0,0.0,0.0,0.0,0.0,0.0,-0.8804,-0.8549,-0.867,-0.9242,-0.9343,-1.1078,-1.4275,-1.3743,-1.428,-1.558,-1.271,-1.0955,-1.012,-0.978,-0.8712,-0.7228,-0.6987,-0.5931,-0.465,-0.5806,-0.6652,-0.7272,-0.7651,-0.8336,-0.901,-0.855,-0.8402,-0.8402,-0.8402,-0.8,-0.7643,0.0,0.0,0.0,-1.0956,-1.0937,-1.1014,-1.2777,-1.3488,-1.4134,-1.5509,0.0,-1.7598,0.0,0.0,0.0,0.0,0.0,0.0,0.0,0.0,0.0,0.0,0.0,0.0,0.0,0.0,0.0,0.0,0.0,0.0,0.0,0.0,0.0,-1.6324,-1.5374,-1.4355,-1.3293,-1.2191,-1.1082,-0.9933,-0.7785,-0.6722,-0.6722,-0.6722,-0.7334,-0.855,-0.9486,-1.0627,-1.1894,-1.3461,-1.4088,-1.4068,-1.374,-1.3793,-1.4055,-1.3733,-1.3626,-1.366,-1.3981,-1.3908,-1.3666,0.0,0.0,0.0,0.0,0.0,0.0,0.0,0.0,0.0,0.0,0.0,0.0,0.0,-0.5787,-0.5681,-0.6154,-0.7102,0.0,0.0,0.0,0.0,0.0,0.0,0.0,-0.9044,-0.8756,-0.9085,-1.0109,-0.9933,-1.1205,-1.3812,-1.3199,-1.3313,-1.3991,-1.2738,-1.1616,-1.0608,-0.9566,-0.838,-0.7141,-0.6966,-0.6558,-0.6072,-0.6302,-0.7347,-0.8684,-0.8539,-0.8675,-0.8931,-0.8911,-0.8684,-0.8368,-0.815,-0.7943,-0.7804,-0.7975,-0.8784,-0.9742,-1.0234,-1.0197,-1.0381,-1.194,-1.2484,-1.2978,-1.4301,-1.5616,-1.6613,0.0,0.0,0.0,0.0,0.0,0.0,0.0,0.0,0.0,0.0,0.0,0.0,0.0,0.0,0.0,0.0,0.0,0.0,0.0,0.0,0.0,-1.6249,-1.5211,-1.4233,-1.3246,-1.145,-0.9665,-0.7877,-0.7067,-0.6702,-0.6702,-0.6702,-0.7308,-0.8438,-0.9452,-1.0554,-1.1754,-1.2977,-1.3527,-1.3514,-1.3407,-1.3427,-1.3514,-1.3407,-1.3327,-1.338,-1.3487,-1.3574,-1.3593,0.0,0.0,0.0,0.0,0.0,0.0,0.0,0.0,-1.0305,-0.8935,0.0,0.0,0.0,0.0,-0.6373,-0.6742,-0.738,-0.7712,-0.7612,-0.7692,0.0,0.0,0.0,0.0,-0.9026,-0.8912,-0.9342,-1.0365,-1.0191,-1.1131,-1.3036,-1.2419,-1.2383,-1.283,-1.1982,-1.1333,-1.0864,-1.0112,-0.8943,-0.7593,-0.735,-0.7216,-0.7122,-0.7293,-0.8394,-0.978,-0.9698,-0.967,-0.9666,-0.9537,-0.9118,-0.8597,-0.8203,-0.7846,-0.7639,-0.7836,-0.847,-0.9165,-0.9429,-0.9392,-0.9604,-1.0839,-1.1354,-1.1922,-1.3371,-1.4588,-1.5566,0.0,0.0,0.0,0.0,0.0,0.0,0.0,0.0,0.0,0.0,0.0,0.0,0.0,0.0,0.0,0.0,0.0,0.0,0.0,0.0,0.0,-1.6365,-1.5059,-1.3557,-1.1955,-1.0482,-0.8697,-0.6593,-0.6552,-0.6552,-0.6552,-0.6552,-0.7149,-0.8218,-0.925,-1.0319,-1.1435,-1.2467,-1.3019,-1.32,-1.3093,-1.312,-1.32,-1.3093,-1.3053,-1.3066,-1.3173,-1.3267,-1.3333,0.0,0.0,0.0,0.0,0.0,0.0,0.0,0.0,-1.0297,-0.8914,0.0,0.0,0.0,0.0,0.0,-0.7894,-0.7649,-0.7363,-0.7033,-0.7316,0.0,0.0,0.0,0.0,-0.8734,-0.8996,-0.9375,-0.9911,-1.0038,-1.0811,-1.2151,-1.1622,-1.1746,-1.2299,-1.0467,-1.0016,-1.0721,-1.1413,-1.0497,-0.8563,-0.8155,-0.7811,-0.7711,-0.8867,-0.9776,-1.0527,-1.1197,-1.1409,-1.1262,-1.041,-0.9724,-0.9124,-0.855,-0.7749,-0.7118,-0.7704,-0.7885,-0.8004,0.0,0.0,0.0,-0.946,-1.0034,0.0,-1.2654,0.0,-1.4416,0.0,0.0,0.0,0.0,0.0,0.0,0.0,0.0,0.0,0.0,0.0,0.0,0.0,0.0,0.0,0.0,0.0,0.0,0.0,0.0,-1.6618,-1.6584,-1.4756,-1.2325,-0.9362,-0.9296,-0.8351,-0.6338,-0.63,-0.63,-0.63,-0.6338,-0.6872,-0.7821,-0.8879,-0.9895,-1.0864,-1.1848,-1.2639,-1.316,-1.2898,-1.2951,-1.3153,-1.2891,-1.2808,-1.2811,-1.3073,-1.2999,-1.2831,0.0,0.0,0.0,0.0,0.0,-1.2642,-1.1922,-1.1241,-1.0483,0.0,0.0,0.0,-0.7429,-0.7396,-0.765,-0.8214,-0.7792,-0.7457,-0.737,-0.7221,-0.7415,-0.8055,-0.8283,-0.8773,-0.9548,-0.9641,-0.9858,-1.0192,-1.0231,-1.059,-1.1258,-1.1118,-1.1316,-1.1792,-1.1178,-1.0562,-0.9945,-0.9253,-0.8938,-0.8812,-0.808,-0.8524,-0.9609,-0.9711,-1.0569,-1.1793,-1.1976,-1.1784,-1.1355,-1.1109,-1.0394,-0.9385,-0.8345,-0.7729,-0.7345,-0.7278,-0.7561,-0.7831,-0.7546,0.0,0.0,0.0,0.0,0.0,0.0,0.0,0.0,0.0,0.0,0.0,0.0,0.0,0.0,0.0,0.0,0.0,0.0,0.0,0.0,0.0,0.0,0.0,0.0,0.0,0.0,0.0,-1.748,-1.6844,-1.6134,-1.4282,-1.1944,-0.9038,-0.9168,-0.8351,-0.6338,-0.63,-0.63,-0.63,-0.7022,-0.7518,-0.7859,-0.9588,-1.0527,-1.0864,-1.1848,-1.2398,-1.2545,-1.2458,-1.2472,-1.2545,-1.2458,-1.2425,-1.2438,-1.2518,-1.2677,-1.2764,0.0,0.0,0.0,-1.2905,-1.2905,-1.2774,-1.232,-1.1425,-1.0661,0.0,0.0,0.0,-0.8156,-0.8019,-0.8056,-0.8383,-0.796,-0.7625,-0.752,-0.7188,-0.7334,-0.8104,-0.834,-0.8863,-0.9709,-0.9965,-1.0138,-1.0303,-1.0303,-1.043,-1.0645,-1.0645,-1.0659,-1.0618,-1.0248,-0.9677,-0.8972,-0.784,-0.7898,-0.8726,-0.8545,-0.9188,-1.0277,-1.0277,-1.1044,-1.2138,0.0,0.0,-1.177,-1.165,-1.0755,-0.9526,-0.8591,-0.8003,-0.7629,-0.7433,-0.7626,-0.7832,-0.7473,-0.7639,-0.8095,-0.8934,0.0,0.0,0.0,-1.191,0.0,0.0,0.0,0.0,0.0,0.0,0.0,0.0,0.0,0.0,0.0,0.0,0.0,0.0,0.0,0.0,0.0,0.0,0.0,0.0,-1.7246,-1.6691,-1.5695,-1.4294,-1.2213,-0.9316,-0.9078,-0.806,-0.6105,-0.6108,-0.6108,-0.6105,-0.7066,-0.7731,-0.8171,-0.9739,-1.0647,-1.1092,-1.1804,-1.2124,-1.2131,-1.2251,-1.2305,-1.2305,-1.2305,-1.2305,-1.2305,-1.2305,-1.2412,-1.2569,0.0,0.0,-1.2846,-1.2895,-1.2905,-1.2881,-1.2798,-1.1658,-1.0762,0.0,-0.9588,-0.8804,-0.8804,-0.8804,-0.8704,-0.8469,-0.8165,-0.7879,-0.7641,-0.7294,-0.7398,-0.8057,-0.848,-0.8978,-0.9578,-1.0059,-1.0303,-1.0303,-1.0303,-1.0273,-1.0215,-1.0215,-0.9886,-0.9236,-0.8519,-0.8155,-0.8026,-0.7148,-0.7407,-0.8459,-0.9144,-0.9741,-1.0276,0.0,-1.1302,-1.1986,-1.2204,-1.2305,-1.2245,-1.1926,-1.0941,-0.9706,-0.9025,-0.8445,-0.8032,-0.7939,-0.7952,-0.7992,-0.7925,-0.7932,-0.8099,-0.8689,-0.8941,0.0,-1.0935,-1.1346,-1.1759,0.0,0.0,0.0,0.0,0.0,0.0,0.0,0.0,0.0,0.0,0.0,0.0,0.0,0.0,0.0,0.0,0.0,-1.6697,-1.6697,-1.6658,-1.617,-1.5099,-1.4391,-1.268,-0.9708,-0.8943,-0.7712,-0.5803,-0.58,-0.5835,-0.5943,-0.6833,-0.7783,-0.8764,-0.9672,-1.0544,-1.1409,-1.171,-1.1859,-1.1873,-1.2098,-1.2245,-1.2305,-1.2305,-1.2305,-1.2305,-1.2305,-1.2305,-1.2305,0.0,-1.2598,-1.2471,-1.2822,-1.2905,-1.2691,-1.2104,-1.1316,-1.0618,-1.0064,-0.9283,-0.8804,-0.8804,-0.8804,-0.8784,-0.8731,-0.8616,-0.8517,-0.8475,-0.7997,-0.8172,-0.9139,-0.8878,-0.9159,-1.0118,-1.0244,-1.0303,-1.0303,-1.0303,-1.0107,-0.9737,-0.9737,-0.9498,-0.9038,-0.845,-0.8144,-0.8004,-0.7864,-0.8038,-0.8424,-0.8782,-0.9827,-1.1169,-1.1242,-1.1673,-1.2225,-1.2278,-1.2305,-1.2184,-1.1423,-1.0975,-1.0514,0.0,-0.8865,-0.8818,-0.8112,-0.8238,-0.8505,-0.8032,-0.8103,-0.8316,-0.8407,-0.8595,0.0,-1.0109,-1.0291,-1.0551,0.0,0.0,0.0,0.0,0.0,0.0,0.0,0.0,0.0,0.0,0.0,0.0,0.0,0.0,0.0,0.0,0.0,-1.6697,-1.6697,-1.6396,-1.5407,-1.354,-1.3487,-1.1992,-0.8617,-0.8563,-0.7712,-0.5803,-0.58,-0.6158,-0.6869,-0.7854,-0.8764,-0.9667,-1.0648,-1.1211,-1.1395,-1.1455,-1.151,-1.1482,-1.1535,-1.1877,-1.2305,-1.2305,-1.2305,-1.2305,-1.2305,-1.2305,-1.2305,-1.2201,-1.2402,-1.2559,-1.2559,-1.2734,-1.2774,-1.2403,-1.1475,-1.0726,-1.0575,-0.9649,-0.8944,-0.8824,-0.9113,-0.9309,-0.9309,-0.9464,-0.9447,-0.9205,-0.881,-0.8865,-0.9468,-0.9239,-0.9478,-1.0283,-1.0303,-1.0303,-1.0303,-1.0068,-0.9825,-0.9592,-0.9396,-0.9299,-0.9271,-0.8597,-0.838,-0.8521,-0.8148,-0.8148,-0.8462,-0.9165,0.0,-1.1022,-1.1316,-1.1575,-1.1864,-1.1864,-1.1864,-1.1757,-1.1055,-1.0675,0.0,-0.9519,-0.9217,-0.9124,0.0,-0.8765,-0.8898,-0.8465,-0.8477,-0.856,-0.8389,0.0,0.0,0.0,-0.9779,-1.0072,-1.1018,0.0,0.0,0.0,0.0,0.0,0.0,0.0,0.0,0.0,0.0,0.0,0.0,0.0,0.0,0.0,0.0,-1.585,-1.6034,-1.5498,-1.4701,-1.3644,-1.298,-1.1411,-0.8783,-0.8425,-0.7448,-0.5617,-0.5617,-0.6024,-0.6903,-0.7855,-0.8767,-0.9644,-1.0553,-1.0995,-1.1002,-1.1149,-1.1209,-1.1223,-1.1329,-1.1568,-1.1864,-1.1864,-1.1957,-1.2064,-1.1917,-1.1957,-1.2064,-1.1655,-1.2162,-1.2543,-1.2158,-1.2539,-1.2779,-1.2439,-1.149,-1.0792,-1.083,-1.0026,-0.9364,-0.9151,-0.9735,-1.0168,-1.0229,-1.0425,-1.0432,-1.0126,-0.9705,-0.9528,-0.9693,-0.958,-0.9657,-0.9981,-1.0118,-1.0098,-0.9934,-0.9633,-0.9455,-0.9367,-0.9104,-0.9123,-0.9349,-0.8849,-0.8756,-0.8947,-0.8429,-0.8336,-0.8631,0.0,-1.018,-1.0492,-1.1102,-1.1309,-1.1315,-1.1369,-1.1389,-1.1336,-1.0787,-1.0432,-1.0134,-0.9726,-0.9484,0.0,0.0,0.0,-0.9224,-0.8905,-0.8844,-0.8804,0.0,0.0,-0.9202,0.0,0.0,0.0,-1.0426,0.0,0.0,0.0,0.0,0.0,0.0,0.0,0.0,0.0,0.0,0.0,0.0,0.0,0.0,0.0,0.0,-1.4717,-1.5137,-1.436,-1.3875,-1.385,-1.2492,-1.0864,-0.9027,-0.8329,-0.7153,-0.5428,-0.5395,-0.5914,-0.6948,-0.7665,-0.8549,-0.9562,-1.0269,-1.0593,-1.0606,-1.0841,-1.0909,-1.0929,-1.1162,-1.1263,-1.1269,-1.1349,-1.1577,-1.1757,-1.1516,-1.1577,-1.1785,-1.1538,-1.1685,-1.1734,-1.1685,-1.2347,-1.2372,-1.074,-1.0665,-1.0379,-0.9234,-0.9814,-1.0346,-1.0309,-1.091,-1.144,-1.1798,-1.1402,-1.1253,-1.155,-1.0588,-1.0157,-1.0463,-0.9857,-0.9299,-0.8898,-0.9403,-0.9341,-0.8618,-0.8919,-0.8887,-0.8541,-0.8848,-0.8838,-0.8561,-0.9196,-0.912,-0.8597,-0.9105,-0.9242,0.0,-0.9573,-0.9782,0.0,-1.0722,-1.1042,-1.1076,-1.1295,-1.1389,-1.1336,0.0,-1.0566,-1.0399,0.0,-0.9597,-0.9837,-0.9085,0.0,0.0,0.0,0.0,0.0,0.0,-0.881,0.0,0.0,0.0,-0.9329,-0.9588,0.0,0.0,0.0,0.0,0.0,0.0,0.0,0.0,0.0,0.0,0.0,0.0,0.0,0.0,0.0,0.0,0.0,-1.4221,-1.328,-1.266,-1.2622,-1.1807,-1.038,-0.8205,-0.8054,-0.7153,-0.5428,-0.5395,-0.621,-0.7859,-0.7962,-0.8871,-1.046,-1.0555,-1.0593,-1.0593,-1.0626,-1.064,-1.064,-1.0673,-1.0687,-1.074,-1.1223,-1.1415,-1.1435,-1.1402,-1.1415,-1.1435,-1.0753,-1.1263,-1.1506,-1.1252,-1.1721,-1.1843,-1.0921,-1.0766,-1.0401,-0.9516,-1.0107,-1.0737,-1.1043,-1.1666,-1.2254,-1.264,-1.2597,-1.2503,0.0,-1.1741,-1.109,-1.0615,-1.0119,-0.948,-0.8724,-0.8986,-0.8894,-0.841,-0.8577,-0.8571,-0.8404,-0.8581,-0.8962,-0.952,-0.9853,-0.9954,-0.9837,-0.988,-0.9456,0.0,0.0,0.0,0.0,-1.0372,-1.0774,-1.0787,-1.0914,-1.0922,-1.0862,0.0,-1.0218,0.0,0.0,0.0,0.0,-0.9372,0.0,0.0,0.0,0.0,0.0,0.0,0.0,0.0,-0.8594,0.0,-0.8578,0.0,0.0,0.0,0.0,0.0,0.0,0.0,0.0,0.0,0.0,0.0,0.0,0.0,0.0,0.0,0.0,0.0,0.0,0.0,0.0,-1.1895,-1.2109,-1.1152,-0.9951,-0.8515,-0.8148,-0.7409,-0.617,-0.6141,-0.6789,-0.7994,-0.8517,-0.939,-1.0593,-1.0593,-1.0593,-1.0593,-1.0593,-1.0593,-1.0593,-1.0593,-1.0593,-1.062,-1.0861,-1.1022,-1.1156,-1.0982,-1.1029,-1.1149,-1.0234,-1.0899,-1.1271,-1.0811,-1.1213,-1.1512,-1.1244,-1.0933,-1.057,-1.0133,-1.0732,-1.1375,-1.1881,-1.2546,-1.3163,-1.3673,-1.3693,-1.3545,0.0,-1.2705,-1.1944,-1.0962,-1.0673,-0.9932,-0.8666,-0.8886,-0.8685,-0.7989,-0.8143,-0.8277,-0.8395,-0.8395,-0.8952,-0.9951,-1.0117,-1.0229,-1.0254,-1.0148,-0.9515,-0.8651,-0.9044,-0.9184,-0.9259,-1.0144,-1.0519,-1.0593,-1.0593,-1.0593,-1.0546,-1.0214,-0.9973,0.0,-0.996,0.0,0.0,0.0,0.0,0.0,-0.8858,0.0,0.0,0.0,0.0,0.0,0.0,0.0,0.0,0.0,0.0,0.0,0.0,0.0,-1.1731,-1.1626,0.0,0.0,0.0,0.0,0.0,0.0,0.0,0.0,0.0,0.0,0.0,0.0,0.0,0.0,-1.1446,-1.043,-0.9483,-0.8721,-0.8126,-0.7394,-0.6506,-0.6506,-0.6949,-0.7806,-0.8668,-0.9494,-1.0352,-1.0352,-1.0352,-1.0352,-1.0352,-1.0399,-1.0472,-1.0472,-1.0519,-1.0593,-1.0593,-1.072,-1.0881,-1.0673,-1.0727,-1.0842,-1.0303,-1.0635,-1.0791,-1.0391,-1.1027,-1.1512,-1.1244,-1.0969,-1.0787,-1.0771,-1.1765,-1.2608,-1.2996,-1.3646,-1.4398,-1.5235,0.0,-1.4085,-1.4065,0.0,-1.253,-1.1778,-1.1632,-1.0605,-0.856,-0.9202,-0.8717,-0.695,-0.7476,-0.7954,-0.8395,-0.8395,-0.863,-0.9067,-0.9652,-0.9555,-0.9007,-0.9568,-0.9571,-0.9184,-0.9204,-0.9544,-1.005,0.0,-1.0307,-1.0593,-1.0593,0.0,0.0,-1.0214,-1.0077,0.0,0.0,0.0,0.0,0.0,0.0,0.0,0.0,0.0,0.0,-0.8543,0.0,0.0,0.0,0.0,-0.8469,0.0,0.0,0.0,0.0,-1.1547,-1.2047,-1.1653,-1.1606,0.0,0.0,0.0,0.0,0.0,0.0,0.0,0.0,0.0,0.0,0.0,0.0,0.0,-1.0324,-0.9639,-0.8991,-0.8422,-0.769,-0.6897,-0.6039,-0.6009,-0.6452,-0.7339,-0.8086,-0.8892,-0.9742,-0.9742,-0.9742,-0.9742,-0.9742,-0.9873,-1.0134,-1.0134,-1.0301,-1.0593,-1.0593,-1.06,-1.0606,-1.0593,-1.06,-1.06,-1.0244,-1.042,-1.0469,-1.0322,-1.0537,-1.0761,-1.0795,-1.0987,-1.1307,0.0,-1.2431,0.0,0.0,-1.4423,-1.4795,0.0,0.0,-1.4561,-1.4561,-1.3769,0.0,-1.1917,-1.1183,-1.0069,-0.8472,-0.8736,-0.8458,-0.7632,-0.8259,-0.8643,-0.8799,-0.8799,-0.917,-0.9864,-0.989,-0.9842,-0.9753,0.0,0.0,0.0,0.0,-0.9305,-0.9873,0.0,0.0,-1.0593,-1.0593,-1.0593,0.0,-1.0479,-1.0184,-0.9846,-0.994,-0.9573,-0.9118,-0.9184,-0.9078,0.0,0.0,0.0,-0.9071,-0.8543,0.0,0.0,0.0,0.0,0.0,0.0,0.0,0.0,0.0,-1.1208,-1.1537,-1.1587,-1.134,-1.0732,0.0,0.0,0.0,0.0,0.0,0.0,0.0,0.0,0.0,0.0,0.0,0.0,0.0,-0.948,-0.9112,-0.895,-0.7863,-0.7378,-0.7591,-0.7116,-0.726,-0.8028,-0.8868,-0.9411,-0.9715,-0.9715,-0.9715,-0.9715,-0.9715,-0.974,-0.9833,-0.9833,-0.9893,-1.003,-1.0194,-1.0147,-1.0057,-1.0445,-1.0593,-1.0593,-1.0273,-1.0303,-1.0303,-1.0303,-1.0557,-1.0842,-1.1124,-1.1686,0.0,0.0,-1.3145,0.0,-1.4681,0.0,-1.4951,0.0,-1.5166,-1.4883,-1.457,-1.418,0.0,-1.2095,-1.1695,-1.0788,-0.9289,-0.9475,-0.9246,-0.8534,-0.8993,-0.9211,-0.9201,-0.8916,-0.9133,-0.9753,-0.9453,-0.9366,-0.9463,-0.9456,-0.9099,0.0,0.0,-0.9192,0.0,0.0,-1.0345,-1.0419,0.0,-1.0345,-1.0419,-1.0311,-1.003,-0.9719,-0.9907,-0.9499,-0.8971,-0.9158,-0.9004,-0.8804,-0.8804,-0.8918,0.0,-0.8516,-0.8402,0.0,-0.8402,0.0,0.0,0.0,0.0,0.0,0.0,-1.0696,-1.0915,-1.0916,-1.0597,-0.9998,0.0,-0.8678,0.0,0.0,0.0,0.0,0.0,0.0,-1.0066,-1.0356,0.0,0.0,0.0,0.0,-0.9058,-0.9058,-0.801,-0.7664,-0.8148,-0.7692,-0.7687,-0.8148,-0.8993,-0.9372,-0.9372,-0.9372,-0.9372,-0.9372,-0.9372,-0.9432,-0.9526,-0.9526,-0.9586,-0.9729,-0.9886,-0.9846,-0.9769,-1.0227,-1.0365,-1.0291,-1.041,-1.0352,-1.0371,-1.0391,-1.1076,0.0,0.0,0.0,-1.3516,0.0,-1.388,-1.4309,-1.4766,-1.4842,-1.498,-1.5381,-1.541,-1.503,-1.4167,-1.4505,0.0,0.0,-1.2978,-1.2549,-1.0777,-1.1232,-1.0811,-0.9453,-0.9554,-0.9575,-0.9537,-0.8775,-0.8545,-0.8754,-0.8422,-0.8198,-0.8134,-0.8586,-0.8791,-0.8831,-0.9078,-0.9191,-0.9217,-0.9532,0.0,-1.001,-0.978,-0.986,-1.0053,-0.978,-0.9702,-0.9659,-0.9659,-0.9459,-0.9191,-0.9191,-0.8998,-0.8804,-0.8804,-0.8804,-0.8744,-0.8489,0.0,0.0,0.0,0.0,-0.8482,0.0,0.0,0.0,0.0,0.0,-1.0233,-0.9775,-0.9432,-0.9143,-0.8877,0.0,0.0,0.0,0.0,0.0,0.0,-1.0036,-0.9393,-0.8898,-0.8491,-0.8304,0.0,0.0,0.0,-0.8804,-0.8076,-0.7723,-0.775,-0.7723,-0.7723,-0.7777,-0.8454,-0.8804,-0.8804,-0.8804,-0.8804,-0.8804,-0.8804,-0.8938,-0.9191,-0.9191,-0.9357,-0.9646,-0.9659,-0.9659,-0.9699,-0.9987,-0.992,-0.9726,-1.0771,-1.1027,-1.1359,0.0,-1.1892,-1.2077,0.0,0.0,0.0,0.0,-1.4346,-1.4775,-1.5205,-1.5254,-1.5293,-1.54,-1.541,0.0,0.0,0.0,0.0,-1.198,-1.1606,-1.0963,-1.0002,-0.986,-0.951,-0.8896,-0.9334,-0.9344,-0.9004,-0.8785,-0.863,-0.8477,-0.8,-0.7965,-0.8253,-0.8442,-0.8611,-0.8811,-0.8884,-0.8891,0.0,0.0,-0.9184,-0.9457,-0.9633,-0.9733,-0.9786,-0.9706,-0.9532,-0.9324,-0.9324,-0.9124,-0.8891,-0.8891,-0.8864,-0.8804,-0.8804,-0.8804,-0.8791,-0.8711,-0.8556,-0.8456,0.0,0.0,0.0,0.0,0.0,0.0,0.0,0.0,0.0,-0.9724,-0.8926,-0.8574,-0.9229,0.0,0.0,-0.9668,0.0,0.0,0.0,-0.8787,-0.8312,-0.8174,-0.8056,0.0,0.0,0.0,0.0,-0.8798,-0.8076,-0.7969,-0.8507,-0.7969,-0.7963,-0.8507,-0.8699,-0.8804,-0.8804,-0.8804,-0.8804,-0.8804,-0.8804,-0.8851,-0.8891,-0.8891,-0.8965,-0.9058,-0.9237,-0.9324,-0.9364,-0.9686,-0.9746,-0.9722,-1.0885,-1.1416,0.0,-1.2164,0.0,0.0,-1.2759,-1.3168,0.0,-1.4055,-1.4512,0.0,-1.5107,-1.5303,-1.541,-1.541,-1.541,0.0,-1.3999,0.0,0.0,-1.1548,-1.1469,-1.1036,-1.0157,-1.0113,0.0,-0.9128,0.0,-0.9124,-0.8538,-0.8209,-0.7956,-0.778,-0.7543,-0.7615,-0.7986,-0.8398,-0.8657,-0.8804,-0.8804,0.0,0.0,-0.8804,-0.8884,-0.9044,-0.9239,-0.9385,-0.9472,-0.9345,-0.9192,-0.9024,-0.9024,-0.8911,-0.8804,-0.8804,-0.8804,-0.8804,-0.8804,-0.8804,-0.8804,-0.8804,-0.8684,-0.8604,-0.8771,-0.8684,-0.8611,0.0,0.0,0.0,0.0,0.0,0.0,-0.8784,-0.819,-0.7954,-0.8416,0.0,0.0,0.0,-0.817,0.0,0.0,0.0,0.0,0.0,0.0,0.0,0.0,0.0,0.0,-0.8611,-0.8337,-0.8374,-0.8804,-0.8401,-0.8401,-0.8804,-0.8804,-0.8804,-0.8804,-0.8804,-0.8804,-0.8804,-0.8804,-0.8804,-0.8804,-0.8804,-0.8804,-0.8824,-0.8958,-0.9024,-0.9044,-0.9239,-0.9299,-0.9319,-1.1047,-1.1726,0.0,0.0,0.0,0.0,0.0,-1.3643,0.0,-1.4143,0.0,-1.4891,-1.4891,-1.5195,-1.541,-1.541,0.0,-1.4868,-1.3611,-1.3847,-1.3152,-1.1121,-1.1771,-1.1651,-1.058,-1.0876,-1.0499,0.0,-0.9226,-0.8745,-0.8002,-0.7378,-0.7027,-0.6917,-0.705,-0.7279,0.0,-0.8444,-0.8804,-0.8804,-0.8804,-0.8804,-0.8804,-0.8804,-0.8804,-0.8804,-0.8804,-0.8944,-0.9118,-0.8865,-0.8804,-0.8804,-0.8804,-0.8804,-0.8804,-0.8804,-0.8804,-0.8804,-0.8804,-0.8804,-0.8804,-0.8804,-0.8804,-0.8804,-0.8804,-0.8804,-0.8804,-0.8804,-0.8804,0.0,0.0,0.0,0.0,-0.7692,0.0,0.0,0.0,0.0,0.0,0.0,0.0,0.0,0.0,0.0,0.0,0.0,0.0,0.0,0.0,0.0,0.0,0.0,-0.8657,0.0,-0.8804,0.0,-0.8804,-0.8804,-0.8804,-0.8804,-0.8804,-0.8804,-0.8804,-0.8804,-0.8804,-0.8804,-0.8804,-0.8804,-0.8804,-0.8804,-0.8804,-0.8804,-0.8804,-0.8804,-0.8804,-0.8844,-1.1866,0.0,0.0,0.0,0.0,-1.3597,-1.3938,-1.4326,-1.459,-1.4658,-1.5039,-1.5303,-1.5303,-1.5371,-1.541,-1.541,-1.541,0.0,0.0,0.0,0.0,-1.0756,-1.0819,-1.0587,-0.9889,-0.9666,-0.9113,0.0,0.0,-0.7769,-0.7035,-0.7021,-0.68,-0.6429,-0.6624,0.0,-0.7866,-0.8537,0.0,-0.8804,-0.8804,-0.8804,-0.8804,-0.8804,-0.8804,-0.8804,-0.8804,-0.8838,-0.8878,-0.8824,-0.8804,-0.8804,-0.8804,-0.8804,-0.8804,-0.8804,-0.8804,-0.8804,-0.8804,-0.8804,-0.8804,-0.8804,-0.8804,-0.8804,-0.8804,-0.8804,-0.8804,-0.8804,-0.8804,-0.8804,-0.8804,0.0,0.0,0.0,0.0,0.0,0.0,0.0,0.0,0.0,0.0,0.0,0.0,0.0,0.0,0.0,0.0,0.0,0.0,0.0,0.0,0.0,0.0,0.0,0.0,0.0,0.0,-0.8804,-0.8804,-0.8804,-0.8804,-0.8804,-0.8804,-0.8804,-0.8804,-0.8804,-0.8804,-0.8804,-0.8804,-0.8804,-0.8804,-0.8804,-0.8804,-0.8804,-0.8804,-0.8818,-1.2448,0.0,0.0,0.0,0.0,0.0,0.0,-1.4194,0.0,-1.4758,-1.4961,-1.5088,-1.5088,-1.5283,-1.541,-1.541,-1.5021,-1.4264,-1.307,-1.2604,-1.1841,-1.0656,-1.0593,-1.0318,-0.9729,-0.9546,-0.8938,-0.7905,0.0,-0.7284,-0.6494,-0.6378,-0.6204,-0.6012,-0.6739,-0.7375,0.0,0.0,0.0,-0.8804,-0.8804,-0.8804,-0.8804,-0.8804,-0.8804,-0.8804,-0.8804,-0.8804,-0.8804,-0.8804,-0.8804,-0.8804,-0.8804,-0.8804,-0.8804,-0.8804,-0.8804,-0.8804,-0.8804,-0.8804,-0.8804,-0.8804,-0.8804,-0.8804,-0.8804,-0.8804,-0.8804,-0.8804,-0.8804,-0.8804,-0.8804,-0.8691,0.0,0.0,0.0,0.0,0.0,0.0,-0.7649,0.0,0.0,0.0,0.0,0.0,0.0,0.0,0.0,0.0,0.0,0.0,0.0,0.0,0.0,0.0,0.0,0.0,0.0,-0.8804,-0.8804,-0.8804,-0.8804,-0.8804,-0.8804,-0.8804,-0.8804,-0.8804,-0.8804,-0.8804,-0.8804,-0.8804,-0.8804,-0.8804,-0.8804,-0.8804,-0.8804,-0.8804,0.0,-1.2934,0.0,0.0,-1.3852,0.0,-1.3439,-1.3843,-1.4253,-1.4411,-1.4421,-1.4421,-1.4421,-1.4705,-1.4903,-1.4903,-1.4293,-1.3606,-1.2787,-1.2143,-1.1437,-1.0656,-1.0593,-1.0318,-0.9729,-0.9715,-0.9138,0.0,0.0,-0.7123,-0.6371,-0.599,-0.5872,0.0,0.0,0.0,0.0,0.0,-0.8804,-0.8804,-0.8804,-0.8804,-0.8804,-0.8804,-0.8804,-0.8804,-0.8804,-0.8804,-0.8804,-0.8804,-0.8804,-0.8804,-0.8804,-0.8804,-0.8804,-0.8804,-0.8804,-0.8804,-0.8804,-0.8804,-0.8804,-0.8804,-0.8804,-0.8804,-0.8804,-0.8804,-0.8804,-0.8804,-0.8804,-0.8804,-0.8804,-0.8804,0.0,0.0,0.0,0.0,0.0,0.0,0.0,0.0,0.0,0.0,0.0,0.0,0.0,0.0,0.0,0.0,-0.6189,-0.6647,0.0,0.0,0.0,0.0,-0.8711,0.0,-0.8804,0.0,-0.8804,-0.8804,-0.8804,-0.8804,-0.8804,-0.8804,-0.8804,-0.8804,-0.8804,-0.8804,-0.8804,-0.8804,-0.8804,-0.8804,-0.8804,-0.8804,-0.8804,-0.8804,0.0,0.0,0.0,0.0,0.0,0.0,0.0,-1.3461,-1.3957,-1.3262,-1.3163,-1.3163,-1.3163,-1.3196,-1.3221,-1.3221,-1.3161,-1.2757,-1.1958,-1.1826,-1.1437,-1.0656,-1.0593,-1.0318,-0.9729,-0.9715,-0.9266,0.0,0.0,-0.731,-0.6906,-0.6392,0.0,0.0,0.0,0.0,0.0,-0.8671,-0.8804,-0.8804,-0.8804,-0.8804,-0.8804,-0.8804,-0.8804,-0.8804,-0.8804,-0.8804,-0.8804,-0.8804,-0.8804,-0.8804,-0.8804,-0.8804,-0.8804,-0.8804,-0.8804,-0.8804,-0.8804,-0.8804,-0.8804,-0.8804,-0.8804,-0.8804,-0.8804,-0.8804,-0.8804,-0.8804,-0.8804,-0.8804,-0.8804,-0.8804,-0.8711,0.0,0.0,0.0,0.0,0.0,-0.7921,-0.6739,0.0,0.0,0.0,0.0,0.0,0.0,0.0,0.0,-0.6176,-0.6472,0.0,-0.7511,0.0,-0.8415,-0.8442,-0.8677,0.0,-0.8804,-0.8804,-0.8804,-0.8804,-0.8804,-0.8804,-0.8804,-0.8804,-0.8804,-0.8804,-0.8804,-0.8804,-0.8804,-0.8804,-0.8804,-0.8804,-0.8804,-0.8804,-0.8804,0.0,0.0,0.0,0.0,0.0,0.0,0.0,-1.2447,-1.2473,-1.1663,-1.2397,-1.3009,-1.3009,-1.3009,-1.3009,-1.3009,-1.2573,-1.2143,-1.1834,-1.1351,-1.0926,-1.0624,-1.0593,-1.0318,-0.9729,-0.9715,-0.928,0.0,0.0,-0.7785,-0.7281,-0.7069,0.0,0.0,0.0,-0.8402,-0.8415,-0.8684,-0.8804,-0.8804,-0.8804,-0.8804,-0.8804,-0.8804,-0.8804,-0.8804,-0.8804,-0.8804,-0.8804,-0.8804,-0.8804,-0.8804,-0.8804,-0.8804,-0.8804,-0.8804,-0.8804,-0.8804,-0.8804,-0.8804,-0.8804,-0.8804,-0.8804,-0.8804,-0.8804,-0.8804,-0.8804,-0.8804,-0.8804,-0.8672,-0.8209,-0.8129,-0.8092,0.0,0.0,0.0,0.0,0.0,0.0,-0.5874,0.0,-0.5711,0.0,0.0,0.0,0.0,0.0,0.0,0.0,0.0,0.0,-0.7181,0.0,-0.8196,-0.8402,-0.8664,-0.8804,-0.8804,-0.8804,-0.8804,-0.8804,-0.8804,-0.8804,-0.8804,-0.8804,-0.8804,-0.8804,-0.8804,-0.8804,-0.8804,-0.8804,-0.8804,-0.8804,-0.8804,-0.8804,-0.8804,-1.1554,0.0,-1.1955,0.0,-1.2422,-1.2332,-1.1556,-1.1648,-1.15,-1.0713,-1.1608,-1.2305,-1.2305,-1.2305,-1.2305,-1.2305,-1.1779,-1.1437,-1.1437,-1.0926,-1.0593,-1.0593,-1.0593,0.0,-0.9729,-0.9715,-0.932,-0.8529,-0.8442,-0.8181,-0.7759,0.0,0.0,0.0,-0.8295,-0.8529,-0.8543,-0.8717,-0.8804,-0.8804,-0.8804,-0.8804,-0.8804,-0.8804,-0.8804,-0.8804,-0.8804,-0.8804,-0.8804,-0.8804,-0.8804,-0.8804,-0.8804,-0.8804,-0.8804,-0.8804,-0.8804,-0.8804,-0.8804,-0.8804,-0.8804,-0.8804,-0.8804,-0.8804,-0.8804,-0.8804,-0.8725,-0.8507,-0.8295,-0.7996,-0.7477,-0.7369,-0.7427,-0.7571,0.0,0.0,0.0,0.0,0.0,-0.526,-0.5274,-0.5061,-0.4202,0.0,0.0,0.0,0.0,0.0,0.0,0.0,0.0,0.0,0.0,0.0,0.0,0.0,-0.8804,-0.8804,-0.8804,-0.8804,-0.8804,-0.8804,-0.8804,-0.8804,-0.8804,-0.8804,-0.8804,-0.8804,-0.8804,-0.8804,-0.8804,-0.8804,-0.8804,-0.8804,-0.8804,-0.8804,-1.1233,-1.1899,-1.2255,-1.1889,-1.2443,-1.2458,-1.087,-1.1288,-1.15,-1.0713,-1.0624,-1.0624,-1.0624,-1.0624,-1.0624,-1.0624,-1.0624,-1.0624,-1.0624,-1.0624,-1.0593,0.0,0.0,-1.0318,-0.9729,-0.9715,-0.9392,-0.8804,0.0,0.0,-0.8389,0.0,-0.8389,-0.8402,-0.8671,-0.8804,-0.8804,-0.8804,-0.8804,-0.8804,-0.8804,-0.8804,-0.8804,-0.8804,-0.8804,-0.8804,-0.8804,-0.8804,-0.8804,-0.8804,-0.8804,-0.8804,-0.8804,-0.8804,-0.8804,-0.8804,-0.8804,-0.8804,-0.8804,-0.8804,-0.8804,-0.8804,-0.8804,-0.8804,-0.8804,-0.8804,-0.8593,-0.7857,-0.7128,-0.6615,-0.6615,-0.6615,-0.6759,-0.7235,0.0,0.0,0.0,0.0,0.0,-0.5211,-0.4878,-0.4622,-0.4408,0.0,0.0,0.0,0.0,0.0,0.0,0.0,0.0,-0.7486,-0.8074,0.0,-0.8402,-0.8664,-0.8804,-0.8804,-0.8804,-0.8804,-0.8804,-0.8804,-0.8804,-0.8804,-0.8804,-0.8804,-0.8804,-0.8804,-0.8804,-0.8804,-0.8804,-0.8804,-0.8804,-0.8804,-0.8804,-0.8804,-1.0791,-1.0998,-1.1119,-1.1,-1.1202,-1.1178,-1.0681,-1.0839,-1.0895,-1.0618,-1.0593,-1.0593,-1.0593,-1.0593,-1.0593,0.0,-1.0593,-1.0593,0.0,-1.0593,-1.0593,-1.0593,-1.0593,-1.0318,-0.9729,-0.988,-0.9593,-0.8804,0.0,0.0,0.0,-0.8671,-0.8671,-0.8671,-0.8764,-0.8804,-0.8804,-0.8804,-0.8804,-0.8804,-0.8804,-0.8804,-0.8804,-0.8804,-0.8804,-0.8804,-0.8804,-0.8804,-0.8804,-0.8804,-0.8804,-0.8804,-0.8804,-0.8804,-0.8804,-0.8804,-0.8804,-0.8804,-0.8804,-0.8804,-0.8804,-0.8804,-0.8804,-0.8804,-0.8804,-0.8401,-0.783,-0.7101,-0.675,-0.6448,-0.5955,-0.5846,-0.5905,-0.6056,0.0,0.0,0.0,0.0,0.0,-0.4573,-0.4241,-0.411,0.0,-0.4425,0.0,0.0,0.0,0.0,0.0,0.0,0.0,0.0,-0.7973,0.0,-0.8402,-0.8664,-0.8804,-0.8804,-0.8804,-0.8804,-0.8804,-0.8804,-0.8804,-0.8804,-0.8804,-0.8804,-0.8804,-0.8804,-0.8804,-0.8804,-0.8804,-0.8804,-0.8804,-0.8804,-0.8804,-0.8804,-1.0593,-1.0593,-1.0593,-1.0593,-1.0593,-1.0593,-1.0593,-1.0593,-1.0593,-1.0593,-1.0593,-1.0593,-1.0593,-1.0593,0.0,-1.0593,-1.0593,-1.0593,-1.0593,-1.0593,-1.0593,-1.0593,-1.0593,-1.0365,-0.986,0.0,0.0,-0.8944,-0.9011,-0.8958,-0.8804,-0.8804,-0.8804,-0.8804,-0.8804,-0.8804,-0.8804,-0.8804,-0.8804,-0.8804,-0.8804,-0.8804,-0.8804,-0.8804,-0.8804,-0.8804,-0.8804,-0.8804,-0.8804,-0.8804,-0.8804,-0.8804,-0.8804,-0.8804,-0.8804,-0.8804,-0.8804,-0.8804,-0.8804,-0.8804,-0.8804,-0.8804,-0.8593,-0.8315,-0.8049,-0.7391,-0.674,-0.6281,-0.5987,-0.566,-0.5222,-0.5136,-0.5218,-0.546,0.0,-0.5194,-0.5395,0.0,0.0,0.0,0.0,0.0,0.0,-0.4449,0.0,0.0,0.0,0.0,0.0,0.0,0.0,-0.7506,-0.8183,0.0,-0.8563,-0.8717,-0.8804,-0.8804,-0.8804,-0.8804,-0.8804,-0.8804,-0.8804,-0.8804,-0.8804,-0.8804,-0.8804,-0.8804,-0.8804,-0.8804,-0.8804,-0.8804,-0.8804,-0.8804,-0.8804,-0.8804,-1.0593,-1.0593,0.0,0.0,-1.0593,0.0,-1.0593,-1.0593,-1.0593,-1.0593,-1.0593,-1.0593,-1.0593,-1.0593,-1.0593,-1.0593,0.0,0.0,0.0,-1.0593,-1.0593,-1.0593,-1.0593,0.0,-1.0127,-1.0134,-0.983,-0.9244,-0.8931,-0.8804,-0.8804,-0.8804,-0.8804,-0.8804,-0.8804,-0.8804,-0.8804,-0.8804,-0.8804,-0.8804,-0.8804,-0.8804,-0.8804,-0.8804,-0.8804,-0.8804,-0.8804,-0.8804,-0.8804,-0.8804,-0.8804,-0.8804,-0.8804,-0.8804,-0.8804,-0.8804,-0.8804,-0.8804,-0.8804,-0.8804,-0.8778,-0.8725,-0.8182,-0.7423,-0.6696,-0.5982,-0.5483,-0.5433,-0.4921,-0.4491,-0.4491,-0.4491,-0.4708,-0.5324,-0.4886,-0.464,-0.5144,0.0,0.0,0.0,0.0,0.0,0.0,-0.4764,-0.4958,0.0,0.0,0.0,0.0,0.0,-0.7055,-0.8282,-0.8631,-0.8804,-0.8804,-0.8804,-0.8804,-0.8804,-0.8804,-0.8804,-0.8804,-0.8804,-0.8804,-0.8804,-0.8804,-0.8804,-0.8804,-0.8804,-0.8804,-0.8804,-0.8804,-0.8804,-0.8804,-0.8804,-0.8804,-0.8804,0.0,0.0,-1.0593,-1.0593,-1.0593,-1.0593,-1.0593,-1.0593,-1.0593,-1.0593,-1.0593,-1.0593,-1.0593,-1.0593,-1.0593,-1.0593,-1.0593,-1.0593,-1.0593,-1.0593,-1.0593,-1.0593,-1.0593,-1.0452,-1.0127,-1.0341,-1.0198,-0.9579,-0.9058,-0.8804,-0.8804,-0.8804,-0.8804,-0.8804,-0.8804,-0.8804,-0.8804,-0.8804,-0.8804,-0.8804,-0.8804,-0.8804,-0.8804,-0.8804,-0.8804,-0.8804,-0.8804,-0.8804,-0.8804,-0.8804,-0.8804,-0.8804,-0.8804,-0.8804,-0.8804,-0.8804,-0.8804,-0.8804,-0.8804,-0.8804,-0.8672,-0.8103,-0.7396,-0.6664,-0.5928,-0.5624,-0.5351,-0.4842,-0.4598,-0.4491,-0.4491,-0.4491,-0.4543,-0.4708,-0.4476,-0.4313,-0.4434,-0.419,0.0,0.0,-0.4136,-0.4173,-0.4371,-0.4579,-0.455,0.0,0.0,0.0,0.0,0.0,-0.6197,-0.7519,-0.8365,-0.8804,-0.8804,-0.8804,-0.8804,-0.8804,-0.8804,-0.8804,-0.8804,-0.8804,-0.8804,-0.8804,-0.8804,-0.8804,-0.8804,-0.8804,-0.8804,-0.8804,-0.8804,-0.8804,-0.8804,-0.8804,-0.8804,-0.8804,-1.0593,-1.0593,-1.0593,-1.0593,-1.0593,-1.0593,-1.0593,-1.0593,-1.0593,-1.0593,-1.0593,-1.0593,-1.0593,-1.0593,-1.0593,-1.0593,-1.0593,-1.0593,-1.0593,-1.0593,-1.0593,-1.0593,-1.0593,-1.0519,-1.0321,-1.0512,-1.0365,-0.988,-0.9264,-0.8978,-0.8978,-0.8978,-0.8978,-0.8978,-0.8978,-0.9078,-0.9212,-0.9212,-0.8978,-0.866,-0.906,-0.8978,-0.8632,-0.8632,-0.8632,-0.8577,-0.8153,-0.8187,-0.839,-0.839,-0.8584,-0.8804,-0.8804,-0.8804,-0.8804,-0.8804,-0.8804,-0.8804,-0.8804,-0.8566,-0.8043,-0.6956,-0.6637,-0.6312,-0.5277,-0.503,-0.4948,-0.457,-0.4491,-0.4491,-0.4491,-0.4491,-0.4467,-0.4375,-0.4355,-0.4271,-0.4136,-0.4105,0.0,-0.4184,-0.4197,-0.4277,-0.4474,-0.4491,-0.4457,-0.4351,0.0,0.0,-0.49,-0.5216,-0.5875,-0.6938,-0.7514,-0.7963,-0.8295,-0.8619,-0.8804,-0.8804,-0.8804,-0.8804,-0.8804,-0.8804,-0.8804,-0.8804,-0.8804,-0.8804,-0.8804,-0.8804,-0.8804,-0.8804,-0.8804,-0.8804,-0.8804,-0.8804,-0.8804,-0.8804,-1.0364,-1.0301,-1.0238,-1.0364,-1.0301,-1.0199,-1.0199,-1.0199,-1.0199,-1.0199,-1.0199,-1.0199,-1.0199,-1.0333,-1.0396,-1.0396,-1.0523,-1.0593,-1.0593,-1.0593,-1.0593,-1.0593,-1.0466,-1.0466,-1.0593,-1.0546,-1.0399,-1.0083,-0.9422,-0.9131,-0.9277,-0.9131,-0.9159,-0.9277,-0.9277,-0.9446,-0.9715,-0.9715,-0.9201,-0.8475,-0.9201,-0.8991,-0.8211,-0.8211,-0.8211,-0.8093,-0.7359,-0.7406,-0.7773,-0.7762,-0.809,-0.8538,-0.8599,-0.8646,-0.8646,-0.8778,-0.8725,-0.8646,-0.8778,-0.8182,-0.723,-0.5977,-0.5982,-0.5964,-0.4763,-0.4491,-0.4491,-0.4491,-0.4491,-0.4491,-0.4491,-0.4491,-0.4443,-0.4244,-0.4351,-0.4361,-0.4035,0.0,-0.4197,-0.4197,-0.4214,-0.4301,-0.4477,-0.4491,-0.4491,-0.4491,-0.4491,0.0,0.0,-0.503,-0.5628,-0.6263,-0.648,-0.6912,-0.7536,-0.8268,-0.8646,-0.8639,-0.8752,-0.8804,-0.8804,-0.8804,-0.8725,-0.8646,-0.8752,-0.8725,-0.8646,-0.8752,-0.8804,-0.8804,-0.8804,-0.8804,-0.8804,-0.8804,-0.8725,-0.8646,-0.9364,-0.8903,-0.8646,-0.9364,-0.8909,-0.8415,-0.8415,-0.8415,-0.8415,-0.8415,-0.8415,-0.8415,-0.8415,-0.9069,-0.9498,-0.9498,-1.0174,-1.0593,-1.0593,-1.0593,-1.0593,-1.0593,-0.9888,-0.9849,-1.0593,-1.0314,-1.0167,-1.0083,-0.9048,-0.8893,-0.9613,-0.8864,-0.8922,-0.9613,-0.9613,-0.9639,-0.9715,-0.9715,-0.9201,-0.8416,-0.8539,-0.8063,-0.7299,-0.7299,-0.7299,-0.7299,-0.7151,-0.7161,-0.7219,-0.7084,-0.711,-0.7271,-0.7734,-0.7883,-0.7996,-0.8619,-0.8348,-0.7996,-0.8619,-0.7803,-0.6723,-0.6475,-0.5632,-0.4763,-0.4546,-0.4491,-0.4491,-0.4491,-0.4491,-0.4491,-0.4491,-0.4491,-0.4443,-0.4244,-0.4214,-0.4193,0.0,0.0,-0.4197,-0.4197,-0.4355,-0.4464,-0.4487,-0.4491,-0.4491,-0.4491,-0.4491,-0.4491,-0.4491,-0.4598,-0.4708,-0.4818,-0.5991,-0.6642,-0.6777,-0.7503,-0.7883,-0.7883,-0.8507,-0.8804,-0.8804,-0.8804,-0.8454,-0.791,-0.8533,-0.8454,-0.791,-0.8533,-0.8804,-0.8804,-0.8804,-0.8804,-0.8804,-0.8804,-0.8401,-0.7883,-0.8517,-0.8517,-0.8452,-0.8581,-0.7994,-0.7632,-0.7962,-0.7994,-0.7994,-0.7994,-0.7994,-0.7994,-0.7994,-0.8355,-0.8613,-0.8613,-0.9396,-0.9684,-0.9224,-1.0072,-1.0396,-0.9913,-0.953,-0.9268,-0.9192,-0.8879,-0.8784,-0.898,-0.8259,-0.8108,-0.8512,-0.8114,-0.8144,-0.8512,-0.8512,-0.8617,-0.878,-0.878,-0.8275,-0.7519,-0.799,-0.7648,-0.6872,-0.6872,-0.6872,-0.6809,-0.6346,-0.6372,-0.6589,-0.6452,-0.6634,-0.6925,-0.7062,-0.7101,-0.7182,-0.7509,-0.767,-0.761,-0.7144,-0.6821,-0.6426,-0.566,-0.525,-0.4948,-0.457,-0.4491,-0.4491,-0.4491,-0.4491,-0.4491,-0.4491,-0.4491,-0.4443,-0.4244,-0.4284,0.0,0.0,-0.4244,-0.4365,-0.4365,-0.445,-0.4491,-0.4491,-0.4491,-0.4491,-0.4491,-0.4491,-0.4491,-0.4491,-0.4491,-0.4491,-0.4491,-0.5492,-0.6009,-0.6009,-0.6745,-0.7101,-0.7101,-0.7456,-0.7616,-0.7616,-0.7616,-0.7423,-0.7128,-0.7477,-0.7429,-0.7128,-0.7477,-0.7616,-0.7616,-0.7616,-0.7616,-0.7616,-0.7616,-0.7396,-0.7101,-0.7665,-0.7864,-0.7929,-0.773,-0.7149,-0.6854,-0.7312,-0.7409,-0.7409,-0.7409,-0.7409,-0.7409,-0.7409,-0.7572,-0.7697,-0.7697,-0.8484,-0.8716,-0.8059,-0.9256,-0.9684,-0.9043,-0.9011,-0.8581,-0.7735,-0.7631,-0.7758,-0.7994,-0.7536,-0.7421,-0.761,-0.7421,-0.7421,-0.761,-0.761,-0.7768,-0.7994,-0.7994,-0.7502,-0.6752,-0.7437,-0.7177,-0.6396,-0.6396,-0.6396,-0.6301,-0.5657,-0.5672,-0.5978,-0.584,-0.6079,-0.6434,-0.6424,-0.6383,-0.6367,-0.6561,-0.688,-0.6988,-0.6005,-0.6036,-0.6095,-0.5007,-0.5003,-0.5136,-0.4625,-0.4491,-0.4491,-0.4491,-0.4491,-0.4491,-0.4491,-0.4491,-0.4443,-0.4244,0.0,0.0,0.0,-0.4372,-0.4491,-0.4491,-0.4491,-0.4491,-0.4491,-0.4491,-0.4491,-0.4491,-0.4491,-0.4491,-0.4491,-0.4491,-0.4491,-0.4491,-0.5003,-0.5273,-0.5273,-0.5982,-0.634,-0.634,-0.6529,-0.6588,-0.6588,-0.6588,-0.6507,-0.6367,-0.6529,-0.6507,-0.6367,-0.6534,-0.6588,-0.6588,-0.6588,-0.6588,-0.6588,-0.6588,-0.648,-0.634,-0.6625,-0.6174,-0.5881,-0.6654,-0.6108,-0.5524,-0.5591,-0.5591,-0.5591,-0.5591,-0.5591,-0.5591,-0.5591,-0.6301,-0.6785,-0.6785,-0.76,-0.8059,-0.7994,-0.8124,-0.8156,-0.8091,-0.8091,-0.7697,-0.6817,-0.7553,-0.7979,-0.7994,-0.7163,-0.7186,-0.7936,-0.7121,-0.7186,-0.7969,-0.7969,-0.7979,-0.7994,-0.7994,-0.7502,-0.6719,-0.6785,-0.6268,-0.5491,-0.5491,-0.5491,-0.5491,-0.5428,-0.5422,-0.542,-0.5229,-0.5109,-0.5141,-0.5698,-0.5742,-0.5706,-0.6394,-0.6145,-0.5787,-0.6367,-0.6064,-0.5569,-0.546,-0.5003,-0.457,-0.4519,-0.4491,-0.4491,-0.4491,-0.4491,-0.4491,-0.4491,-0.4491,-0.4443,-0.4244,0.0,0.0,-0.4214,-0.4372,-0.4491,-0.4491,-0.4491,-0.4491,-0.4491,-0.4491,-0.4491,-0.4491,-0.4491,-0.4491,-0.4491,-0.4491,-0.4491,-0.4491,-0.4546,-0.457,-0.457,-0.5246,-0.5569,-0.5597,-0.6285,-0.6588,-0.6588,-0.6588,-0.6231,-0.5624,-0.6312,-0.6199,-0.5624,-0.6312,-0.6588,-0.6588,-0.6588,-0.6588,-0.6588,-0.6588,-0.6172,-0.5569,-0.5815,-0.562,-0.5491,-0.5848,-0.562,-0.5395,-0.5395,-0.5395,-0.5395,-0.5395,-0.5395,-0.5395,-0.5395,-0.5686,-0.5881,-0.5881,-0.6691,-0.6953,-0.6437,-0.6887,-0.7209,-0.7209,-0.6662,-0.6239,-0.5914,-0.6207,-0.6404,-0.6404,-0.6046,-0.6079,-0.6371,-0.6042,-0.6079,-0.6404,-0.6404,-0.6404,-0.6404,-0.6404,-0.6207,-0.5881,-0.5881,-0.5686,-0.5395,-0.5395,-0.5395,-0.5395,-0.5395,-0.5395,-0.5371,-0.5182,-0.5063,-0.5037,-0.5085,-0.5073,-0.5031,-0.5231,-0.5089,-0.4948,-0.5226,-0.5089,-0.4869,-0.4869,-0.4677,-0.4491,-0.4491,-0.4491,-0.4491,-0.4491,-0.4491,-0.4491,-0.4491,-0.4491,-0.447,-0.4389,0.0,-0.447,-0.4389,-0.4457,-0.4491,-0.4491,-0.4491,-0.4491,-0.4491,-0.4491,-0.4491,-0.4491,-0.4491,-0.4491,-0.4491,-0.4491,-0.4491,-0.4491,-0.4491,-0.4491,-0.4491,-0.4759,-0.4869,-0.4897,-0.5171,-0.5308,-0.5308,-0.5308,-0.5144,-0.4893,-0.5171,-0.5144,-0.4893,-0.5171,-0.5308,-0.5308,-0.5308,-0.5308,-0.5308,-0.5308,-0.5117,-0.4869,-0.5395,-0.5395,-0.5395,-0.5395,-0.5395,-0.5395,-0.5395,-0.5395,-0.5412,-0.546,-0.5426,-0.5429,-0.5525,-0.545,-0.5416,-0.5463,-0.5977,-0.6042,-0.5428,-0.5947,-0.6301,-0.6301,-0.5719,-0.5395,-0.5395,-0.5395,-0.5395,-0.5395,-0.5395,-0.5395,-0.5395,-0.5395,-0.5395,-0.5395,-0.5395,-0.5395,-0.5395,-0.5395,-0.5395,-0.5395,-0.5395,-0.5395,-0.5395,-0.5395,-0.5395,-0.5395,-0.5395,-0.5395,-0.5378,-0.524,-0.514,-0.5063,-0.4894,-0.4765,-0.466,-0.4535,-0.4491,-0.4491,-0.4491,-0.4491,-0.4491,-0.4491,-0.4491,-0.4491,-0.4491,-0.4491,-0.4491,-0.4491,-0.4491,-0.4491,-0.4491,-0.4491,-0.4491,-0.4491,-0.4294,-0.4125,-0.4153,-0.3929,-0.379,-0.379,-0.379,-0.3873,-0.4098,-0.4153,-0.4239,-0.4491,-0.4491,-0.4491,-0.4491,-0.4491,-0.4491,-0.4491,-0.4491,-0.4491,-0.4491,-0.4491,-0.4491,-0.4491,-0.4491,-0.4491,-0.4491,-0.4491,-0.4491,-0.4491,-0.4491,-0.4491,-0.4491,-0.4491,-0.4491,-0.4491,-0.4491,-0.4491,-0.4491,-0.4491,-0.4491,-0.4491,-0.5395,-0.5395,-0.5395,-0.5395,-0.5395,-0.5395,-0.5395,-0.5395,-0.545,-0.5569,-0.5491,-0.5508,-0.5769,-0.5573,-0.5457,-0.5576,-0.5484,-0.5395,-0.5395,-0.5395,-0.5395,-0.5395,-0.5395,-0.5395,-0.5395,-0.5395,-0.5395,-0.5395,-0.5395,-0.5395,-0.5395,-0.5395,-0.5395,-0.5395,-0.5395,-0.5395,-0.5395,-0.5395,-0.5395,-0.5395,-0.5395,-0.5395,-0.5395,-0.5395,-0.5395,-0.5395,-0.5395,-0.5395,-0.5395,-0.5395,-0.526,-0.51,-0.5096,-0.4925,-0.466,-0.4535,-0.4491,-0.4491,-0.4491,-0.4491,-0.4491,-0.4491,-0.4491,-0.4491,-0.4491,-0.4491,-0.4491,-0.4491,-0.4491,-0.4491,-0.4491,-0.4491,-0.4491,-0.4491,-0.3818,-0.3317,-0.3372,-0.2704,-0.2202,-0.2202,-0.2202,-0.248,-0.3231,-0.3345,-0.3707,-0.4436,-0.4491,-0.4491,-0.4491,-0.4491,-0.4491,-0.4491,-0.4491,-0.4491,-0.4491,-0.4491,-0.4491,-0.4491,-0.4491,-0.4491,-0.4491,-0.4491,-0.4491,-0.4491,-0.4491,-0.4491,-0.4491,-0.4491,-0.4491,-0.4491,-0.4491,-0.4491,-0.4491,-0.4491,-0.4491,-0.4491,-0.5395,-0.5395,-0.5395,-0.5395,-0.5395,-0.5395,-0.5395,-0.5395,-0.5412,-0.5457,-0.5423,-0.547,-0.5633,-0.5515,-0.5457,-0.5576,-0.5484,-0.5395,-0.5395,-0.5395,-0.5395,-0.5395,-0.5395,-0.5395,-0.5395,-0.5395,-0.5395,-0.5395,-0.5395,-0.5395,-0.5395,-0.5395,-0.5395,-0.5395,-0.5395,-0.5395,-0.5395,-0.5395,-0.5395,-0.5395,-0.5395,-0.5395,-0.5395,-0.5395,-0.5395,-0.5395,-0.5395,-0.5395,-0.5395,-0.5395,-0.5365,-0.5257,-0.5047,-0.4775,-0.4549,-0.4505,-0.4491,-0.4491,-0.4491,-0.4491,-0.4491,-0.4491,-0.4491,-0.4491,-0.4491,-0.4491,-0.4491,-0.4491,-0.4491,-0.4349,-0.3818,-0.3735,-0.3541,-0.2982,-0.2676,-0.2538,-0.2565,-0.2343,-0.2202,-0.2202,-0.2202,-0.2286,-0.2508,-0.301,-0.3428,-0.3649,-0.4181,-0.4491,-0.4491,-0.4491,-0.4491,-0.4491,-0.4491,-0.4491,-0.4491,-0.4491,-0.4491,-0.4491,-0.4491,-0.4491,-0.4491,-0.4491,-0.4491,-0.4491,-0.4491,-0.4491,-0.4491,-0.4491,-0.4491,-0.4491,-0.4491,-0.4491,-0.4491,-0.4491,-0.4491,-0.4491,-0.5395,-0.5395,-0.5395,-0.5395,-0.5446,-0.5467,-0.5402,-0.5446,-0.5484,-0.5484,-0.5484,-0.5566,-0.5742,-0.5627,-0.5596,-0.5749,-0.5572,-0.5484,-0.5484,-0.5429,-0.5395,-0.5395,-0.5395,-0.5395,-0.5395,-0.5395,-0.5395,-0.5395,-0.5395,-0.5395,-0.5395,-0.5395,-0.5395,-0.5395,-0.5395,-0.5395,-0.5395,-0.5395,-0.5395,-0.5395,-0.5395,-0.5395,-0.5395,-0.5395,-0.5395,-0.5395,-0.5395,-0.5395,-0.5395,-0.5395,-0.5354,-0.5216,-0.4921,-0.4701,-0.4569,-0.4508,-0.4491,-0.4491,-0.4491,-0.4491,-0.4491,-0.4491,-0.4491,-0.4491,-0.4491,-0.4491,-0.4491,-0.4491,-0.4491,-0.4267,-0.3511,-0.3372,-0.3093,-0.2315,-0.1952,-0.1758,-0.1758,-0.1507,-0.134,-0.134,-0.134,-0.1452,-0.173,-0.2174,-0.2565,-0.2843,-0.3317,-0.3594,-0.3594,-0.3594,-0.3594,-0.3594,-0.3594,-0.3594,-0.3594,-0.3594,-0.3901,-0.4491,-0.4491,-0.4491,-0.4491,-0.4491,-0.4491,-0.4491,-0.4491,-0.4491,-0.4491,-0.4491,-0.4491,-0.4491,-0.4491,-0.4491,-0.4491,-0.4491,-0.4491,-0.4491,-0.5395,-0.5326,-0.5263,-0.5276,-0.5324,-0.5298,-0.5165,-0.5259,-0.5344,-0.5344,-0.5344,-0.5451,-0.5696,-0.5599,-0.5607,-0.5864,-0.5688,-0.5596,-0.5606,-0.5487,-0.5399,-0.5416,-0.5402,-0.5395,-0.5395,-0.5395,-0.5395,-0.5395,-0.5395,-0.5395,-0.5395,-0.5395,-0.5395,-0.5395,-0.5395,-0.5395,-0.5395,-0.5395,-0.5395,-0.5395,-0.5395,-0.5395,-0.5395,-0.5395,-0.5395,-0.5395,-0.5395,-0.5395,-0.5395,-0.5395,-0.5257,-0.5049,-0.4799,-0.4701,-0.466,-0.4535,-0.446,-0.4405,-0.4405,-0.4349,-0.4294,-0.4294,-0.4294,-0.4322,-0.446,-0.4491,-0.4491,-0.4491,-0.446,-0.4153,-0.3345,-0.3148,-0.2871,-0.212,-0.1452,-0.1006,-0.1006,-0.042,0.0,0.0,0.0,-0.0252,-0.095,-0.1062,-0.1396,-0.2148,-0.2202,-0.2202,-0.2202,-0.2202,-0.2202,-0.2202,-0.2202,-0.2202,-0.2202,-0.2202,-0.2899,-0.4294,-0.4294,-0.4322,-0.4405,-0.4405,-0.4436,-0.4491,-0.4491,-0.4491,-0.4491,-0.4491,-0.4491,-0.4491,-0.4491,-0.4491,-0.4491,-0.4491,-0.4491,-0.4491,-0.5395,-0.4821,-0.4314,-0.4306,-0.3751,-0.3305,-0.3287,-0.3301,-0.3313,-0.3313,-0.3313,-0.3382,-0.3562,-0.3463,-0.3773,-0.4731,-0.5289,-0.5637,-0.5749,-0.5542,-0.5446,-0.5535,-0.5457,-0.5395,-0.5395,-0.5395,-0.5395,-0.5395,-0.5395,-0.5395,-0.5395,-0.5395,-0.5395,-0.5395,-0.5395,-0.5395,-0.5395,-0.5395,-0.5395,-0.5395,-0.5395,-0.5395,-0.5395,-0.5395,-0.5395,-0.5395,-0.5395,-0.5395,-0.5395,-0.5395,-0.5257,-0.5069,-0.4894,-0.4789,-0.466,-0.4535,-0.4042,-0.3566,-0.3566,-0.3148,-0.2704,-0.2704,-0.2704,-0.301,-0.4236,-0.4491,-0.4491,-0.4491,-0.4042,-0.34,-0.2593,-0.1952,-0.134,-0.0588,-0.0336,-0.0252,-0.0252,-0.0112,0.0,0.0,0.0,-0.0056,-0.0224,-0.0755,-0.1396,-0.2148,-0.2202,-0.2202,-0.2202,-0.2202,-0.2202,-0.2202,-0.2202,-0.2202,-0.2202,-0.2202,-0.2371,-0.2704,-0.2704,-0.301,-0.3566,-0.3566,-0.3901,-0.4491,-0.4491,-0.4491,-0.4491,-0.4491,-0.4491,-0.4491,-0.4491,-0.4491,-0.4491,-0.4491,-0.4491,-0.4491,-0.4818,-0.403,-0.3374,-0.3397,-0.3054,-0.2779,-0.2707,-0.2768,-0.2777,-0.2706,-0.2768,-0.282,-0.2895,-0.29,-0.3136,-0.3787,-0.4138,-0.4506,-0.5,-0.4893,-0.5055,-0.5586,-0.5545,-0.5504,-0.5504,-0.5433,-0.5395,-0.5395,-0.5395,-0.5395,-0.5395,-0.5395,-0.5395,-0.5395,-0.5395,-0.5395,-0.5395,-0.5395,-0.5395,-0.5395,-0.5395,-0.5395,-0.5395,-0.5395,-0.5395,-0.5395,-0.5395,-0.5395,-0.5385,-0.5277,-0.5199,-0.501,-0.4464,-0.424,-0.4059,-0.3558,-0.3105,-0.2788,-0.2788,-0.248,-0.2202,-0.2202,-0.2202,-0.2397,-0.3231,-0.34,-0.34,-0.34,-0.3093,-0.2593,-0.1814,-0.1369,-0.0866,-0.0112,0.0,0.0,0.0,0.0,0.0,0.0,0.0,0.0,0.0,-0.0336,-0.0727,-0.1118,-0.1146,-0.1146,-0.1146,-0.1146,-0.1146,-0.1146,-0.1146,-0.1146,-0.1146,-0.1146,-0.1146,-0.1146,-0.187,-0.2397,-0.2788,-0.2788,-0.301,-0.34,-0.34,-0.34,-0.34,-0.34,-0.34,-0.34,-0.34,-0.34,-0.3456,-0.379,-0.3956,-0.3923,-0.3922,-0.3137,-0.2444,-0.2474,-0.2419,-0.236,-0.2274,-0.2344,-0.2359,-0.2236,-0.2346,-0.2418,-0.2391,-0.2666,-0.2851,-0.2851,-0.2889,-0.3216,-0.3946,-0.4119,-0.4538,-0.5344,-0.5352,-0.5339,-0.5339,-0.5084,-0.509,-0.5395,-0.5395,-0.5395,-0.5395,-0.5395,-0.5329,-0.516,-0.516,-0.509,-0.4954,-0.4954,-0.5024,-0.516,-0.499,-0.5024,-0.516,-0.499,-0.4954,-0.4954,-0.4954,-0.4954,-0.4938,-0.4919,-0.4813,-0.4533,-0.3685,-0.3406,-0.3239,-0.2439,-0.2099,-0.2023,-0.2012,-0.1925,-0.1813,-0.1813,-0.1813,-0.1813,-0.1813,-0.2009,-0.2202,-0.2202,-0.2093,-0.1813,-0.1202,-0.1006,-0.0699,-0.0112,0.0,0.0,0.0,0.0,0.0,0.0,0.0,0.0,0.0,0.0,0.0,0.0,0.0,0.0,0.0,0.0,0.0,0.0,0.0,0.0,0.0,0.0,0.0,-0.0028,-0.1229,-0.1898,-0.2009,-0.2009,-0.2091,-0.2202,-0.2202,-0.2202,-0.2202,-0.2202,-0.2202,-0.2202,-0.2202,-0.2202,-0.2286,-0.2899,-0.3143,-0.3113,-0.2899,-0.2137,-0.1494,-0.1496,-0.0867,-0.0378,-0.0377,-0.0378,-0.0378,-0.0376,-0.0378,-0.0381,-0.0389,-0.1251,-0.1802,-0.1802,-0.248,-0.3003,-0.3227,-0.373,-0.4151,-0.4362,-0.4261,-0.4208,-0.4208,-0.3453,-0.3849,-0.5395,-0.5395,-0.5395,-0.5395,-0.5395,-0.4957,-0.4184,-0.4184,-0.3782,-0.3078,-0.3078,-0.3513,-0.4115,-0.338,-0.3513,-0.4115,-0.3347,-0.3078,-0.3078,-0.3078,-0.3078,-0.3178,-0.3898,-0.3659,-0.2981,-0.274,-0.2645,-0.2577,-0.2294,-0.1754,-0.1246,-0.1239,-0.0783,-0.0308,-0.0308,-0.0308,-0.0308,-0.0308,-0.1284,-0.2202,-0.2202,-0.1703,-0.1229,-0.1118,-0.0588,-0.0112,-0.0028,0.0,0.0,0.0,0.0,0.0,0.0,0.0,0.0,0.0,0.0,0.0,0.0,0.0,0.0,0.0,0.0,0.0,0.0,0.0,0.0,0.0,0.0,0.0,0.0,-0.0196,-0.0643,-0.1257,-0.1257,-0.1591,-0.2202,-0.2202,-0.2202,-0.2202,-0.2202,-0.2202,-0.2202,-0.2202,-0.2202,-0.2204,-0.2313,-0.2341,-0.2341,-0.2074,-0.1275,-0.0562,-0.0576,-0.027,0.0,0.0,0.0,0.0,0.0,0.0,0.0,0.0,-0.0432,-0.0706,-0.0706,-0.1073,-0.151,-0.2076,-0.2439,-0.2918,-0.3465,-0.3427,-0.3404,-0.3404,-0.2924,-0.3082,-0.3905,-0.3878,-0.3882,-0.3882,-0.3882,-0.368,-0.328,-0.328,-0.3045,-0.2711,-0.2711,-0.2911,-0.3245,-0.2845,-0.2945,-0.3245,-0.2845,-0.2711,-0.2711,-0.2711,-0.2711,-0.2744,-0.3145,-0.3011,-0.2604,-0.2014,-0.1824,-0.1724,-0.1131,-0.0745,-0.0497,-0.048,-0.0252,0.0,0.0,0.0,0.0,0.0,-0.0504,-0.0978,-0.0978,-0.0699,-0.0476,-0.0476,-0.0224,0.0,0.0,0.0,0.0,0.0,0.0,0.0,0.0,0.0,0.0,0.0,0.0,0.0,0.0,0.0,0.0,0.0,0.0,0.0,0.0,0.0,0.0,0.0,0.0,0.0,0.0,0.0,-0.0168,-0.0476,-0.0476,-0.0671,-0.0978,-0.0978,-0.0978,-0.0978,-0.0978,-0.0978,-0.0978,-0.0978,-0.1229,-0.1535,-0.1118,-0.1229,-0.1535]}]]